[[{"header":{"parameterUnit":"m.s-1","parameterCategory":1,"la1":30.6,"la2":28.766,"lo1":-90.7593,"lo2":-88.6598,"dx":0.0162,"dy":0.0183,"nx":116,"ny":114,"refTime":"2023-01-16T06:00:00:Z","depth":0,"parameterNumber":2,"parameterNumberName":"U-component_of_WINDS"},"data":[0.0,0.0,0.0,0.0,0.0,0.0,0.0,0.0,0.0,0.0,0.0,0.0,0.0,0.0,0.0,0.0,0.0,0.0,0.0,0.0,0.0,0.0,0.0,0.0,0.0,0.0,0.0,0.0,0.0,0.0,0.0,0.0,0.0,0.0,0.0,0.0,0.0,0.0,0.0,0.0,0.0,0.0,0.0,0.0,0.0,0.0,0.0,0.0,0.0,0.0,0.0,0.0,0.0,0.0,0.0,0.0,0.0,0.0,0.0,0.0,0.0,0.0,0.0,0.0,0.0,0.0,0.0,0.0,0.0,0.0,0.0,0.0,0.0,0.0,0.0,0.0,0.0,0.0,0.0,0.0,0.0,0.0,0.0,0.0,0.0,0.0,0.0,0.0,0.0,0.0,0.0,0.0,0.0,0.0,0.0,0.0,0.0,0.0,0.0,0.0,0.0,0.0,0.0,0.0,0.0,0.0,0.0,0.0,0.0,0.0,0.0,0.0,0.0,0.0,0.0,0.0,0.0,0.0,0.0,0.0,0.0,0.0,0.0,0.0,0.0,0.0,0.0,0.0,0.0,0.0,0.0,0.0,0.0,0.0,0.0,0.0,0.0,0.0,0.0,0.0,0.0,0.0,0.0,0.0,0.0,0.0,0.0,0.0,0.0,0.0,0.0,0.0,0.0,0.0,0.0,0.0,0.0,0.0,0.0,0.0,0.0,0.0,0.0,0.0,0.0,0.0,0.0,0.0,0.0,0.0,0.0,0.0,0.0,0.0,0.0,0.0,0.0,0.0,0.0,0.0,0.0,0.0,0.0,0.0,0.0,0.0,0.0,0.0,0.0,0.0,0.0,0.0,0.0,0.0,0.0,0.0,0.0,0.0,0.0,0.0,0.0,0.0,0.0,0.0,0.0,0.0,0.0,0.0,0.0,0.0,0.0,0.0,0.0,0.0,0.0,0.0,0.0,0.0,0.0,0.0,0.0,0.0,0.0,0.0,0.0,0.0,0.0,0.0,0.0,0.0,0.0,0.0,0.0,0.0,0.0,0.0,0.0,0.0,0.0,0.0,0.0,0.0,0.0,0.0,0.0,0.0,0.0,0.0,0.0,0.0,0.0,0.0,0.0,0.0,0.0,0.0,0.0,0.0,0.0,0.0,0.0,0.0,0.0,0.0,0.0,0.0,0.0,0.0,0.0,0.0,0.0,0.0,0.0,0.0,0.0,0.0,0.0,0.0,0.0,0.0,0.0,0.0,0.0,0.0,0.0,0.0,0.0,0.0,0.0,0.0,0.0,0.0,0.0,0.0,0.0,0.0,0.0,0.0,0.0,0.0,0.0,0.0,0.0,0.0,0.0,0.0,0.0,0.0,0.0,0.0,0.0,0.0,0.0,0.0,0.0,0.0,0.0,0.0,0.0,0.0,0.0,0.0,0.0,0.0,0.0,0.0,0.0,0.0,0.0,0.0,0.0,0.0,0.0,0.0,0.0,0.0,0.0,0.0,0.0,0.0,0.0,0.0,0.0,0.0,0.0,0.0,0.0,0.0,0.0,0.0,0.0,0.0,0.0,0.0,0.0,0.0,0.0,0.0,0.0,0.0,0.0,0.0,0.0,0.0,0.0,0.0,0.0,0.0,0.0,0.0,0.0,0.0,0.0,0.0,0.0,0.0,0.0,0.0,0.0,0.0,0.0,0.0,0.0,0.0,0.0,0.0,0.0,0.0,0.0,0.0,0.0,0.0,0.0,0.0,0.0,0.0,0.0,0.0,0.0,0.0,0.0,0.0,0.0,0.0,0.0,0.0,0.0,0.0,0.0,0.0,0.0,0.0,0.0,0.0,0.0,0.0,0.0,0.0,0.0,0.0,0.0,0.0,0.0,0.0,0.0,0.0,0.0,0.0,0.0,0.0,0.0,0.0,0.0,0.0,0.0,0.0,0.0,0.0,0.0,0.0,0.0,0.0,0.0,0.0,0.0,0.0,0.0,0.0,0.0,0.0,0.0,0.0,0.0,0.0,0.0,0.0,0.0,0.0,0.0,0.0,0.0,0.0,0.0,0.0,0.0,0.0,0.0,0.0,0.0,0.0,0.0,0.0,0.0,0.0,0.0,0.0,0.0,0.0,0.0,0.0,0.0,0.0,0.0,0.0,0.0,0.0,0.0,0.0,0.0,0.0,0.0,0.0,0.0,0.0,0.0,0.0,0.0,0.0,0.0,0.0,0.0,0.0,0.0,0.0,0.0,0.0,0.0,0.0,0.0,0.0,0.0,0.0,0.0,0.0,0.0,0.0,0.0,0.0,0.0,0.0,0.0,0.0,0.0,0.0,0.0,0.0,0.0,0.0,0.0,0.0,0.0,0.0,0.0,0.0,0.0,0.0,0.0,0.0,0.0,0.0,0.0,0.0,0.0,0.0,0.0,0.0,0.0,0.0,0.0,0.0,0.0,0.0,0.0,0.0,0.0,0.0,0.0,0.0,0.0,0.0,0.0,0.0,0.0,0.0,0.0,0.0,0.0,0.0,0.0,0.0,0.0,0.0,0.0,0.0,0.0,0.0,0.0,0.0,0.0,0.0,0.0,0.0,0.0,0.0,0.0,0.0,0.0,0.0,0.0,0.0,0.0,0.0,0.0,0.0,0.0,0.0,0.0,0.0,0.0,0.0,0.0,0.0,0.0,0.0,0.0,0.0,0.0,0.0,0.0,0.0,0.0,0.0,0.0,0.0,0.0,0.0,0.0,0.0,0.0,0.0,0.0,0.0,0.0,0.0,0.0,0.0,0.0,0.0,0.0,0.0,0.0,0.0,0.0,0.0,0.0,0.0,0.0,0.0,0.0,0.0,0.0,0.0,0.0,0.0,0.0,0.0,0.0,0.0,0.0,0.0,0.0,0.0,0.0,0.0,0.0,0.0,0.0,0.0,0.0,0.0,0.0,0.0,0.0,0.0,0.0,0.0,0.0,0.0,0.0,0.0,0.0,0.0,0.0,0.0,0.0,0.0,0.0,0.0,0.0,0.0,0.0,0.0,0.0,0.0,0.0,0.0,0.0,0.0,0.0,0.0,0.0,0.0,0.0,0.0,0.0,0.0,0.0,0.0,0.0,0.0,0.0,0.0,0.0,0.0,0.0,0.0,0.0,0.0,0.0,0.0,0.0,0.0,0.0,0.0,0.0,0.0,0.0,0.0,0.0,0.0,0.0,0.0,0.0,0.0,0.0,0.0,0.0,0.0,0.0,0.0,0.0,0.0,0.0,0.0,0.0,0.0,0.0,0.0,0.0,0.0,0.0,0.0,0.0,0.0,0.0,0.0,0.0,0.0,0.0,0.0,0.0,0.0,0.0,0.0,0.0,0.0,0.0,0.0,0.0,0.0,0.0,0.0,0.0,0.0,0.0,0.0,0.0,0.0,0.0,0.0,0.0,0.0,0.0,0.0,0.0,0.0,0.0,0.0,0.0,0.0,0.0,0.0,0.0,0.0,0.0,0.0,0.0,0.0,0.0,0.0,0.0,0.0,0.0,0.0,0.0,0.0,0.0,0.0,0.0,0.0,0.0,0.0,0.0,0.0,0.0,0.0,0.0,0.0,0.0,0.0,0.0,0.0,0.0,0.0,0.0,0.0,0.0,0.0,0.0,0.0,0.0,0.0,0.0,0.0,0.0,0.0,0.0,0.0,0.0,0.0,0.0,0.0,0.0,0.0,0.0,0.0,0.0,0.0,0.0,0.0,0.0,0.0,0.0,0.0,0.0,0.0,0.0,0.0,0.0,0.0,0.0,0.0,0.0,0.0,0.0,0.0,0.0,0.0,0.0,0.0,0.0,0.0,0.0,0.0,0.0,0.0,0.0,0.0,0.0,0.0,0.0,0.0,0.0,0.0,0.0,0.0,0.0,0.0,0.0,0.0,0.0,0.0,0.0,0.0,0.0,0.0,0.0,0.0,0.0,0.0,0.0,0.0,0.0,0.0,0.0,0.0,0.0,0.0,0.0,0.0,0.0,0.0,0.0,0.0,0.0,0.0,0.0,0.0,0.0,0.0,0.0,0.0,0.0,0.0,0.0,0.0,0.0,0.0,0.0,0.0,0.0,0.0,0.0,0.0,0.0,0.0,0.0,0.0,0.0,0.0,0.0,0.0,0.0,0.0,0.0,0.0,0.0,0.0,0.0,0.0,0.0,0.0,0.0,0.0,0.0,0.0,0.0,0.0,0.0,0.0,0.0,0.0,0.0,0.0,0.0,0.0,0.0,0.0,0.0,0.0,0.0,0.0,0.0,0.0,0.0,0.0,0.0,0.0,0.0,0.0,0.0,0.0,0.0,0.0,0.0,0.0,0.0,0.0,0.0,0.0,0.0,0.0,0.0,0.0,0.0,0.0,0.0,0.0,0.0,0.0,0.0,0.0,0.0,0.0,0.0,0.0,0.0,0.0,0.0,0.0,0.0,0.0,0.0,0.0,0.0,0.0,0.0,0.0,0.0,0.0,0.0,0.0,0.0,0.0,0.0,0.0,0.0,0.0,0.0,0.0,0.0,0.0,0.0,0.0,0.0,0.0,0.0,0.0,0.0,0.0,0.0,0.0,0.0,0.0,0.0,0.0,0.0,0.0,0.0,0.0,0.0,0.0,0.0,0.0,0.0,0.0,0.0,0.0,0.0,0.0,0.0,0.0,0.0,0.0,0.0,0.0,0.0,0.0,0.0,0.0,0.0,0.0,0.0,0.0,0.0,0.0,0.0,0.0,0.0,0.0,0.0,0.0,0.0,0.0,0.0,0.0,0.0,0.0,0.0,0.0,0.0,0.0,0.0,0.0,0.0,0.0,0.0,0.0,0.0,0.0,0.0,0.0,0.0,0.0,0.0,0.0,0.0,0.0,0.0,0.0,0.0,0.0,0.0,0.0,0.0,0.0,0.0,0.0,0.0,0.0,0.0,0.0,0.0,0.0,0.0,0.0,0.0,0.0,0.0,0.0,0.0,0.0,0.0,0.0,0.0,0.0,0.0,0.0,0.0,0.0,0.0,0.0,0.0,0.0,0.0,0.0,0.0,0.0,0.0,0.0,0.0,0.0,0.0,0.0,0.0,0.0,0.0,0.0,0.0,0.0,0.0,0.0,0.0,0.0,0.0,0.0,0.0,0.0,0.0,0.0,0.0,0.0,0.0,0.0,0.0,0.0,0.0,0.0,0.0,0.0,0.0,0.0,0.0,0.0,0.0,0.0,0.0,0.0,0.0,0.0,0.0,0.0,0.0,0.0,0.0,0.0,0.0,0.0,0.0,0.0,0.0,0.0,0.0,0.0,0.0,0.0,0.0,0.0,0.0,0.0,0.0,0.0,0.0,0.0,0.0,0.0,0.0,0.0,0.0,0.0,0.0,0.0,0.0,0.0,0.0,0.0,0.0,0.0,0.0,0.0,0.0,0.0,0.0,0.0,0.0,0.0,0.0,0.0,0.0,0.0,0.0,0.0,0.0,0.0,0.0,0.0,0.0,0.0,0.0,0.0,0.0,0.0,0.0,0.0,0.0,0.0,0.0,0.0,0.0,0.0,0.0,0.0,0.0,0.0,0.0,0.0,0.0,0.0,0.0,0.0,0.0,0.0,0.0,0.0,0.0,0.0,0.0,0.0,0.0,0.0,0.0,0.0,0.0,0.0,0.0,0.0,0.0,0.0,0.0,0.0,0.0,0.0,0.0,0.0,0.0,0.0,0.0,0.0,0.0,0.0,0.0,0.0,0.0,0.0,0.0,0.0,0.0,0.0,0.0,0.0,0.0,0.0,0.0,0.0,0.0,0.0,0.0,0.0,0.0,0.0,0.0,0.0,0.0,0.0,0.0,0.0,0.0,0.0,0.0,0.0,0.0,0.0,0.0,0.0,0.0,0.0,0.0,0.0,0.0,0.0,0.0,0.0,0.0,0.0,0.0,0.0,0.0,0.0,0.0,0.0,0.0,0.0,0.0,0.0,0.0,0.0,0.0,0.0,0.0,0.0,0.0,0.0,0.0,0.0,0.0,0.0,0.0,0.0,0.0,0.0,0.0,0.0,0.0,0.0,0.0,0.0,0.0,0.0,0.0,0.0,0.0,0.0,0.0,0.0,0.0,0.0,0.0,0.0,0.0,0.0,3.7839,0.0,0.0,0.0,0.0,0.0,0.0,0.0,0.0,0.0,0.0,0.0,0.0,0.0,0.0,0.0,0.0,0.0,0.0,0.0,0.0,0.0,0.0,0.0,0.0,0.0,0.0,0.0,0.0,0.0,0.0,0.0,0.0,0.0,0.0,0.0,0.0,0.0,0.0,0.0,2.6342,2.768,2.9563,2.8412,2.7347,2.6355,0.0,0.0,0.0,0.0,0.0,0.0,0.0,0.0,0.0,0.0,0.0,0.0,0.0,0.0,0.0,0.0,0.0,0.0,0.0,0.0,0.0,0.0,0.0,0.0,0.0,0.0,0.0,0.0,0.0,0.0,0.0,0.0,0.0,0.0,0.0,0.0,0.0,0.0,0.0,0.0,0.0,0.0,0.0,0.0,0.0,0.0,0.0,0.0,0.0,0.0,0.0,0.0,0.0,0.0,0.0,0.0,0.0,0.0,0.0,0.0,0.0,0.0,0.0,0.0,0.0,0.0,0.0,0.0,0.0,0.0,0.0,3.8793,0.0,0.0,0.0,0.0,0.0,0.0,0.0,0.0,0.0,0.0,0.0,0.0,0.0,0.0,0.0,0.0,0.0,0.0,0.0,0.0,0.0,0.0,0.0,0.0,0.0,0.0,0.0,0.0,0.0,0.0,0.0,0.0,0.0,0.0,0.0,0.0,0.0,0.0,2.885,3.0403,3.1838,3.1913,3.1009,2.9202,2.7932,0.0,0.0,0.0,0.0,0.0,0.0,0.0,0.0,0.0,0.0,0.0,0.0,0.0,0.0,0.0,0.0,0.0,0.0,0.0,0.0,0.0,0.0,0.0,0.0,0.0,0.0,0.0,0.0,0.0,0.0,0.0,0.0,0.0,0.0,0.0,0.0,0.0,0.0,0.0,0.0,0.0,0.0,0.0,0.0,0.0,0.0,0.0,0.0,0.0,0.0,0.0,0.0,0.0,0.0,0.0,0.0,0.0,0.0,0.0,0.0,0.0,0.0,0.0,0.0,0.0,4.158,4.1636,4.2127,4.2922,4.1858,4.115,4.0743,0.0,0.0,0.0,0.0,0.0,0.0,0.0,0.0,0.0,0.0,0.0,0.0,0.0,0.0,0.0,0.0,0.0,0.0,0.0,0.0,0.0,0.0,0.0,0.0,0.0,0.0,0.0,0.0,0.0,0.0,0.0,0.0,0.0,0.0,2.6388,2.7973,3.0901,3.3383,3.4209,3.3571,3.4073,3.4123,3.3771,3.1662,3.0457,0.0,0.0,0.0,0.0,0.0,0.0,0.0,0.0,0.0,0.0,0.0,0.0,0.0,0.0,0.0,0.0,0.0,0.0,0.0,0.0,0.0,0.0,0.0,0.0,0.0,0.0,0.0,0.0,0.0,0.0,0.0,0.0,0.0,0.0,0.0,0.0,0.0,0.0,0.0,0.0,0.0,0.0,3.2062,3.3746,0.0,0.0,0.0,0.0,0.0,0.0,0.0,0.0,0.0,0.0,0.0,0.0,0.0,0.0,3.9881,4.1268,4.2093,4.2238,4.2393,4.2611,4.2919,4.3213,4.3462,4.361,4.4452,0.0,4.1798,4.1724,0.0,0.0,0.0,0.0,0.0,0.0,0.0,0.0,0.0,0.0,0.0,0.0,0.0,0.0,0.0,0.0,0.0,0.0,0.0,0.0,0.0,0.0,0.0,0.0,0.0,0.0,0.0,0.0,0.0,0.0,0.0,2.5314,2.7273,2.7167,2.8893,3.2702,3.4594,3.5734,3.6207,3.6458,3.6558,3.6533,3.5554,3.3771,3.1486,3.0984,0.0,0.0,0.0,0.0,0.0,0.0,0.0,0.0,0.0,0.0,0.0,0.0,0.0,0.0,0.0,0.0,0.0,0.0,0.0,0.0,0.0,0.0,0.0,0.0,0.0,0.0,0.0,0.0,0.0,0.0,0.0,0.0,0.0,0.0,0.0,0.0,0.0,0.0,0.0,3.2837,3.3073,3.5098,3.4194,3.4048,0.0,0.0,0.0,0.0,0.0,0.0,0.0,0.0,0.0,3.8588,3.8633,3.907,3.9943,4.0354,4.0875,4.1445,4.1251,4.1365,4.1828,4.1954,4.2178,4.2494,4.2679,4.22,4.1406,4.2694,4.2757,4.1984,0.0,0.0,0.0,0.0,0.0,0.0,0.0,0.0,0.0,0.0,0.0,0.0,0.0,0.0,0.0,0.0,0.0,0.0,0.0,0.0,0.0,2.2344,0.0,0.0,0.0,0.0,0.0,0.0,0.0,2.6126,2.8376,2.8871,3.0661,3.4007,3.559,3.696,3.8015,3.7693,3.7693,3.799,3.7543,3.5974,3.3671,3.3244,3.2574,0.0,0.0,0.0,0.0,0.0,0.0,0.0,0.0,0.0,0.0,0.0,0.0,0.0,0.0,0.0,0.0,0.0,0.0,0.0,0.0,0.0,0.0,0.0,0.0,0.0,0.0,0.0,0.0,0.0,0.0,0.0,0.0,0.0,0.0,0.0,0.0,0.0,0.0,3.3885,3.3623,3.5832,3.4613,3.4604,0.0,0.0,0.0,0.0,0.0,0.0,3.8492,3.8618,3.8664,3.8525,3.8375,3.8808,3.9817,3.9801,4.0192,4.0888,4.0474,4.0562,4.0888,4.1021,4.1217,4.1477,4.124,4.1087,4.1,4.2646,4.2856,4.2198,4.2723,4.2936,0.0,4.334,4.3776,4.4217,0.0,0.0,0.0,0.0,0.0,0.0,0.0,0.0,0.0,0.0,0.0,0.0,0.0,0.0,2.3179,2.3652,2.375,2.3613,0.0,0.0,0.0,2.5673,2.6992,2.8144,2.9033,3.2577,3.4596,3.5041,3.7519,3.8467,3.7965,3.6892,3.6969,3.794,3.6356,3.6406,3.7613,3.5984,3.5307,3.5006,0.0,0.0,0.0,0.0,0.0,0.0,0.0,0.0,0.0,0.0,0.0,0.0,0.0,0.0,0.0,0.0,0.0,0.0,0.0,0.0,0.0,0.0,0.0,0.0,0.0,0.0,0.0,0.0,0.0,0.0,0.0,0.0,0.0,0.0,0.0,0.0,0.0,0.0,0.0,3.4903,3.5143,0.0,0.0,0.0,0.0,3.8309,3.8331,3.8927,4.0252,3.7996,3.7467,3.9295,3.8942,3.8942,3.9461,4.0715,4.1412,4.1455,4.1433,4.1433,4.1455,4.1769,4.1791,4.1544,4.2082,4.2015,4.1412,4.1022,4.0694,4.06,4.2573,4.3245,4.3161,4.488,4.5497,4.5532,0.0,0.0,0.0,0.0,0.0,0.0,0.0,0.0,0.0,0.0,0.0,0.0,0.0,2.4121,2.4933,2.543,2.5957,2.6094,2.5664,0.0,0.0,2.6582,2.8018,2.9149,2.977,3.2289,3.381,3.4282,3.5858,3.6682,3.6825,3.6403,3.6825,3.7892,3.6228,3.6264,3.7459,3.6472,3.6081,3.5956,3.46,3.3847,0.0,0.0,0.0,0.0,0.0,0.0,0.0,0.0,0.0,0.0,0.0,0.0,0.0,0.0,0.0,0.0,0.0,0.0,0.0,0.0,0.0,0.0,0.0,0.0,0.0,0.0,0.0,0.0,0.0,0.0,0.0,0.0,0.0,0.0,0.0,0.0,0.0,3.5269,3.4882,0.0,0.0,3.6498,3.6529,3.7971,3.8352,3.8528,3.846,3.8397,3.8248,3.8087,3.7898,3.8017,3.8456,3.8929,3.9353,3.9637,3.9922,3.9993,3.9993,4.0442,4.0584,4.046,4.0729,4.0657,4.0439,4.0277,4.0529,4.1176,4.1883,4.2899,4.4044,4.4645,4.5735,4.681,0.0,0.0,0.0,0.0,0.0,0.0,0.0,0.0,0.0,0.0,0.0,2.3535,2.4551,2.5566,2.6348,2.6777,2.7395,2.748,2.7051,0.0,0.0,2.7695,2.8932,3.0128,3.1071,3.2435,3.3726,3.4835,3.5681,3.6406,3.6832,3.6339,3.675,3.7934,3.6145,3.5918,3.6877,3.6249,3.6064,3.6081,3.589,3.5604,3.5152,0.0,0.0,0.0,0.0,0.0,0.0,0.0,0.0,0.0,0.0,0.0,0.0,0.0,0.0,0.0,0.0,0.0,0.0,0.0,0.0,0.0,0.0,0.0,0.0,0.0,0.0,0.0,0.0,0.0,0.0,0.0,0.0,0.0,0.0,0.0,3.4493,3.5577,3.5107,3.5545,3.7609,3.6435,3.6138,3.7597,3.8037,3.8006,3.7551,3.8397,3.8608,3.793,3.8086,3.8301,3.8594,3.873,3.8867,3.9023,3.9297,3.9434,3.9453,3.9766,3.9902,3.9902,3.9902,3.9902,3.9902,3.9902,4.0285,4.0997,4.1385,4.2323,4.3549,4.3871,4.4844,4.5955,0.0,0.0,0.0,0.0,0.0,0.0,0.0,0.0,0.0,0.0,2.3652,2.4941,2.6269,2.6797,2.7226,2.7708,2.7748,2.7519,2.709,2.7871,0.0,2.8965,2.9766,3.1083,3.2848,3.3317,3.4631,3.6799,3.7246,3.7668,3.8008,3.6457,3.6595,3.8043,3.5892,3.5356,3.5999,3.542,3.5271,3.5545,3.6106,3.6335,3.6257,0.0,0.0,0.0,0.0,0.0,0.0,0.0,0.0,0.0,0.0,0.0,0.0,0.0,0.0,0.0,0.0,0.0,0.0,0.0,0.0,0.0,0.0,0.0,0.0,0.0,0.0,0.0,0.0,0.0,0.0,0.0,0.0,0.0,3.3535,3.3476,3.4093,3.5699,3.5984,3.6524,3.7698,3.7516,3.7324,3.7324,3.7344,3.7539,3.7949,3.7969,3.8359,3.9199,3.9668,3.9902,3.9922,4.0312,4.0332,3.9941,3.9941,3.9961,3.9961,3.9961,3.998,3.998,3.998,3.998,3.998,3.998,3.998,4.0073,4.1073,4.1452,4.1679,4.2618,4.3006,4.3075,0.0,0.0,0.0,0.0,0.0,0.0,0.0,0.0,0.0,0.0,2.4297,2.5391,2.6699,2.75,2.7988,2.8105,2.8398,2.8398,2.7969,0.0,3.0329,3.0618,3.0767,3.1264,3.208,3.2991,3.3796,3.4492,3.4853,3.5099,3.5226,3.4745,3.5216,3.6413,3.4608,3.4247,3.4869,3.4306,3.3892,3.3713,3.4342,3.5055,3.5771,0.0,0.0,0.0,0.0,0.0,0.0,0.0,0.0,0.0,0.0,0.0,0.0,0.0,0.0,0.0,0.0,0.0,0.0,0.0,0.0,0.0,0.0,0.0,0.0,0.0,0.0,0.0,0.0,0.0,0.0,0.0,0.0,3.5215,3.4453,3.4902,3.5547,3.6367,3.6749,3.7031,3.7406,3.7649,3.7754,3.7754,3.832,3.873,3.8848,3.918,3.9453,3.9707,3.9824,4.0039,4.0351,4.0469,4.0625,4.082,4.1133,4.1269,4.1289,4.1601,4.1738,4.1738,4.1738,4.1738,4.1738,4.1738,4.1738,4.1601,4.067,4.1009,4.1979,4.222,4.3005,4.3916,0.0,0.0,0.0,0.0,0.0,0.0,0.0,0.0,0.0,0.0,2.4922,2.5918,2.7383,2.7988,2.8359,2.8535,2.8613,2.8711,2.8828,0.0,3.0663,3.0817,3.1108,3.146,3.1894,3.285,3.3637,3.4146,3.4513,3.5005,3.55,3.5107,3.539,3.6125,3.4807,3.4383,3.4617,3.4012,3.3436,3.2831,3.3007,3.3944,3.5227,3.5227,3.527,3.5381,3.5404,3.4993,3.427,3.3314,0.0,0.0,0.0,0.0,0.0,0.0,0.0,0.0,0.0,0.0,0.0,0.0,0.0,0.0,0.0,0.0,0.0,0.0,0.0,0.0,0.0,0.0,0.0,0.0,3.6152,3.6445,3.6094,3.6348,3.6719,3.7148,3.7402,3.7695,3.8066,3.832,3.8535,3.873,3.9219,3.9492,3.9492,3.9746,4.0059,4.041,4.0605,4.0898,4.1308,4.1504,4.1621,4.1699,4.1953,4.207,4.207,4.2305,4.2422,0.0,4.2422,4.2422,4.2422,4.2422,4.2422,0.0,0.0,0.0,0.0,0.0,4.2242,4.3023,0.0,0.0,0.0,0.0,0.0,0.0,0.0,0.0,0.0,0.0,0.0,2.6337,2.8105,2.8301,2.8457,2.8887,2.8574,2.873,0.0,3.0,3.0234,3.0332,3.1094,3.1741,3.2078,3.2991,3.3937,3.4941,3.5452,3.6298,3.7405,3.6577,3.6411,3.6763,3.5893,3.5293,3.4857,3.4403,3.3641,3.2851,3.2375,3.3116,3.4514,3.4582,3.436,3.393,3.3417,3.3206,3.306,3.2959,0.0,0.0,0.0,0.0,0.0,0.0,0.0,0.0,0.0,0.0,0.0,0.0,0.0,0.0,0.0,0.0,0.0,0.0,0.0,0.0,0.0,0.0,0.0,0.0,3.6875,3.7559,3.8066,3.7773,3.7656,3.8027,3.8066,3.8379,3.9199,3.9277,3.9473,3.9922,4.0019,4.0059,4.0117,0.0,0.0,0.0,0.0,4.209,4.2558,4.2949,4.3008,4.2715,4.2715,4.2715,4.2715,4.2715,4.2715,4.2715,4.2715,4.2715,4.2715,4.2715,4.2715,4.2656,4.209,4.1875,4.1816,4.1445,4.1308,0.0,0.0,0.0,0.0,0.0,0.0,0.0,0.0,0.0,0.0,2.5284,2.5635,2.6337,2.8105,2.8301,2.8457,2.8887,2.8848,2.916,3.0019,3.0156,3.0508,3.123,3.1663,3.2136,3.2662,3.3897,3.4774,3.5093,3.6049,3.6699,3.6929,3.6763,3.6722,3.6784,3.6362,3.5828,3.5293,3.4882,3.4389,3.3762,3.3306,3.3162,3.3316,3.3766,3.4199,3.4578,3.4877,3.4739,3.4239,3.3354,3.2796,3.2279,3.1518,0.0,0.0,0.0,0.0,0.0,0.0,0.0,0.0,0.0,0.0,0.0,0.0,0.0,0.0,0.0,0.0,0.0,0.0,0.0,0.0,3.75,3.7695,3.8203,3.9355,3.9121,3.8867,3.8945,3.8945,3.916,3.9707,3.9766,3.9941,4.0371,4.0723,4.1074,4.1406,4.1758,0.0,4.2187,4.2266,4.2676,4.3457,4.3535,4.3906,4.4531,0.0,0.0,4.4531,4.4531,4.4531,4.4531,4.4531,4.4531,4.4531,4.4531,4.4531,4.4375,4.2891,4.2305,4.2285,4.2207,4.2187,4.2187,0.0,0.0,0.0,0.0,0.0,0.0,0.0,0.0,0.0,0.0,2.541,2.5977,2.748,2.7851,2.8242,2.8867,2.9531,2.998,3.0176,3.041,3.084,3.1484,3.1898,3.233,3.2773,3.411,3.4986,3.5429,3.6197,3.6803,3.7205,3.6979,3.6999,3.7205,3.6753,3.6403,3.6072,3.527,3.4738,3.443,3.3328,3.2897,3.291,3.2921,3.3126,3.3345,3.3639,3.3726,3.3639,3.3057,3.2742,3.2429,3.1961,3.1622,3.1347,0.0,0.0,0.0,0.0,0.0,0.0,0.0,0.0,0.0,0.0,0.0,0.0,0.0,0.0,3.6719,0.0,0.0,3.7754,3.8184,3.8418,3.8867,3.9766,3.9687,3.9629,3.9844,3.9687,3.9805,4.0469,4.0527,4.0801,4.1426,4.168,4.1894,4.2109,4.2305,4.2519,4.2754,4.2754,4.3164,4.4043,4.4043,4.4375,4.5019,4.5019,4.5019,4.5019,4.5019,4.5019,4.5019,4.5019,4.5019,4.5019,4.5019,4.5019,4.4941,4.4062,4.373,4.373,4.373,4.373,4.373,0.0,0.0,0.0,0.0,0.0,0.0,0.0,0.0,0.0,0.0,2.5106,2.5566,2.6875,2.7402,2.7969,0.0,3.0078,3.0664,3.0117,3.0586,3.1113,3.1621,3.1973,3.2402,3.291,3.3989,3.4987,3.5706,3.6259,3.6902,3.7616,3.7315,3.7335,3.7662,3.7123,3.6893,3.6795,3.5486,3.4938,3.4818,3.3155,3.269,3.2883,3.2215,3.1881,3.1819,3.1819,3.2107,3.2555,3.2555,3.2621,3.2827,3.2921,3.2857,3.2728,3.2446,3.2608,0.0,0.0,0.0,0.0,0.0,0.0,0.0,0.0,0.0,3.5527,3.668,3.7246,3.7578,3.7656,3.7949,3.832,3.875,3.918,3.9648,4.0195,4.0273,4.0449,4.0957,4.0508,4.0488,4.1328,4.1426,4.1738,4.25,4.2558,4.2598,4.2676,4.2754,4.2969,4.332,4.3418,4.3848,4.4629,4.4648,4.4863,4.5273,4.5273,4.5273,4.5273,4.5351,4.5391,4.5391,4.5488,4.5527,4.5527,4.5527,4.5527,4.5527,4.5527,4.5527,4.5488,4.5137,4.5019,4.5019,0.0,0.0,0.0,0.0,0.0,0.0,0.0,0.0,0.0,0.0,0.0,0.0,0.0,0.0,0.0,2.832,2.9922,3.0527,2.9687,3.043,3.125,3.207,3.2148,3.2539,3.334,3.4147,3.4858,3.5381,3.6411,3.7187,3.7616,3.7909,3.8063,3.8104,3.738,3.7003,3.6836,3.5636,3.5111,3.4969,3.3578,3.3035,3.2994,3.2165,3.158,3.118,3.118,3.1519,3.1903,3.1903,3.2428,3.3094,3.3075,3.3054,3.2873,3.2127,0.0,3.2854,3.1659,0.0,0.0,3.4258,3.4512,3.4824,0.0,0.0,3.7148,3.7676,3.8125,3.8535,3.8926,3.9023,3.9199,3.9668,4.0098,4.0664,4.1465,4.1582,4.1894,4.2695,4.1758,4.1367,4.2207,4.2285,4.248,4.2969,4.3008,4.3164,4.3535,4.3945,4.4199,4.4258,4.4609,4.5039,4.5527,4.5527,4.5742,4.6152,4.6152,4.6152,4.6172,4.6543,4.6719,4.6738,4.7129,4.7305,4.7305,4.7305,4.7305,4.7305,4.7305,4.7305,4.7109,4.5586,4.5019,4.5019,0.0,0.0,0.0,0.0,0.0,0.0,0.0,0.0,0.0,0.0,0.0,0.0,0.0,0.0,0.0,2.8594,2.9785,3.0332,2.9961,3.0527,3.1172,3.1758,3.2031,3.2441,3.3047,3.4049,3.4675,3.4854,3.5636,3.6208,3.663,3.6763,3.7038,3.728,3.6884,3.6509,3.6222,3.5002,3.4421,3.4269,3.2772,3.2316,3.2396,3.186,3.1485,3.1346,3.1492,3.1787,0.0,0.0,3.2411,3.2714,3.2775,3.3275,3.3638,3.2415,3.313,0.0,3.3769,0.0,0.0,0.0,3.584,3.6113,3.7168,3.7344,3.748,3.8164,3.8652,3.8984,3.916,3.9414,3.9824,0.0,4.0781,4.1191,4.2051,4.2168,4.2402,4.3008,4.2598,4.2422,4.2773,4.2812,4.3086,4.3789,4.3848,4.4023,4.4453,4.4648,4.4766,4.4766,4.5176,4.5605,4.6035,4.6289,4.6621,4.7051,4.7051,4.7051,4.7051,4.7226,4.7305,4.7305,4.7226,4.7207,4.7187,4.6933,4.6973,4.7207,4.7207,4.7363,4.7461,4.6484,4.6133,4.6094,0.0,0.0,0.0,0.0,0.0,0.0,0.0,0.0,0.0,0.0,0.0,0.0,0.0,0.0,2.7871,2.8359,2.9394,2.998,2.9863,3.0371,3.0937,3.1504,3.1816,3.2246,3.2793,3.365,3.4211,3.4448,3.4913,3.5355,3.5706,3.5838,3.6084,3.6363,3.6176,3.591,3.5448,3.4334,3.3737,3.3457,3.2053,3.1701,3.2038,3.1622,3.166,3.1876,3.1899,3.2136,0.0,0.0,3.2695,3.2714,3.3107,3.3684,3.4107,3.3057,3.3823,3.5172,3.5614,0.0,0.0,3.666,3.6934,3.7168,3.7793,3.7773,3.7851,3.8594,3.8984,3.9277,3.9531,3.9941,4.0488,4.123,4.1543,4.1953,4.2676,4.2891,4.3183,4.373,4.3691,4.3652,4.3789,4.3574,4.375,4.4512,4.457,4.4707,4.5,4.5137,4.5254,4.5371,4.5801,4.623,4.6641,4.6953,4.7266,4.7578,4.7578,4.7519,4.7402,4.7402,4.7461,4.7558,4.7246,4.7109,4.709,4.6777,4.6836,4.7109,4.7109,4.7305,4.7519,4.709,4.7012,4.707,0.0,0.0,0.0,0.0,0.0,0.0,0.0,0.0,0.0,0.0,0.0,0.0,0.0,0.0,2.75,2.7109,2.8613,2.9414,2.8984,2.9746,3.0605,3.1484,3.1523,3.1934,3.2773,3.2832,3.3242,3.4146,3.4468,3.4834,3.5335,3.5661,3.5791,3.5811,3.5466,3.5097,3.4596,3.374,3.3184,3.2734,3.1875,3.1777,3.217,3.168,3.2031,3.2695,3.2346,0.0,0.0,0.0,3.3359,3.3516,3.4355,3.442,0.0,3.4088,3.4336,0.0,0.0,0.0,3.6738,3.7168,3.7578,3.7891,3.791,3.8242,3.8652,3.9101,3.9199,3.9473,4.0312,4.084,4.1269,4.1699,4.248,4.3183,4.3613,4.4043,4.4648,4.5488,4.5215,4.5137,0.0,4.4844,4.4531,4.498,4.5,4.5019,4.5019,4.543,4.584,4.625,4.668,4.7109,4.7539,4.7558,4.7578,4.7578,4.7578,4.7363,4.6953,4.6953,4.7187,4.7578,4.7558,4.7558,4.7558,4.7539,4.7558,4.7558,4.7558,4.7578,4.7519,4.709,4.7187,4.7558,0.0,0.0,0.0,0.0,0.0,0.0,0.0,0.0,0.0,0.0,0.0,0.0,0.0,0.0,0.0,0.0,2.7812,2.8413,2.8496,2.9297,3.0039,3.0605,3.1211,3.166,3.1934,3.25,3.293,3.3223,3.3623,3.4059,3.4491,3.462,3.4685,3.4685,3.4556,3.4236,3.3784,3.2953,3.2676,3.2715,3.1855,3.1777,3.2187,3.2324,3.2539,3.2851,0.0,0.0,0.0,0.0,0.0,0.0,3.4512,0.0,3.5469,3.6055,3.6113,3.6172,3.6894,3.7285,3.7539,3.7676,3.8027,3.8437,3.8711,3.8887,3.9121,3.957,4.0117,4.0605,4.0898,4.1758,4.248,4.2617,4.3125,4.3652,4.4101,4.4531,4.5039,4.5605,4.5547,0.0,0.0,0.0,0.0,4.543,4.5449,4.5586,4.5859,4.6269,4.6562,4.6719,4.7402,4.7851,4.7988,4.8281,4.8281,4.7988,4.7715,4.75,4.7363,4.7363,4.7441,4.7558,4.7266,4.7148,4.7129,4.6855,4.6894,4.7148,4.7148,4.7324,4.7558,4.7422,4.7461,4.75,0.0,0.0,0.0,0.0,0.0,0.0,0.0,0.0,0.0,0.0,0.0,0.0,0.0,0.0,0.0,0.0,0.0,2.7559,2.7812,2.8633,2.9297,2.9726,3.0586,3.1055,3.1055,3.1758,3.2109,3.2109,3.2539,3.2969,3.3398,3.3555,3.3691,3.3848,3.3848,3.3594,3.3164,3.2617,3.2715,3.3144,3.1992,3.2051,3.2894,3.2637,3.2656,0.0,0.0,0.0,0.0,0.0,0.0,0.0,0.0,0.0,3.6426,3.7266,3.7441,3.7441,3.7871,3.8301,3.8633,3.8633,3.8945,3.9336,3.9609,3.9805,4.0039,4.0488,4.1016,4.1445,4.1601,4.2539,4.3262,4.3105,4.3691,4.4277,4.457,4.5117,4.5703,4.6289,4.6484,4.668,0.0,0.0,0.0,4.5918,4.5898,4.6074,4.6504,4.6777,4.707,4.7383,4.793,4.8203,4.8203,4.8476,4.8418,4.7969,4.7558,4.7344,4.7344,4.7187,4.7129,4.7109,4.6836,4.6699,4.668,4.6426,4.6465,4.6699,4.6699,4.6875,4.7129,4.7129,4.7129,4.709,0.0,0.0,0.0,0.0,0.0,0.0,0.0,0.0,0.0,0.0,0.0,0.0,0.0,0.0,0.0,0.0,0.0,0.0,2.6973,2.7754,2.8418,2.8848,2.9668,3.0137,3.0137,3.0605,3.0859,3.0859,3.1269,3.1699,3.2109,3.25,3.291,3.3281,3.3281,3.3066,3.2695,3.2695,3.3184,3.3809,3.2168,3.25,3.3848,3.2598,0.0,0.0,0.0,0.0,0.0,3.5508,3.541,3.4961,3.6289,3.6699,3.6875,3.7715,3.8242,3.8672,3.9082,3.9531,3.9863,3.9922,4.0254,4.0566,4.0605,4.0957,4.1387,4.1758,4.1875,4.2012,0.0,0.0,4.3633,4.3223,4.4199,4.5019,4.5019,4.5742,4.6582,0.0,0.0,0.0,0.0,0.0,0.0,4.6465,0.0,4.6543,4.6933,4.6992,4.7363,4.8183,4.8223,4.8223,4.8203,4.8164,4.7949,4.7539,4.7109,4.6894,4.6875,4.6504,4.6328,4.6328,4.6367,4.6367,4.6367,4.6348,4.6328,4.6328,4.6308,4.6308,4.6308,4.6308,4.6308,4.6426,0.0,0.0,0.0,0.0,0.0,0.0,0.0,0.0,0.0,0.0,0.0,0.0,0.0,0.0,0.0,0.0,0.0,0.0,2.6523,2.7051,2.7539,2.7969,2.8789,2.9238,2.9238,2.998,3.0371,3.0371,3.082,3.1113,3.1211,3.1328,3.1426,3.1543,3.1543,3.1484,3.1367,3.1367,3.168,3.2129,0.0,3.1973,3.2578,0.0,0.0,0.0,0.0,0.0,3.332,3.4609,3.5117,3.5449,3.6738,3.7148,3.7305,3.8164,3.8496,3.8672,3.9082,3.9297,3.9531,4.0195,4.0684,4.1172,4.1797,4.2285,4.2539,4.2305,4.2773,4.3164,0.0,0.0,0.0,4.4121,4.4609,0.0,4.5019,4.5488,0.0,4.6992,0.0,4.7734,4.7734,4.7734,0.0,0.0,4.7246,4.7305,4.7402,4.7715,4.7988,4.8203,4.8516,4.8535,4.8203,4.7578,4.7207,4.709,4.666,4.6465,4.6465,4.668,4.6777,4.6797,4.7109,4.7246,4.7226,4.6914,4.6777,4.6738,4.6426,4.6308,4.6308,4.6308,4.6308,4.6328,0.0,0.0,0.0,0.0,0.0,0.0,0.0,0.0,0.0,0.0,0.0,0.0,0.0,0.0,0.0,0.0,0.0,0.0,0.0,2.6504,2.6855,2.709,2.791,2.8281,2.8086,2.9101,2.9551,2.9355,3.0176,3.0586,3.0586,3.0976,3.1172,3.1172,3.1172,3.1172,3.1172,3.1172,0.0,0.0,0.0,0.0,0.0,0.0,0.0,0.0,3.209,3.2598,3.3242,3.4336,3.5254,3.6113,3.7012,3.7305,3.7461,3.832,3.8848,3.9199,3.9434,3.9922,4.0469,4.0957,4.1543,4.209,4.2363,4.2754,4.3008,4.2754,4.3086,4.3418,4.3359,4.4277,4.4883,0.0,0.0,0.0,4.5332,4.584,4.6406,0.0,4.7637,0.0,4.7871,4.8203,4.8359,0.0,4.7793,4.7656,4.7851,4.8086,4.8301,4.8476,4.8535,4.8281,4.7656,4.6992,4.666,4.6641,4.6426,4.6308,4.6308,4.6543,4.6758,4.6933,0.0,4.7402,4.7558,4.7324,4.7109,4.6914,4.666,4.6465,4.6308,4.6308,4.6308,4.6308,0.0,0.0,0.0,0.0,0.0,0.0,0.0,0.0,0.0,0.0,0.0,0.0,0.0,0.0,0.0,0.0,0.0,0.0,0.0,0.0,2.6309,2.6309,2.707,2.7324,2.6934,2.8066,2.8496,2.8125,2.9238,2.9785,2.9785,3.0566,3.0957,3.1016,3.1016,3.1035,3.1094,0.0,0.0,0.0,0.0,0.0,0.0,0.0,0.0,0.0,3.1289,3.2285,3.3535,3.4277,3.541,3.6601,3.7187,3.7344,3.7461,3.832,3.916,3.9824,3.9883,4.0781,4.1738,4.1855,4.2519,4.3066,4.2676,4.2988,4.3281,4.3105,4.3164,4.332,4.3574,4.4336,4.4824,4.4453,4.5371,4.6055,4.5801,4.6328,4.6797,4.6914,4.7969,4.8535,4.8164,4.8926,4.9277,4.8887,4.8164,4.791,4.8281,4.8301,4.8437,4.8769,4.8301,4.7676,4.6933,4.6504,4.6308,4.6308,4.6308,4.6308,4.6308,4.6426,4.666,4.7031,0.0,0.0,4.7656,4.7598,4.7324,4.6914,4.6875,4.6621,4.6308,4.6308,4.6308,4.6308,0.0,0.0,0.0,0.0,0.0,0.0,0.0,0.0,0.0,0.0,0.0,0.0,0.0,0.0,0.0,0.0,0.0,0.0,0.0,0.0,0.0,2.581,2.6348,2.6582,2.6504,2.7051,2.7305,2.7246,2.7461,2.7559,2.7578,2.7734,2.7988,2.834,2.834,2.8535,2.8906,2.9609,0.0,0.0,0.0,0.0,0.0,0.0,0.0,0.0,3.084,3.2051,3.3437,3.3594,3.4531,3.5879,3.7344,3.7578,3.7461,3.832,3.8926,3.9414,3.9785,4.0566,4.1445,4.2148,4.2969,4.3574,4.3496,4.4101,4.4375,4.3301,4.3652,4.3965,4.3301,4.3906,4.4492,4.4414,4.4883,4.5469,4.6113,4.6016,4.6152,0.0,4.7441,4.7773,4.7695,0.0,0.0,0.0,0.0,0.0,4.873,4.875,4.8613,4.832,4.7558,4.707,4.6933,4.6504,4.6308,4.6308,4.6308,4.6308,4.6328,4.7031,4.7402,4.75,0.0,0.0,4.8066,4.7715,4.7324,4.6894,4.6543,4.6367,4.6308,4.6308,4.6308,4.6308,0.0,0.0,0.0,0.0,0.0,0.0,0.0,0.0,0.0,0.0,0.0,0.0,0.0,0.0,0.0,0.0,0.0,0.0,0.0,0.0,0.0,0.0,0.0,0.0,2.6055,2.668,0.0,0.0,0.0,0.0,0.0,0.0,0.0,0.0,0.0,0.0,0.0,0.0,0.0,0.0,0.0,0.0,0.0,0.0,0.0,0.0,0.0,3.1836,3.3164,3.3613,3.4629,3.5937,3.7207,3.7617,3.7793,3.8652,3.9219,3.9668,4.0098,4.084,4.1641,4.2266,4.291,4.332,4.3086,4.3535,4.3769,4.291,4.3262,4.3574,4.3164,4.3808,4.4316,4.4082,4.4785,4.5586,4.6211,4.6133,4.623,4.6855,4.7305,4.7578,0.0,0.0,0.0,0.0,0.0,0.0,4.8535,4.832,4.8086,4.7891,4.7266,4.6933,4.6933,4.6504,4.6308,4.6308,4.6308,4.6308,4.6328,4.6953,4.7363,4.7598,0.0,0.0,4.8183,4.7988,4.7519,4.6933,4.6953,4.6699,4.6308,4.6308,4.6308,4.6308,0.0,0.0,0.0,0.0,0.0,0.0,0.0,0.0,0.0,0.0,0.0,0.0,0.0,0.0,0.0,0.0,0.0,0.0,0.0,0.0,0.0,0.0,0.0,0.0,0.0,0.0,0.0,0.0,0.0,0.0,0.0,0.0,0.0,0.0,0.0,0.0,0.0,0.0,0.0,0.0,0.0,0.0,0.0,0.0,0.0,0.0,0.0,3.1601,3.2656,3.3516,3.4668,3.5898,3.6855,3.7578,3.8203,3.8984,3.959,4.0098,4.043,4.1152,4.1875,4.2207,4.2695,4.2949,4.2422,4.2695,4.293,4.2402,4.2637,4.291,4.2812,4.3516,4.4004,4.3633,4.4668,4.5723,4.623,4.6308,4.6465,4.6875,4.7305,0.0,4.7578,0.0,0.0,0.0,0.0,0.0,0.0,4.7851,4.7578,4.7578,4.7148,4.6933,4.6933,4.6601,4.6484,4.6582,4.6387,4.6348,4.6445,4.6875,4.7246,4.7578,0.0,0.0,0.0,4.7969,4.748,4.6836,4.7168,4.6894,4.6308,4.6308,4.6308,4.6308,0.0,0.0,0.0,0.0,0.0,0.0,0.0,0.0,0.0,0.0,0.0,0.0,0.0,0.0,0.0,0.0,0.0,0.0,0.0,0.0,0.0,0.0,0.0,0.0,0.0,0.0,0.0,0.0,0.0,0.0,0.0,0.0,0.0,0.0,0.0,0.0,0.0,0.0,0.0,0.0,0.0,0.0,0.0,0.0,0.0,0.0,0.0,3.1211,3.1758,3.2617,3.3769,3.5039,3.6328,3.7559,3.8613,3.9062,3.9805,4.0469,4.0508,4.1152,4.1816,4.1855,4.248,4.2871,4.2051,4.25,4.2851,4.2031,4.2187,4.2363,4.1992,4.2617,4.3183,4.3144,4.4238,4.5371,4.6191,4.6308,4.6465,4.6875,0.0,0.0,4.7578,0.0,0.0,0.0,0.0,0.0,0.0,4.8027,4.7578,4.7578,4.7148,4.6933,4.6933,4.6894,4.707,4.7461,4.668,4.6504,4.6875,4.7324,4.7539,4.7598,0.0,0.0,0.0,4.7207,4.6777,4.6367,4.6406,4.6367,4.6308,4.6308,4.6308,4.6308,0.0,0.0,0.0,0.0,0.0,0.0,0.0,0.0,0.0,0.0,0.0,0.0,0.0,0.0,0.0,0.0,0.0,0.0,0.0,0.0,0.0,0.0,0.0,0.0,0.0,0.0,0.0,0.0,0.0,0.0,0.0,0.0,0.0,0.0,0.0,0.0,0.0,0.0,0.0,0.0,0.0,0.0,0.0,0.0,0.0,0.0,0.0,0.0,3.1641,3.25,3.3476,3.4551,3.5859,3.7148,3.8379,3.9336,3.9863,4.0254,4.0781,4.1152,4.1484,4.1738,4.1875,4.1914,4.1816,4.207,4.2207,4.1875,4.2129,4.2305,4.1875,4.25,4.2988,4.2734,4.4004,4.5234,4.584,4.6367,4.6738,4.6914,4.7539,0.0,0.0,0.0,0.0,0.0,0.0,0.0,0.0,4.8047,4.7695,4.7949,4.7539,4.7324,4.7324,4.7051,4.6894,4.6816,4.6465,4.6523,4.6953,4.7383,4.7715,0.0,0.0,0.0,0.0,4.75,4.707,4.668,4.668,4.6523,4.6308,4.6308,4.6308,4.6308,0.0,0.0,0.0,0.0,0.0,0.0,0.0,0.0,0.0,0.0,0.0,0.0,0.0,0.0,0.0,0.0,0.0,0.0,0.0,0.0,0.0,0.0,0.0,0.0,0.0,0.0,0.0,0.0,0.0,0.0,0.0,0.0,0.0,0.0,0.0,0.0,0.0,0.0,0.0,0.0,0.0,0.0,0.0,0.0,0.0,0.0,0.0,0.0,0.0,0.0,0.0,3.4101,3.543,3.6621,3.7812,3.9121,3.9785,4.0215,4.082,4.1074,4.1269,4.1699,4.1582,4.1426,4.1738,4.1797,4.1758,4.1641,4.1855,4.1933,4.1504,4.2129,4.2598,4.2285,4.3594,4.4824,4.541,4.6211,4.6836,4.709,0.0,4.8144,0.0,0.0,0.0,0.0,0.0,0.0,0.0,4.8281,4.8027,4.8203,4.793,4.7773,4.7773,4.7461,4.7226,4.7051,4.6797,4.6894,4.7324,4.7617,4.793,0.0,0.0,0.0,0.0,4.7695,4.7324,4.6933,4.707,4.6855,4.6484,4.6484,4.6406,4.6308,0.0,0.0,0.0,0.0,0.0,0.0,0.0,0.0,0.0,0.0,0.0,0.0,0.0,0.0,0.0,0.0,0.0,0.0,0.0,0.0,0.0,0.0,0.0,0.0,0.0,0.0,0.0,0.0,0.0,0.0,0.0,0.0,0.0,0.0,0.0,0.0,0.0,0.0,0.0,0.0,0.0,0.0,0.0,0.0,0.0,0.0,0.0,0.0,0.0,0.0,0.0,0.0,0.0,3.5996,3.6934,3.8203,3.9512,4.0527,4.0527,4.084,4.1269,4.1699,4.1797,4.1797,4.1797,4.1797,4.168,4.1269,4.1191,4.1055,4.0625,4.123,4.1816,4.1816,4.2871,4.4023,4.4902,4.5762,4.6621,4.748,0.0,4.8379,0.0,0.0,0.0,0.0,0.0,0.0,0.0,0.0,4.8652,4.8223,4.8203,4.8203,4.8203,4.8203,4.8418,4.8828,4.7969,4.7793,4.8203,4.8203,0.0,0.0,0.0,0.0,0.0,4.7578,4.7324,4.6973,4.7402,4.7305,4.6914,4.6914,4.666,4.6308,0.0,0.0,0.0,0.0,0.0,0.0,0.0,0.0,0.0,0.0,0.0,0.0,0.0,0.0,0.0,0.0,0.0,0.0,0.0,0.0,0.0,0.0,0.0,0.0,0.0,0.0,0.0,0.0,0.0,0.0,0.0,0.0,0.0,0.0,0.0,0.0,0.0,0.0,0.0,0.0,0.0,0.0,0.0,0.0,0.0,0.0,0.0,0.0,0.0,0.0,0.0,0.0,0.0,0.0,0.0,3.7422,3.8418,3.9394,4.0273,4.0625,4.084,4.1269,4.1152,4.1016,4.1308,4.1133,4.0976,4.1133,4.1172,4.1035,4.0605,4.1465,4.2129,4.1836,4.3379,4.4707,4.498,4.6016,4.6719,4.6699,4.7344,4.8066,0.0,0.0,0.0,0.0,0.0,0.0,0.0,0.0,4.8789,4.8652,4.8652,4.8516,4.8203,4.8203,4.8125,4.7988,4.7715,4.7793,4.8203,0.0,0.0,0.0,0.0,0.0,0.0,4.8125,4.7754,4.7363,4.7187,4.7051,4.6933,4.6933,4.6836,4.6738,0.0,0.0,0.0,0.0,0.0,0.0,0.0,0.0,0.0,0.0,0.0,0.0,0.0,0.0,0.0,0.0,0.0,0.0,0.0,0.0,0.0,0.0,0.0,0.0,0.0,0.0,0.0,0.0,0.0,0.0,0.0,0.0,0.0,0.0,0.0,0.0,0.0,0.0,0.0,0.0,0.0,0.0,0.0,0.0,0.0,0.0,0.0,0.0,0.0,0.0,0.0,0.0,0.0,0.0,0.0,0.0,3.7559,3.8203,3.9844,4.041,4.0664,4.1269,4.1094,4.0879,4.1308,4.1074,4.084,4.1113,4.1172,4.1035,4.0605,4.1445,4.2109,4.1836,4.334,4.4707,4.5195,4.6094,4.6777,4.6992,0.0,0.0,0.0,0.0,0.0,0.0,0.0,0.0,0.0,0.0,4.8867,4.8867,4.8867,4.873,4.8457,4.8457,4.832,4.8066,4.8066,4.8203,4.8457,0.0,0.0,0.0,0.0,0.0,0.0,4.8496,4.8203,4.7812,4.7695,4.7558,4.7402,4.7402,4.7207,4.6933,0.0,0.0,0.0,0.0,0.0,0.0,0.0,0.0,0.0,0.0,0.0,0.0,0.0,0.0,0.0,0.0,0.0,0.0,0.0,0.0,0.0,0.0,0.0,0.0,0.0,0.0,0.0,2.7764,2.752,2.7503,2.7728,0.0,0.0,0.0,0.0,0.0,0.0,0.0,0.0,0.0,0.0,0.0,0.0,0.0,0.0,0.0,0.0,0.0,0.0,0.0,0.0,0.0,0.0,0.0,0.0,0.0,0.0,0.0,0.0,4.0137,4.0664,4.1465,4.1426,4.1269,4.166,4.1445,0.0,4.1172,4.1172,4.1035,4.0605,4.125,4.1836,4.1836,4.2949,4.4238,4.5488,4.6055,0.0,0.0,4.8906,0.0,0.0,0.0,0.0,0.0,0.0,0.0,0.0,0.0,0.0,4.8867,4.8867,4.8867,4.8867,4.8867,4.8867,4.8867,4.8867,4.8867,4.8867,0.0,0.0,0.0,0.0,0.0,0.0,4.8691,4.8594,4.8242,4.8652,4.8555,4.8203,4.8203,4.7695,4.7012,0.0,0.0,0.0,0.0,0.0,0.0,0.0,0.0,0.0,0.0,0.0,0.0,0.0,0.0,0.0,0.0,0.0,0.0,0.0,0.0,0.0,0.0,0.0,0.0,0.0,0.0,0.0,2.7251,2.7495,2.7663,2.7728,2.7988,0.0,0.0,0.0,0.0,0.0,0.0,0.0,0.0,0.0,0.0,0.0,0.0,0.0,0.0,0.0,0.0,0.0,0.0,0.0,0.0,0.0,0.0,0.0,0.0,3.6719,0.0,3.8574,0.0,4.0098,4.0293,4.0762,4.1191,0.0,4.125,4.1172,4.1172,4.1172,4.1035,4.0605,4.1484,4.2285,4.2285,4.3652,4.4941,4.5586,4.6308,0.0,4.7656,0.0,0.0,0.0,0.0,0.0,0.0,0.0,0.0,0.0,0.0,0.0,4.8867,4.8867,4.8867,4.8867,4.8867,4.8867,4.8867,4.8867,4.8867,4.8867,0.0,0.0,0.0,0.0,0.0,0.0,4.8808,4.8594,4.8223,4.832,4.8301,4.8203,4.8203,4.8086,4.791,0.0,0.0,0.0,0.0,0.0,0.0,0.0,0.0,0.0,0.0,0.0,0.0,0.0,0.0,0.0,0.0,0.0,0.0,0.0,0.0,0.0,0.0,0.0,0.0,0.0,0.0,0.0,0.0,0.0,2.8564,0.0,0.0,0.0,0.0,0.0,0.0,0.0,0.0,0.0,0.0,0.0,0.0,0.0,0.0,0.0,0.0,0.0,0.0,0.0,3.1348,3.1797,3.2344,0.0,0.0,0.0,0.0,3.6484,0.0,3.7812,3.8633,3.9434,4.0039,4.0391,4.0684,4.1094,4.1172,4.123,4.1426,4.1465,4.1445,4.1406,4.2285,4.3008,4.3008,4.4316,4.5547,4.6172,4.7148,4.7832,4.7871,0.0,0.0,0.0,0.0,0.0,0.0,0.0,0.0,0.0,0.0,0.0,0.0,4.8867,4.8867,4.8867,4.8867,4.8867,4.8867,4.8867,4.8867,4.8867,0.0,0.0,0.0,0.0,0.0,4.8867,4.8867,4.8711,4.8496,4.8496,4.8496,4.8496,4.8496,4.8379,4.8203,0.0,0.0,0.0,0.0,0.0,0.0,0.0,0.0,0.0,0.0,0.0,0.0,0.0,0.0,0.0,0.0,0.0,0.0,0.0,0.0,0.0,0.0,0.0,0.0,0.0,0.0,0.0,0.0,0.0,0.0,0.0,0.0,2.9707,0.0,0.0,0.0,0.0,0.0,0.0,0.0,0.0,0.0,0.0,0.0,0.0,0.0,0.0,0.0,0.0,3.1797,3.1875,3.1875,3.3398,0.0,0.0,0.0,0.0,0.0,3.7129,3.791,3.8926,3.9961,4.0059,4.0098,4.0898,4.1133,4.1308,4.1797,4.1836,4.1973,4.2519,4.3223,4.375,4.3887,0.0,0.0,4.6816,4.7988,4.8613,4.8242,0.0,0.0,0.0,0.0,0.0,0.0,0.0,0.0,0.0,0.0,0.0,0.0,4.8867,4.8867,4.8867,4.8867,4.8867,4.8867,4.8867,4.8867,4.8867,4.8867,0.0,0.0,0.0,0.0,4.8867,4.8867,4.8867,4.8867,4.8867,4.8867,4.8867,4.8867,4.8613,4.8301,0.0,0.0,0.0,0.0,0.0,0.0,0.0,0.0,0.0,0.0,0.0,0.0,0.0,0.0,0.0,0.0,0.0,0.0,0.0,0.0,0.0,0.0,0.0,0.0,0.0,0.0,0.0,0.0,0.0,0.0,3.0781,3.0723,3.0293,0.0,0.0,0.0,0.0,0.0,0.0,0.0,0.0,0.0,0.0,0.0,0.0,0.0,0.0,0.0,0.0,3.1445,3.1816,3.2168,3.2793,0.0,0.0,0.0,0.0,0.0,3.6855,3.791,3.9062,3.8906,3.9394,4.0019,4.0508,4.0898,4.1387,4.2168,4.2051,4.2148,4.3301,4.3613,4.3945,4.4707,0.0,4.6777,0.0,0.0,4.8281,0.0,0.0,0.0,0.0,0.0,0.0,0.0,0.0,0.0,0.0,0.0,0.0,0.0,0.0,4.8867,4.8867,4.8867,4.8867,4.8867,4.8867,4.8867,4.8867,4.8867,4.8867,0.0,0.0,0.0,4.8867,4.8867,4.8867,4.8867,4.8867,4.8867,4.8867,4.8867,4.8808,4.8711,0.0,0.0,0.0,0.0,0.0,0.0,0.0,0.0,0.0,0.0,0.0,0.0,0.0,0.0,0.0,0.0,0.0,0.0,0.0,0.0,0.0,0.0,0.0,0.0,0.0,0.0,0.0,0.0,0.0,3.0801,3.123,3.123,3.0644,2.957,0.0,0.0,0.0,0.0,0.0,0.0,0.0,0.0,0.0,0.0,0.0,0.0,0.0,0.0,0.0,0.0,3.2012,3.2285,3.293,0.0,0.0,0.0,0.0,0.0,3.7344,3.8086,3.8926,3.9219,3.9941,4.082,4.1699,4.1875,4.209,4.2949,4.2773,4.2812,4.3887,4.4453,4.5058,4.5918,0.0,4.7539,0.0,0.0,0.0,0.0,0.0,0.0,0.0,0.0,0.0,0.0,0.0,0.0,0.0,0.0,0.0,0.0,0.0,0.0,4.8867,4.8867,4.8867,4.8867,4.8867,4.8867,4.8867,4.8867,4.8867,0.0,0.0,4.8867,4.8867,4.8867,4.8867,4.8867,4.8867,4.8867,4.8867,4.8867,4.8867,4.8828,0.0,0.0,0.0,0.0,0.0,0.0,0.0,0.0,0.0,0.0,0.0,0.0,0.0,0.0,0.0,0.0,0.0,0.0,0.0,0.0,0.0,0.0,0.0,0.0,0.0,0.0,3.0596,3.1366,3.1152,3.1211,3.1523,3.1621,3.0976,0.0,0.0,0.0,0.0,0.0,0.0,0.0,0.0,0.0,0.0,0.0,0.0,0.0,0.0,0.0,0.0,0.0,0.0,0.0,0.0,0.0,0.0,3.5371,3.6445,3.7519,3.7832,3.8535,3.9355,4.0019,4.0527,4.1211,4.248,4.2519,4.2578,4.3652,4.3516,4.3555,4.4648,4.5391,4.6055,4.6816,4.7558,0.0,0.0,0.0,0.0,0.0,0.0,0.0,0.0,0.0,0.0,0.0,0.0,0.0,0.0,0.0,0.0,0.0,0.0,0.0,4.8867,4.8867,4.8867,4.8867,4.8867,4.8867,4.8867,4.8867,4.8867,4.8867,4.8867,4.8867,4.8867,4.8867,4.8867,4.8867,4.8867,4.8867,4.8867,4.8867,4.8867,4.8867,0.0,0.0,0.0,0.0,0.0,0.0,0.0,0.0,0.0,0.0,0.0,0.0,0.0,0.0,0.0,0.0,0.0,0.0,0.0,0.0,0.0,0.0,0.0,0.0,0.0,3.0543,3.1074,3.1465,3.1465,3.1484,3.1523,3.1934,3.1406,3.0137,0.0,0.0,0.0,0.0,0.0,0.0,0.0,0.0,0.0,0.0,0.0,0.0,0.0,0.0,0.0,0.0,0.0,0.0,0.0,0.0,3.4863,3.5723,3.6875,3.7891,3.791,3.9414,4.0996,4.1055,4.0527,4.0332,4.1601,4.1875,4.2324,4.4004,4.3984,4.418,4.5859,4.6211,4.6406,4.6855,4.7324,0.0,0.0,0.0,0.0,0.0,0.0,0.0,0.0,0.0,0.0,0.0,0.0,0.0,0.0,0.0,0.0,0.0,0.0,0.0,4.8867,4.8867,4.8867,4.8867,4.8867,4.8867,4.8867,4.8867,4.8867,4.8867,4.8867,4.8867,4.8867,4.8867,4.8867,4.8867,4.8867,4.8867,4.8867,4.8867,4.8867,4.8867,0.0,0.0,0.0,0.0,0.0,0.0,0.0,0.0,0.0,0.0,0.0,0.0,0.0,0.0,0.0,0.0,0.0,0.0,0.0,0.0,0.0,0.0,0.0,2.9384,3.0543,3.1035,3.1367,3.1523,3.1797,3.1914,3.1914,3.1816,0.0,0.0,0.0,0.0,0.0,0.0,0.0,0.0,0.0,0.0,0.0,0.0,0.0,0.0,0.0,0.0,0.0,0.0,3.2656,3.2949,3.3809,3.4355,3.4922,3.6094,3.7129,3.8105,3.8926,4.0137,4.1308,4.1816,4.1719,4.1816,4.3125,4.3418,4.3672,4.459,4.4863,4.5449,4.7168,4.748,4.7617,4.8066,4.8262,0.0,0.0,0.0,0.0,0.0,0.0,0.0,0.0,0.0,0.0,0.0,0.0,0.0,0.0,0.0,0.0,0.0,0.0,0.0,0.0,4.8867,4.8867,4.8867,4.8867,4.8867,4.8867,4.8867,4.8867,4.8867,4.8867,4.8867,4.8867,4.8867,4.8867,4.8867,4.8867,4.8867,4.8867,4.8867,4.8867,4.8867,0.0,0.0,0.0,0.0,0.0,0.0,0.0,0.0,0.0,0.0,0.0,0.0,0.0,0.0,0.0,0.0,0.0,0.0,0.0,0.0,0.0,0.0,0.0,2.9531,3.0859,3.1309,3.1641,3.1914,3.2344,3.2363,3.1953,0.0,0.0,0.0,0.0,0.0,0.0,0.0,0.0,0.0,0.0,0.0,0.0,0.0,0.0,0.0,0.0,0.0,0.0,0.0,3.2871,3.3144,3.4004,3.457,3.5176,3.6484,3.7676,3.8769,3.9805,4.0918,4.1953,4.2656,4.2949,4.332,4.4355,4.4375,4.4414,4.5254,4.5996,4.6777,4.7812,0.0,0.0,0.0,0.0,0.0,0.0,0.0,0.0,0.0,0.0,0.0,0.0,0.0,0.0,0.0,0.0,0.0,0.0,0.0,0.0,0.0,0.0,0.0,0.0,4.8867,4.8867,4.8867,4.8867,4.8867,4.8867,4.8867,4.8867,4.8867,4.8867,4.8867,4.8867,4.8867,4.8867,4.8867,4.8867,4.8867,4.8867,4.8867,4.8867,4.8867,0.0,0.0,0.0,0.0,0.0,0.0,0.0,0.0,0.0,0.0,0.0,0.0,0.0,0.0,0.0,0.0,0.0,0.0,0.0,0.0,0.0,0.0,0.0,2.9531,3.0859,3.1309,3.1934,3.2793,3.3203,3.2754,3.1523,3.1953,0.0,0.0,0.0,0.0,0.0,0.0,0.0,0.0,0.0,0.0,0.0,0.0,0.0,0.0,0.0,0.0,0.0,0.0,3.3086,3.3574,3.4434,3.5019,3.5644,3.6914,3.8535,3.998,4.041,4.1777,4.3183,4.3613,4.4062,4.4512,4.4941,4.4355,4.4219,4.5957,4.7324,4.8086,4.7676,4.793,0.0,0.0,0.0,0.0,0.0,0.0,0.0,0.0,0.0,0.0,0.0,0.0,0.0,0.0,0.0,0.0,0.0,0.0,0.0,0.0,0.0,0.0,0.0,4.8867,4.8867,4.8867,4.8867,4.8867,4.8867,4.8867,4.8867,4.8867,4.8867,4.8867,4.8867,4.8867,4.8867,4.8867,4.8867,4.8867,4.8867,4.8867,4.8867,4.8867,0.0,0.0,0.0,0.0,0.0,0.0,0.0,0.0,0.0,0.0,0.0,0.0,0.0,0.0,0.0,0.0,0.0,0.0,0.0,0.0,0.0,0.0,0.0,0.0,0.0,0.0,3.1797,3.2363,3.2168,3.1894,0.0,0.0,0.0,3.0391,0.0,0.0,0.0,0.0,0.0,0.0,0.0,0.0,0.0,0.0,0.0,0.0,0.0,0.0,0.0,0.0,0.0,0.0,3.4434,3.5019,3.5644,3.6914,3.8301,3.9629,4.0703,4.2012,4.3262,4.4004,4.4512,4.5019,4.5762,4.5723,4.584,4.6973,4.7734,4.8262,4.8437,0.0,0.0,0.0,0.0,0.0,0.0,0.0,0.0,0.0,0.0,0.0,0.0,0.0,0.0,0.0,0.0,0.0,0.0,0.0,0.0,0.0,0.0,0.0,0.0,0.0,4.8867,4.8867,4.8867,4.8867,4.8867,4.8867,4.8867,4.8867,4.8867,4.8867,4.8867,4.8867,4.8867,4.8867,4.8867,4.8867,4.8867,4.8867,4.8867,4.8867,0.0,0.0,0.0,0.0,0.0,0.0,0.0,0.0,0.0,0.0,0.0,0.0,0.0,0.0,0.0,0.0,0.0,0.0,0.0,0.0,0.0,0.0,0.0,0.0,0.0,3.0957,3.1211,0.0,0.0,0.0,0.0,0.0,0.0,3.0195,0.0,3.0469,0.0,0.0,0.0,0.0,0.0,0.0,0.0,0.0,0.0,0.0,0.0,0.0,0.0,0.0,0.0,0.0,3.4434,3.5137,3.5937,3.7383,3.8965,4.0449,4.1406,4.2871,4.4199,4.4551,4.5098,4.5762,4.6621,4.6933,4.7207,4.7715,4.832,4.875,4.8848,0.0,0.0,0.0,0.0,0.0,0.0,0.0,0.0,0.0,0.0,0.0,0.0,0.0,0.0,0.0,0.0,0.0,0.0,0.0,0.0,0.0,0.0,0.0,0.0,0.0,0.0,4.8867,4.8867,4.8867,4.8867,4.8867,4.8867,4.8867,4.8867,4.8867,4.8867,4.8867,4.8867,4.8867,4.8867,4.8867,4.8867,4.8867,4.8867,4.8867,0.0,0.0,0.0,0.0,0.0,0.0,0.0,0.0,0.0,0.0,0.0,0.0,0.0,0.0,0.0,0.0,0.0,0.0,0.0,0.0,0.0,0.0,0.0,0.0,0.0,0.0,0.0,0.0,0.0,0.0,0.0,0.0,3.0254,3.0156,0.0,3.0937,0.0,0.0,0.0,0.0,0.0,0.0,0.0,0.0,0.0,0.0,0.0,0.0,0.0,0.0,0.0,0.0,3.4434,3.5273,3.6309,3.8008,4.0019,4.1777,4.2246,4.3965,4.5527,4.5117,4.5723,4.6621,4.7402,4.7969,4.8301,4.8223,0.0,4.9375,4.8887,0.0,0.0,0.0,0.0,0.0,0.0,0.0,0.0,0.0,0.0,0.0,0.0,0.0,0.0,0.0,0.0,0.0,0.0,0.0,0.0,0.0,0.0,0.0,0.0,0.0,0.0,0.0,4.8867,4.8867,4.8867,4.8867,4.8867,4.8867,4.8867,4.8867,4.8867,4.8867,4.8867,4.8867,4.8867,4.8867,4.8867,4.8867,4.8867,4.8867,0.0,0.0,0.0,0.0,0.0,0.0,0.0,0.0,0.0,0.0,0.0,0.0,0.0,0.0,0.0,0.0,0.0,0.0,0.0,0.0,0.0,0.0,0.0,0.0,0.0,0.0,0.0,0.0,0.0,0.0,0.0,0.0,0.0,2.9766,0.0,3.1309,0.0,0.0,0.0,0.0,0.0,0.0,0.0,0.0,0.0,0.0,0.0,0.0,0.0,0.0,0.0,0.0,3.4434,3.5078,3.5859,3.7559,3.9355,4.0957,4.1719,4.3516,4.5137,4.5058,4.6172,4.7363,4.7539,4.8437,4.9043,4.8359,4.8906,4.9277,0.0,0.0,0.0,0.0,0.0,0.0,0.0,0.0,0.0,0.0,0.0,0.0,0.0,0.0,0.0,0.0,0.0,0.0,0.0,0.0,0.0,0.0,0.0,0.0,4.8867,4.8867,4.8867,0.0,4.8867,4.8867,4.8867,4.8867,4.8867,4.8867,4.8867,4.8867,4.8867,4.8867,4.8867,4.8867,4.8867,4.8867,4.8867,4.8867,4.8867,4.8867,0.0,0.0,0.0,0.0,0.0,0.0,0.0,0.0,0.0,0.0,0.0,0.0,0.0,0.0,0.0,0.0,0.0,0.0,0.0,0.0,0.0,0.0,0.0,0.0,0.0,0.0,0.0,0.0,0.0,0.0,0.0,0.0,0.0,3.0273,0.0,3.209,0.0,0.0,0.0,0.0,0.0,0.0,0.0,0.0,0.0,0.0,0.0,0.0,0.0,0.0,0.0,0.0,0.0,0.0,3.6074,3.7969,3.9629,4.1113,4.2363,4.3691,4.4824,4.5234,4.6308,4.7324,4.7539,4.8418,4.9082,4.8613,4.9062,4.9316,0.0,0.0,0.0,0.0,0.0,0.0,0.0,0.0,0.0,0.0,0.0,0.0,0.0,0.0,0.0,0.0,0.0,0.0,0.0,0.0,0.0,0.0,0.0,0.0,4.8867,4.8867,4.8867,4.8867,4.8867,4.8867,4.8867,4.8867,4.8867,4.8867,4.8867,4.8867,4.8867,4.8867,4.8867,4.8867,4.8867,4.8867,4.8867,4.8867,4.8775,4.8385,0.0,0.0,0.0,0.0,0.0,0.0,0.0,0.0,0.0,0.0,0.0,0.0,0.0,0.0,0.0,0.0,0.0,0.0,0.0,0.0,0.0,0.0,0.0,0.0,0.0,0.0,0.0,0.0,0.0,0.0,3.1113,0.0,0.0,3.1055,0.0,0.0,0.0,0.0,0.0,0.0,0.0,0.0,0.0,0.0,0.0,0.0,0.0,0.0,0.0,0.0,0.0,0.0,0.0,0.0,3.6426,3.8496,4.0019,4.1426,4.3047,4.3984,4.4707,4.5566,4.6367,4.7051,4.748,4.8183,4.8769,4.8848,4.9219,0.0,0.0,0.0,0.0,0.0,0.0,0.0,0.0,0.0,0.0,0.0,0.0,0.0,0.0,0.0,0.0,0.0,0.0,0.0,0.0,0.0,4.8867,0.0,0.0,4.8867,4.8867,4.8867,4.8867,4.8867,4.8867,4.8867,4.8867,4.8867,4.8867,4.8867,4.8867,4.8867,4.8867,4.8867,4.8867,4.8867,4.8775,4.857,4.8181,4.8088,4.7624,4.6672,0.0,0.0,0.0,0.0,0.0,0.0,0.0,0.0,0.0,0.0,0.0,0.0,0.0,0.0,0.0,0.0,0.0,0.0,0.0,0.0,0.0,0.0,0.0,0.0,0.0,0.0,0.0,0.0,0.0,3.1992,3.1992,3.1992,3.1797,3.1484,0.0,0.0,0.0,0.0,0.0,0.0,0.0,0.0,0.0,0.0,0.0,0.0,0.0,0.0,0.0,0.0,3.4238,0.0,0.0,0.0,3.6367,3.8144,3.959,4.0898,4.2226,4.375,4.5156,4.5996,4.6582,4.7051,4.748,4.7949,4.8398,0.0,4.9219,0.0,0.0,0.0,0.0,0.0,0.0,0.0,0.0,0.0,0.0,0.0,0.0,0.0,0.0,0.0,0.0,0.0,0.0,0.0,0.0,4.8867,4.8867,4.8867,4.8867,0.0,4.8867,4.8867,4.8867,4.8867,4.8867,4.8867,4.8867,4.8867,4.8867,4.8867,4.8867,4.8867,4.8867,4.8867,4.8867,4.8867,4.8405,4.7139,4.5473,4.5038,4.3772,4.2099,0.0,0.0,0.0,0.0,0.0,0.0,0.0,0.0,0.0,0.0,0.0,0.0,0.0,0.0,0.0,0.0,0.0,0.0,0.0,0.0,0.0,0.0,0.0,0.0,0.0,0.0,0.0,0.0,3.1855,3.2285,3.2519,3.2519,3.2422,0.0,0.0,0.0,0.0,0.0,0.0,0.0,0.0,0.0,0.0,0.0,0.0,0.0,0.0,0.0,0.0,0.0,0.0,0.0,3.5078,0.0,0.0,0.0,3.9336,4.0566,4.2305,4.3711,4.4883,4.5742,4.6269,4.6699,4.7129,4.7734,4.8262,4.8457,0.0,0.0,0.0,0.0,0.0,0.0,0.0,0.0,0.0,0.0,0.0,0.0,0.0,0.0,0.0,0.0,0.0,0.0,0.0,0.0,4.8867,4.8867,4.8867,4.8867,4.8867,0.0,4.8867,4.8867,4.8867,4.8867,4.8867,4.8867,4.8867,4.8867,4.8867,4.8867,4.8867,4.8867,4.8867,4.8867,4.8069,4.6728,4.6448,4.4908,4.2881,4.2594,4.1749,4.0593,0.0,0.0,0.0,0.0,0.0,0.0,0.0,0.0,0.0,0.0,0.0,0.0,0.0,0.0,0.0,0.0,0.0,0.0,0.0,0.0,0.0,0.0,0.0,0.0,0.0,0.0,0.0,3.1523,3.2168,3.2598,3.2793,3.3008,3.3125,3.3125,3.334,3.3906,0.0,0.0,0.0,0.0,0.0,0.0,0.0,0.0,0.0,0.0,0.0,0.0,0.0,0.0,0.0,0.0,0.0,0.0,0.0,0.0,0.0,4.0605,4.2422,4.3555,4.4433,4.5293,4.582,4.6289,4.6816,4.7344,4.7851,0.0,0.0,0.0,0.0,0.0,0.0,0.0,0.0,0.0,0.0,0.0,0.0,0.0,0.0,0.0,0.0,0.0,0.0,0.0,0.0,0.0,4.8867,4.8867,4.8867,4.8867,4.8867,4.8867,4.8867,4.8867,4.8867,4.8867,4.8867,4.8867,4.8867,4.8775,4.8682,4.8682,4.8867,4.8551,4.7883,4.7883,4.6336,4.4021,4.3832,4.2386,4.0174,4.0094,3.9431,3.8374,0.0,0.0,0.0,0.0,0.0,0.0,0.0,0.0,0.0,0.0,0.0,0.0,0.0,0.0,0.0,0.0,0.0,0.0,0.0,0.0,0.0,0.0,0.0,0.0,0.0,0.0,3.1074,3.1523,3.2754,3.3164,3.2812,3.3633,3.4004,3.3984,3.3594,3.3906,3.4726,0.0,0.0,0.0,0.0,0.0,0.0,0.0,0.0,0.0,0.0,0.0,0.0,0.0,0.0,0.0,0.0,0.0,0.0,0.0,0.0,0.0,4.2207,4.3086,4.3945,4.4844,4.5391,4.5918,4.6738,4.666,4.6855,4.8496,0.0,0.0,0.0,0.0,0.0,0.0,0.0,0.0,0.0,0.0,0.0,0.0,0.0,0.0,0.0,0.0,0.0,0.0,0.0,0.0,4.8867,4.8867,4.8867,4.8867,4.8867,4.8867,4.8867,4.8867,4.8867,4.8867,4.8867,4.8867,4.8848,4.8405,4.8127,4.8127,4.8682,4.7493,4.5173,4.5173,4.3737,4.1332,4.0883,3.9333,3.7478,3.6933,3.5465,3.37,0.0,0.0,0.0,0.0,0.0,0.0,0.0,0.0,0.0,0.0,0.0,0.0,0.0,2.9101,2.9101,2.9101,0.0,0.0,0.0,0.0,0.0,0.0,0.0,0.0,0.0,3.043,3.1094,3.1523,3.2793,3.3203,3.2812,3.3379,3.3652,3.3652,3.3789,3.4316,3.5176,3.5605,0.0,0.0,0.0,0.0,0.0,0.0,0.0,0.0,0.0,0.0,0.0,0.0,0.0,0.0,0.0,0.0,0.0,3.916,4.0059,4.0996,4.2129,4.2656,4.3164,4.4336,4.5156,4.5762,4.6055,4.6641,4.7226,4.7558,0.0,0.0,0.0,0.0,0.0,0.0,0.0,0.0,0.0,0.0,0.0,0.0,0.0,0.0,0.0,0.0,0.0,0.0,0.0,0.0,4.8867,4.8867,4.8867,4.8867,4.8867,4.8867,4.8867,4.8867,4.8867,4.8867,4.859,4.8405,4.8312,4.6485,4.564,4.5622,4.4436,4.4134,4.4453,4.3071,4.1043,3.8636,3.8472,3.6918,3.477,3.4585,3.4,3.3414,0.0,0.0,0.0,0.0,0.0,0.0,0.0,0.0,0.0,0.0,0.0,0.0,0.0,0.0,2.9626,2.9626,2.9626,2.9626,0.0,0.0,0.0,0.0,0.0,0.0,0.0,3.0781,3.1465,3.1738,3.3008,3.3418,3.3008,3.3437,3.3633,3.3652,3.4082,3.4609,0.0,0.0,0.0,3.7695,0.0,0.0,4.0859,0.0,0.0,0.0,0.0,0.0,0.0,0.0,0.0,0.0,0.0,0.0,0.0,0.0,4.0195,4.0742,4.1738,4.2207,4.2695,4.3867,4.4824,4.5508,4.5644,4.6445,4.7148,4.7148,0.0,0.0,0.0,0.0,0.0,0.0,0.0,0.0,0.0,0.0,0.0,0.0,0.0,0.0,0.0,0.0,0.0,0.0,0.0,0.0,4.8867,4.8867,4.8867,4.8867,4.8867,4.8867,4.8867,4.8682,4.859,4.859,4.8127,4.7848,4.7755,4.5941,4.4678,4.3902,4.1653,4.1172,4.1845,4.0481,3.8344,3.603,3.5946,3.4969,3.3414,3.3414,3.3414,3.3414,0.0,0.0,0.0,0.0,0.0,0.0,0.0,0.0,0.0,2.9668,0.0,0.0,0.0,0.0,0.0,2.9665,2.9629,2.9704,2.9685,2.9685,0.0,0.0,0.0,0.0,0.0,3.1465,3.2148,3.2229,3.3418,3.3828,3.3437,3.3848,3.4062,3.4082,3.4492,3.4687,3.4785,0.0,3.6777,3.8144,0.0,4.1523,4.1367,0.0,0.0,0.0,4.2988,4.3125,0.0,0.0,0.0,0.0,0.0,0.0,0.0,0.0,0.0,0.0,0.0,0.0,0.0,4.3457,4.4336,4.5117,4.5566,4.5976,4.6523,4.7363,0.0,0.0,0.0,0.0,0.0,0.0,0.0,0.0,0.0,0.0,0.0,0.0,0.0,0.0,0.0,0.0,0.0,0.0,0.0,4.8867,4.8867,4.8867,4.8848,4.8848,4.8848,4.8867,4.8867,4.8312,4.8034,4.8053,4.7569,4.7401,4.7382,4.6728,4.5263,4.3236,4.0642,3.8585,3.7183,3.7183,3.5734,3.3414,3.3414,3.3414,3.3414,3.3414,3.3414,3.3414,0.0,0.0,0.0,0.0,0.0,0.0,0.0,0.0,3.0664,0.0,0.0,0.0,3.0957,3.1269,3.1211,3.0586,3.1094,3.1309,3.0996,3.0976,3.0976,3.0976,3.0371,3.0234,3.0684,3.1055,3.1543,3.2229,3.2832,3.3242,3.3418,3.3535,0.0,0.0,3.4062,3.4609,3.5254,3.6133,0.0,0.0,4.0078,4.1172,0.0,0.0,0.0,0.0,0.0,4.4297,0.0,0.0,4.332,4.2226,0.0,0.0,0.0,0.0,0.0,0.0,4.1055,0.0,0.0,0.0,0.0,0.0,0.0,0.0,4.5996,0.0,0.0,0.0,0.0,0.0,0.0,0.0,0.0,0.0,0.0,0.0,0.0,0.0,0.0,0.0,0.0,0.0,0.0,0.0,4.8672,4.8867,4.8867,4.8867,4.8682,4.8312,4.8312,4.8127,4.7848,4.7662,4.7588,4.7588,4.7102,4.6822,4.6728,4.3236,4.1318,4.0529,3.6736,3.4883,3.4471,3.4471,3.4086,3.3414,3.3414,3.3414,3.3414,3.3414,3.3414,3.3414,0.0,0.0,0.0,0.0,0.0,0.0,0.0,0.0,0.0,0.0,0.0,0.0,3.1992,3.2285,3.2168,3.1484,3.1935,3.1992,3.1543,3.168,3.1797,3.1797,3.1289,3.1055,3.1152,3.168,3.2031,3.2229,3.2949,3.3359,3.3418,0.0,0.0,0.0,0.0,0.0,0.0,0.0,0.0,0.0,4.0742,0.0,0.0,4.3437,4.3926,0.0,0.0,0.0,4.4453,4.4805,4.4043,0.0,0.0,0.0,0.0,0.0,0.0,0.0,0.0,0.0,0.0,0.0,0.0,0.0,4.4883,4.5215,4.5527,0.0,0.0,0.0,0.0,0.0,0.0,0.0,0.0,0.0,0.0,0.0,0.0,0.0,0.0,0.0,0.0,0.0,0.0,0.0,4.834,4.8672,4.8848,4.8682,4.8405,4.8127,4.796,4.7681,4.7401,4.7196,4.7102,4.7009,4.5659,4.4998,4.4903,4.1318,3.9186,3.8209,3.5762,3.42,3.3414,3.3414,3.3414,3.3414,3.3414,3.3414,3.3414,3.3414,3.3414,3.3414,0.0,0.0,0.0,0.0,0.0,0.0,0.0,0.0,0.0,0.0,3.1738,3.207,3.2793,3.2949,3.2812,3.2344,3.2402,3.2266,3.1836,3.2168,3.2383,3.2383,3.2285,3.2051,3.166,3.2734,3.293,3.2307,3.3379,3.375,3.3418,0.0,0.0,0.0,0.0,0.0,0.0,0.0,0.0,3.9687,4.2012,4.25,0.0,0.0,4.3867,0.0,4.4121,4.4453,4.4648,4.5312,4.4824,0.0,0.0,0.0,0.0,0.0,4.1269,0.0,0.0,0.0,0.0,0.0,0.0,0.0,4.4668,4.4883,4.5019,0.0,0.0,0.0,0.0,0.0,0.0,0.0,0.0,0.0,0.0,0.0,0.0,0.0,0.0,0.0,0.0,0.0,4.75,4.75,4.78,4.8229,4.8769,4.8235,4.7995,4.7941,4.7476,4.7308,4.7215,4.6541,4.6147,4.6147,4.3634,4.2488,4.2392,4.0255,3.8307,3.6455,3.6257,3.5082,3.3414,3.3414,3.3414,3.3414,3.3414,3.3414,3.3414,3.3414,3.3414,3.3414,0.0,0.0,0.0,0.0,0.0,0.0,0.0,0.0,3.2168,3.25,3.3144,3.3496,3.332,3.3906,3.4023,3.3242,3.3809,3.4023,3.3594,3.3652,3.3711,3.3711,3.3047,3.2637,3.2539,3.2461,3.25,3.2676,3.293,3.3164,3.3418,3.3418,0.0,0.0,0.0,0.0,0.0,0.0,0.0,4.1348,4.1855,0.0,4.2422,4.3457,4.3965,4.416,4.4336,4.4844,4.5351,0.0,4.4941,4.498,0.0,0.0,0.0,0.0,0.0,0.0,0.0,0.0,0.0,0.0,0.0,0.0,4.3769,4.3965,4.418,0.0,0.0,0.0,0.0,0.0,0.0,0.0,0.0,0.0,0.0,0.0,0.0,0.0,0.0,0.0,0.0,0.0,4.7051,4.7051,4.7102,4.7347,4.7771,4.7332,4.7023,4.6897,4.6822,4.6541,4.6166,4.443,4.3556,4.3556,4.1318,4.0255,4.0255,3.8111,3.6948,3.6455,3.4684,3.38,3.3414,3.3414,3.3414,3.3414,3.3414,3.3414,3.3414,3.3414,3.3414,3.3414,0.0,0.0,0.0,0.0,0.0,0.0,0.0,0.0,3.3027,3.3652,3.4687,3.5293,3.5059,3.543,3.543,3.4766,3.5117,3.5176,3.4766,3.4922,3.4941,3.4746,3.4101,3.3535,3.3105,3.291,3.2793,3.2793,3.3008,3.3223,3.3437,3.3652,0.0,0.0,0.0,0.0,3.832,0.0,4.0488,4.1543,4.2187,0.0,4.3457,4.3887,4.4336,4.4687,4.4473,4.4668,4.498,4.4551,4.4687,0.0,0.0,4.3711,4.3887,0.0,4.2148,4.1484,0.0,0.0,0.0,4.1387,0.0,0.0,0.0,4.3398,4.3516,4.3965,0.0,0.0,0.0,0.0,0.0,0.0,0.0,0.0,0.0,0.0,0.0,0.0,0.0,0.0,0.0,0.0,4.6484,4.6894,4.6489,4.6511,4.7126,4.6736,4.639,4.6318,4.6242,4.5677,4.4335,4.3366,4.2296,4.1222,3.9089,3.8111,3.8013,3.596,3.4983,3.4883,3.38,3.3414,3.3414,3.3414,3.3414,3.3414,3.3414,3.3414,3.3414,3.3414,3.3414,3.3414,0.0,0.0,0.0,0.0,0.0,0.0,0.0,0.0,3.4101,3.4961,3.6152,3.6953,3.7031,3.7109,3.709,3.6894,3.6816,3.6621,0.0,0.0,0.0,3.6016,3.5332,3.4629,3.3945,3.3672,3.3379,3.3047,3.3379,3.3594,3.3672,3.4023,0.0,0.0,0.0,3.7222,3.9277,0.0,0.0,4.1641,0.0,4.3808,4.4531,4.4609,4.4961,4.5332,4.4922,4.4707,4.4668,4.4746,0.0,4.4863,4.4687,4.4394,0.0,0.0,0.0,0.0,0.0,0.0,0.0,0.0,0.0,4.1992,0.0,0.0,0.0,4.2949,0.0,0.0,0.0,0.0,0.0,0.0,0.0,0.0,0.0,0.0,0.0,0.0,0.0,0.0,0.0,0.0,4.623,4.6484,4.6061,4.6006,4.6433,4.5976,4.5649,4.5723,4.5366,4.4418,4.2673,4.1958,4.0739,3.9089,3.6948,3.5861,3.5861,3.42,3.3414,3.3414,3.3414,3.3414,3.3414,3.3414,3.3414,3.3414,3.3414,3.3414,3.3414,3.3414,3.3414,3.3414,3.2031,3.1719,0.0,0.0,0.0,0.0,0.0,0.0,3.5469,3.6328,3.7226,3.793,3.832,3.8691,0.0,0.0,0.0,0.0,3.9394,0.0,0.0,3.8223,3.6699,0.0,3.5723,3.459,3.3965,3.3926,3.3965,3.418,3.4551,3.4609,0.0,0.0,3.6143,0.0,3.9226,0.0,4.1549,0.0,4.3867,4.4531,0.0,4.5391,4.6016,4.666,4.623,4.5859,4.5586,0.0,4.6328,4.6504,0.0,4.5488,0.0,0.0,0.0,0.0,0.0,0.0,0.0,0.0,4.2031,0.0,0.0,0.0,4.25,4.25,0.0,0.0,0.0,0.0,0.0,0.0,0.0,0.0,0.0,0.0,0.0,0.0,0.0,0.0,0.0,0.0,0.0,4.529,4.6094,4.6174,4.5082,4.4559,4.4471,4.482,4.3421,4.2485,4.2296,3.8932,3.7145,3.6849,3.4784,3.37,3.37,3.3514,3.3414,3.3414,3.3414,3.3414,3.3414,3.3414,3.3414,3.3414,3.3414,3.3414,3.3414,3.3414,3.3414,3.3414,3.2266,3.2012,0.0,0.0,0.0,0.0,0.0,0.0,3.6992,3.7344,3.793,3.8379,0.0,0.0,0.0,0.0,0.0,4.0,0.0,0.0,0.0,0.0,0.0,0.0,0.0,3.5508,3.4844,3.4844,3.457,3.4531,3.4707,3.498,0.0,0.0,3.7677,0.0,4.1094,0.0,4.2908,0.0,0.0,0.0,0.0,4.5605,4.5527,4.5801,4.5625,4.5449,4.5371,0.0,4.6211,0.0,0.0,0.0,0.0,0.0,0.0,0.0,0.0,0.0,0.0,0.0,0.0,0.0,0.0,0.0,4.2656,0.0,0.0,0.0,0.0,0.0,0.0,0.0,0.0,0.0,0.0,0.0,0.0,0.0,0.0,0.0,0.0,0.0,0.0,0.0,0.0,4.4988,4.4473,4.4228,4.416,4.4325,4.2719,4.1406,4.0391,3.7648,3.5788,3.4684,3.38,3.3414,3.3414,3.3414,3.3414,3.3414,3.3414,3.3414,3.3414,3.3414,3.3414,3.3414,3.3414,3.3414,3.3414,3.3414,3.3414,3.3414,3.2988,0.0,0.0,0.0,0.0,0.0,0.0,0.0,3.8008,3.8242,3.8652,0.0,3.9258,3.9121,0.0,0.0,3.9826,3.9723,0.0,0.0,3.9891,0.0,0.0,0.0,0.0,0.0,3.5859,3.5742,3.5293,3.5176,3.541,3.5644,0.0,0.0,0.0,3.9817,4.133,0.0,4.3227,4.4098,4.5277,4.6308,4.7129,4.6113,4.5508,4.5215,4.5332,4.5371,4.5449,4.5879,4.6308,0.0,4.6152,0.0,0.0,0.0,0.0,0.0,4.4473,0.0,0.0,0.0,0.0,0.0,0.0,0.0,0.0,0.0,0.0,0.0,0.0,0.0,0.0,0.0,0.0,0.0,0.0,0.0,0.0,0.0,0.0,0.0,0.0,0.0,0.0,0.0,4.4585,0.0,4.3885,4.3304,4.3054,4.3072,4.0906,3.914,3.7988,3.6177,3.4548,3.3293,3.3374,3.3414,3.3414,3.3414,3.3414,3.3414,3.3414,3.3414,3.3414,3.3414,3.3414,3.3414,3.3414,3.3414,3.3414,3.3414,3.3414,3.3414,3.4629,3.3945,0.0,0.0,0.0,0.0,0.0,0.0,0.0,0.0,0.0,0.0,0.0,0.0,0.0,0.0,0.0,3.8769,3.8786,0.0,3.9292,0.0,0.0,3.9147,0.0,0.0,0.0,3.6641,3.6191,3.6406,3.7207,3.6816,3.709,0.0,3.8035,3.8231,3.8609,4.0965,4.1855,4.1873,4.4626,4.5937,4.6426,0.0,4.6738,4.5703,4.6113,0.0,0.0,4.6738,4.7187,0.0,0.0,0.0,0.0,0.0,0.0,0.0,0.0,0.0,0.0,4.4557,0.0,0.0,0.0,0.0,4.2324,0.0,0.0,0.0,0.0,0.0,0.0,3.834,0.0,0.0,0.0,0.0,0.0,0.0,0.0,0.0,0.0,0.0,0.0,4.262,4.5047,0.0,4.3074,4.1178,4.0352,4.0623,3.6869,3.5,3.5229,3.3837,3.3085,3.3,3.328,3.3414,3.3414,3.3414,3.3414,3.3414,3.3414,3.3414,3.3414,3.3414,3.3414,3.3414,3.3414,3.3414,3.3414,3.3414,3.3414,3.3414,0.0,0.0,0.0,0.0,0.0,0.0,0.0,3.8398,0.0,0.0,0.0,0.0,0.0,3.7537,3.7805,0.0,0.0,3.7998,3.8254,3.9943,0.0,0.0,0.0,4.0198,0.0,0.0,0.0,0.0,0.0,3.7012,3.7285,3.7148,3.7539,3.8418,0.0,4.0309,0.0,0.0,0.0,0.0,0.0,4.6758,4.709,0.0,0.0,4.6523,4.666,4.6894,0.0,4.7305,4.7461,4.75,4.707,4.6933,4.6875,4.6582,4.5627,0.0,0.0,0.0,4.4337,4.4525,0.0,0.0,0.0,0.0,0.0,0.0,0.0,0.0,0.0,0.0,0.0,3.9375,0.0,0.0,0.0,0.0,0.0,0.0,0.0,0.0,0.0,0.0,0.0,4.2758,4.363,4.3841,0.0,4.2329,4.1497,4.0515,3.7943,3.6078,3.5105,3.334,3.2599,3.2973,3.308,3.3227,3.3414,3.3414,3.3414,3.3414,3.3414,3.3414,3.3414,3.3414,3.3414,3.3414,3.3414,3.3414,3.3414,3.3414,3.3414,3.3414,3.6426,0.0,0.0,0.0,0.0,0.0,0.0,0.0,0.0,0.0,3.7611,0.0,3.643,0.0,3.6437,0.0,3.6546,3.6736,3.7887,3.8768,0.0,3.7188,3.9116,0.0,0.0,0.0,0.0,0.0,0.0,3.7754,3.7754,3.7754,3.8125,3.8848,0.0,4.113,4.1857,4.3036,4.411,0.0,0.0,4.6365,0.0,0.0,4.6641,0.0,0.0,4.7344,4.7558,4.7402,4.7441,4.748,4.6894,4.6816,4.6894,4.6758,4.5852,4.5087,4.589,4.5435,0.0,0.0,4.4911,0.0,4.4492,0.0,0.0,0.0,0.0,0.0,0.0,0.0,0.0,4.0123,3.9281,0.0,0.0,0.0,0.0,0.0,0.0,0.0,0.0,0.0,4.2616,4.2259,4.2904,4.2776,0.0,0.0,3.9933,3.8298,3.6375,3.4887,3.3903,3.2709,3.2291,3.2666,3.2879,3.308,3.3253,3.336,3.3414,3.3414,3.3414,3.3414,3.3414,3.3414,3.3414,3.3414,3.3414,3.3414,3.3414,3.3414,3.3414,3.3414,0.0,0.0,0.0,0.0,3.8105,0.0,0.0,0.0,3.7722,0.0,3.7212,3.6879,3.7217,3.6587,3.6373,3.6581,3.5195,0.0,3.7283,3.6158,0.0,0.0,3.7152,3.6721,3.5265,0.0,0.0,0.0,0.0,0.0,3.8633,3.8652,3.8887,3.9355,4.0625,0.0,3.9813,4.214,4.2792,4.2407,4.4607,4.4785,4.3874,4.6088,0.0,4.8223,4.7773,4.7617,4.7558,4.7148,4.7266,4.7422,4.6641,4.6621,4.6747,4.6465,4.5626,4.4971,4.5538,4.4949,4.4352,4.4731,0.0,0.0,0.0,0.0,4.2985,0.0,0.0,0.0,0.0,0.0,0.0,4.0432,3.9426,0.0,0.0,0.0,0.0,0.0,0.0,0.0,0.0,4.2443,4.2704,4.1255,4.2894,4.2496,0.0,0.0,0.0,3.4231,3.2315,3.1464,3.1664,3.1931,3.2078,3.2104,3.2666,3.2946,3.2986,3.3267,3.34,3.3414,3.3414,3.3414,3.3414,3.3414,3.3414,3.3414,3.3414,3.3414,3.3414,3.3414,3.3414,3.3414,3.8184,3.8769,3.9219,0.0,3.9414,3.9766,0.0,0.0,0.0,0.0,3.7069,3.5962,3.4738,3.4908,3.4917,3.4515,3.4341,0.0,0.0,0.0,0.0,3.5267,3.7192,3.7525,3.5715,3.7757,0.0,3.854,0.0,0.0,3.957,3.9883,4.0254,4.0703,4.1348,4.187,4.2241,4.2865,4.3579,4.4166,4.3423,4.4642,0.0,0.0,4.8144,4.9082,4.832,4.8047,4.8086,4.8281,4.7793,4.7168,4.7598,4.6881,4.6034,4.6555,4.5591,4.4648,4.5718,4.5442,4.4741,4.453,4.4636,4.4636,0.0,0.0,0.0,0.0,0.0,0.0,0.0,0.0,0.0,0.0,0.0,0.0,0.0,0.0,0.0,0.0,0.0,0.0,0.0,4.074,4.1045,4.1482,4.2289,0.0,0.0,0.0,0.0,3.4338,3.3692,3.2841,3.1664,3.1517,3.1677,3.2104,3.2251,3.2559,3.2986,3.3053,3.32,3.3414,3.3414,3.3414,3.3414,3.3414,3.3414,3.3414,3.3414,3.3414,3.3414,3.3414,3.3414,3.3414,3.9101,0.0,0.0,4.043,0.0,0.0,3.9591,0.0,0.0,3.8186,3.7031,0.0,3.5197,3.4578,3.4153,3.3923,3.4081,0.0,0.0,0.0,0.0,3.5096,3.5712,3.5568,3.4503,3.6171,0.0,3.8128,0.0,0.0,4.0469,4.0879,4.1308,4.1738,4.2168,4.2734,4.3277,4.2442,4.2725,4.3571,4.2524,0.0,0.0,4.687,4.7729,4.8359,4.8047,4.8047,4.8223,4.8281,4.793,4.7449,4.7561,4.7018,4.6434,4.6261,4.5489,4.4825,4.5205,4.5123,4.4712,4.4102,4.4284,4.439,4.3507,4.3251,4.3157,0.0,0.0,0.0,0.0,0.0,0.0,0.0,0.0,0.0,0.0,0.0,0.0,0.0,0.0,0.0,0.0,0.0,0.0,0.0,0.0,0.0,0.0,0.0,0.0,0.0,3.2929,3.2606,3.1664,3.1623,3.1717,3.1917,3.2038,3.2345,3.2799,3.2919,3.3133,3.3414,3.3414,3.3414,3.3427,3.3561,3.3413,3.3224,3.3153,3.3013,3.2908,3.3052,3.3316,3.3641,0.0,0.0,0.0,0.0,0.0,0.0,0.0,3.8921,0.0,3.7979,0.0,3.6297,3.6606,3.4937,3.3931,3.417,0.0,3.4875,3.6687,3.4506,3.3873,3.5423,3.3671,3.2701,3.2701,3.3948,0.0,0.0,0.0,0.0,4.1523,4.1875,4.2246,4.2617,4.3047,4.3254,0.0,4.1135,4.0871,4.1868,4.1514,4.2102,4.3394,4.5915,4.6927,4.707,4.7352,4.7683,4.7988,4.7586,4.7683,4.7807,4.6992,4.7055,4.6987,4.5924,4.5434,4.509,4.4603,4.4622,4.4606,4.377,4.3926,4.3988,4.3118,4.305,4.3161,4.2914,4.2799,0.0,0.0,0.0,0.0,0.0,0.0,0.0,0.0,0.0,0.0,0.0,0.0,0.0,0.0,0.0,0.0,0.0,0.0,0.0,0.0,0.0,0.0,0.0,3.1289,0.0,3.1717,0.0,3.1957,3.1784,3.1998,3.2251,3.2656,3.2759,3.3066,3.3314,3.3314,3.3253,3.3346,3.3625,3.3426,3.2942,3.2673,3.2403,3.2315,3.2517,3.3188,3.3824,0.0,0.0,0.0,0.0,0.0,3.936,3.7885,3.6434,3.5692,3.6341,3.5443,3.4799,3.4857,3.4914,3.4992,3.4792,3.4406,0.0,0.0,0.0,0.0,3.4971,3.3483,3.2701,3.2701,3.3902,3.5627,0.0,0.0,0.0,4.3262,4.334,4.3418,4.3496,4.3965,4.2945,4.08,3.8787,0.0,4.1018,3.9652,4.1727,4.5662,4.6528,4.7118,4.748,4.7089,4.7024,4.7098,4.7031,4.6845,4.6549,4.6709,4.6363,4.5884,4.6243,4.5463,4.4579,4.5481,4.5255,4.4696,4.4216,4.4104,4.3974,4.314,4.2394,4.2063,4.2389,4.2131,4.1952,4.1899,0.0,0.0,0.0,0.0,0.0,0.0,0.0,0.0,0.0,0.0,0.0,0.0,0.0,0.0,0.0,0.0,0.0,0.0,0.0,0.0,0.0,0.0,0.0,0.0,0.0,0.0,3.2482,3.2198,3.2251,3.2629,3.2345,3.2385,3.2712,3.2712,3.2784,3.2725,3.2776,3.2801,3.2698,3.2646,3.253,3.2517,3.2913,3.3094,3.3225,0.0,0.0,0.0,0.0,0.0,0.0,0.0,3.4522,0.0,3.5945,3.5711,3.5412,3.5684,3.4743,3.41,3.3948,3.3792,3.3888,3.4057,3.3435,3.312,3.3242,3.2379,0.0,3.197,3.2449,3.4486,3.8203,0.0,0.0,0.0,0.0,0.0,4.4954,4.3576,4.2333,0.0,0.0,0.0,4.0894,3.9059,4.1054,4.5205,4.5611,4.6089,4.644,4.6242,4.6261,4.6517,4.6777,4.6533,4.6195,4.6366,4.6073,4.5667,4.5668,4.5335,4.5059,4.5003,4.4891,4.4651,4.4244,4.4004,4.3712,4.3331,4.2894,4.2619,4.2582,4.2271,4.2094,4.23,4.2368,0.0,0.0,0.0,0.0,0.0,0.0,0.0,0.0,0.0,0.0,0.0,0.0,0.0,0.0,0.0,0.0,0.0,0.0,0.0,0.0,0.0,0.0,0.0,0.0,0.0,3.2318,3.2027,3.2089,3.2379,3.194,3.1892,3.2209,3.2209,3.2251,3.2365,3.2345,3.2353,3.2366,3.2201,3.2072,3.1868,3.0952,3.061,3.0811,0.0,4.3196,0.0,0.0,3.8758,0.0,3.5476,3.3541,3.3105,3.5337,3.5617,3.586,3.6206,3.4534,3.3345,3.3278,3.3447,3.336,3.3197,3.2804,3.2415,3.1974,3.1517,3.1223,3.1223,3.1083,3.3162,0.0,0.0,0.0,0.0,0.0,0.0,0.0,0.0,0.0,0.0,0.0,3.6396,3.958,3.8581,4.0322,4.3678,4.4547,4.5074,4.5527,4.5513,4.5725,4.614,4.6481,4.6331,4.6029,4.5815,4.5779,4.5686,4.4985,4.5205,4.5443,4.4581,4.4508,4.46,4.4288,4.3976,4.3756,4.3756,4.3609,4.3408,4.3078,4.2619,4.2481,4.2901,4.2772,0.0,0.0,0.0,0.0,0.0,0.0,0.0,0.0,0.0,0.0,0.0,0.0,0.0,0.0,0.0,0.0,3.3307,3.3105,0.0,0.0,0.0,0.0,3.1851,0.0,3.2465,0.0,3.1933,3.1874,3.1996,3.1534,3.1401,3.1617,3.1617,3.1705,3.1943,3.1978,3.1615,3.1195,3.1,3.0528,2.972,2.808,2.7502,2.7824,0.0,0.0,0.0,0.0,0.0,0.0,0.0,3.4142,3.2911,3.2949,3.3543,3.4016,3.4044,3.4368,3.4386,3.4086,3.3957,3.3802,3.3704,3.2999,3.2689,3.275,3.1813,3.1223,3.1223,3.0915,3.2119,0.0,0.0,0.0,0.0,0.0,0.0,0.0,0.0,0.0,0.0,3.4743,3.4845,3.5012,3.7024,3.9305,4.1689,4.4034,4.5097,4.5475,4.5472,4.5701,4.6038,4.5981,4.6038,4.5908,4.5114,4.5077,4.5389,4.526,4.5021,4.4838,4.5113,4.493,4.4655,4.4618,4.46,4.4563,4.4563,4.4013,4.3481,4.3444,4.2821,4.2381,4.2835,4.2321,4.2045,0.0,0.0,0.0,0.0,0.0,0.0,0.0,0.0,0.0,0.0,0.0,0.0,0.0,0.0,3.3349,3.1164,3.1314,0.0,3.1183,0.0,3.1623,3.2549,3.2616,0.0,3.2215,3.2142,3.1871,3.1499,3.1132,3.1013,3.1113,3.1113,3.1105,3.1066,3.1114,2.9967,2.8153,2.8081,2.6807,2.4991,2.4798,2.4808,2.4808,0.0,0.0,0.0,0.0,0.0,0.0,0.0,3.3227,3.2746,3.2799,3.3251,3.3539,3.3539,3.3754,3.3849,3.3727,3.3621,3.3594,3.3552,3.2996,3.2509,3.2406,3.1638,3.1142,3.0969,3.0675,3.1944,0.0,0.0,0.0,0.0,0.0,0.0,0.0,0.0,3.651,3.4366,3.3008,3.3151,3.4445,3.6725,3.8911,4.1058,4.3195,4.4424,4.4999,4.4984,4.5372,4.5926,4.5647,4.5518,4.5501,4.4893,4.4783,4.4875,4.4636,4.4801,4.504,4.4948,4.4801,4.4728,4.4985,4.4673,4.4453,4.493,4.46,4.4123,4.3903,4.2281,4.1302,4.2645,4.0702,3.9362,0.0,0.0,0.0,0.0,0.0,0.0,0.0,0.0,0.0,0.0,0.0,0.0,0.0,0.0,0.0,3.1597,3.169,0.0,3.1757,0.0,3.1096,3.1794,3.1686,3.1633,3.1454,3.1488,3.1353,3.1152,3.0639,3.0512,3.053,3.0688,3.0038,2.8766,2.8913,2.7701,2.5701,2.5701,2.5173,2.422,2.2832,2.23,2.2096,3.7863,0.0,3.7883,0.0,3.5256,3.4864,3.2949,3.271,3.2772,3.3066,3.328,3.3414,3.3414,3.3494,3.3507,3.3414,3.3494,3.3467,3.3293,3.2906,3.2505,3.2118,3.1623,0.0,3.1062,3.0768,3.1661,3.3717,3.6524,0.0,0.0,0.0,0.0,0.0,3.5561,3.4303,3.3611,3.1601,3.2186,3.4485,3.6635,3.8686,4.0713,4.2748,4.3921,4.4508,4.4508,4.4948,4.548,4.5205,4.5113,4.504,4.4636,4.4508,4.4435,4.416,4.4581,4.5021,4.4618,4.4581,4.4746,4.504,4.4691,4.4471,4.5278,4.515,4.4563,4.3577,4.1193,3.979,4.1051,3.8941,3.7456,0.0,0.0,0.0,0.0,0.0,0.0,0.0,3.0688,3.0822,3.0702,0.0,0.0,0.0,0.0,0.0,0.0,0.0,0.0,0.0,0.0,0.0,0.0,0.0,3.0894,3.0809,3.0952,3.091,3.0708,3.0416,3.0214,3.0124,2.9679,2.8609,2.7155,2.6692,2.5186,2.3189,2.3189,2.2777,2.2037,2.0351,1.9714,1.9501,3.5849,3.5338,3.4607,3.2138,3.2013,3.2308,3.2505,3.2786,3.308,3.3374,3.3414,3.3414,3.3414,3.3694,3.3761,3.344,3.3694,3.3627,3.3026,3.2973,3.2706,0.0,0.0,3.1664,3.1664,3.137,3.1076,3.0887,0.0,0.0,3.2111,0.0,0.0,3.4457,3.4878,3.349,3.0887,3.0795,3.2311,3.4779,3.6464,3.8457,4.0713,4.2748,4.3738,4.4086,4.4086,4.4343,4.4691,4.4673,4.4673,4.4618,4.4215,4.4086,4.4086,4.4086,4.4361,4.46,4.4196,4.438,4.4673,4.4673,4.4673,4.4875,4.57,4.5572,4.4593,4.2104,3.9742,3.788,3.7547,3.7214,3.7178,3.7512,0.0,0.0,0.0,0.0,0.0,0.0,3.1904,3.2198,3.2589,0.0,0.0,0.0,0.0,0.0,0.0,0.0,0.0,3.0916,3.0157,0.0,3.0644,3.084,3.0698,3.0218,3.0764,3.0708,3.0214,3.0214,3.0214,3.0112,2.794,2.6907,2.6691,2.4525,2.2356,2.0392,2.0392,1.9052,1.709,1.709,1.709,1.709,3.3239,3.3076,3.2955,3.2418,3.2505,3.2666,3.2656,3.2786,3.3013,3.3106,3.312,3.3187,3.3387,3.3507,3.3521,0.0,3.3507,3.348,0.0,3.3093,3.2893,3.2706,3.2225,3.1877,3.1677,3.1383,3.1183,3.1089,0.0,0.0,0.0,3.5089,3.4319,3.2255,3.2353,3.1902,3.1089,3.1089,3.1556,3.2561,3.6083,3.7847,3.8876,4.2192,4.3738,4.4086,4.4086,4.4343,4.4636,4.4361,4.427,4.4196,4.3811,4.3866,4.4086,4.4086,4.4361,4.4636,4.4508,4.4783,4.5095,4.5095,4.5095,4.5242,4.5773,4.4522,4.257,4.0322,3.8023,3.6655,3.7616,3.5428,3.3794,3.5054,0.0,0.0,0.0,0.0,0.0,0.0,3.1276,3.1249,0.0,3.1971,0.0,0.0,0.0,0.0,0.0,0.0,0.0,0.0,2.9967,0.0,3.0063,2.9959,2.9799,2.9614,3.0161,3.0416,3.0112,2.8654,2.7929,2.7827,2.5656,2.3794,2.2347,2.1622,2.0079,1.8013,1.8013,1.7601,1.6978,1.6978,1.6978,1.6978,3.1931,3.2024,3.2158,3.2345,3.2625,3.2786,3.2719,3.2866,3.3013,3.3133,3.3146,3.3213,3.3387,3.3414,0.0,3.3414,3.3414,0.0,3.3414,3.324,3.3093,3.2986,3.2625,3.2238,3.1837,0.0,0.0,3.1223,3.2948,3.3931,3.4046,3.3729,3.2673,3.1223,3.1116,3.1129,3.1223,3.1223,3.1651,3.2696,3.5371,3.7391,3.8876,4.0623,4.1883,4.2747,4.2747,4.289,4.3251,4.3669,4.3866,4.3829,4.3573,4.3664,4.3866,4.3866,4.4141,4.4325,4.3323,4.3498,4.3909,4.3909,4.3456,4.3086,4.3469,4.1728,3.9724,3.8373,3.6177,3.4835,3.5978,3.3788,3.2137,3.3253,0.0,0.0,0.0,0.0,0.0,0.0,0.0,0.0,0.0,3.1498,0.0,0.0,0.0,0.0,0.0,0.0,0.0,3.0383,2.9462,0.0,2.9346,2.942,2.9405,2.9405,2.9131,2.8552,2.7623,2.6282,2.5656,2.5553,2.3278,2.1622,2.0279,1.935,1.8222,1.6978,1.6978,1.6978,1.6978,1.6978,1.6978,1.6978,3.1784,3.1944,0.0,0.0,3.2385,0.0,3.2933,3.3,3.3106,3.3374,3.3414,3.3414,3.3414,3.3414,3.3414,3.3414,0.0,0.0,0.0,3.3414,3.3293,3.3026,3.2986,0.0,3.2171,3.2118,3.1824,3.1249,3.1236,3.137,3.1637,3.1356,3.1223,3.1209,3.0969,3.1009,3.1249,3.1249,3.2429,3.4435,3.4528,3.6837,3.988,3.8219,3.8693,4.0334,4.0424,4.0532,4.0804,4.2837,4.3499,4.3499,4.3499,4.3499,4.3499,4.3518,4.3703,4.3434,4.1123,4.1022,4.1476,4.1442,4.0318,3.9163,3.9399,3.7915,3.6455,3.6356,3.4561,3.3,3.2986,3.2532,3.2144,3.2104,3.1637,3.1289,3.1289,0.0,0.0,0.0,0.0,0.0,0.0,3.132,3.092,0.0,0.0,0.0,0.0,0.0,0.0,2.94,2.8652,2.8355,2.862,2.9139,2.9318,2.9168,2.7503,2.5553,2.3587,2.3484,2.3381,2.3278,2.1007,2.0071,1.9871,1.7804,1.6978,1.6978,1.6978,1.6978,1.6978,1.6978,1.6978,1.6978,0.0,0.0,3.2438,3.2438,3.2679,3.2906,3.2973,3.316,3.3334,3.34,3.3414,3.3414,3.3414,3.3414,3.3414,3.3414,3.3414,3.3414,3.3414,3.3414,3.3387,3.3307,3.3093,3.2906,3.2772,3.2332,3.1931,3.157,3.1343,3.1263,3.133,3.1263,3.1223,3.1236,3.1396,3.1503,3.157,3.157,3.1881,3.2502,3.3981,3.5167,3.6097,3.7207,3.7851,3.851,3.997,4.0532,4.0804,4.2837,4.3499,4.3499,4.3499,4.3499,4.3554,4.3848,4.2981,4.1705,4.1161,4.0374,3.972,3.9428,3.9451,3.9173,3.7606,3.6849,3.6059,3.4499,3.3647,3.324,3.3013,3.2866,3.2625,3.2171,3.1984,3.1891,3.1891,0.0,0.0,0.0,3.0998,3.0594,3.0434,3.0421,3.0542,0.0,0.0,0.0,0.0,0.0,2.9946,2.8824,2.856,2.856,2.862,2.9139,2.8802,2.7446,2.5399,2.4103,2.3587,2.1829,2.1103,2.0999,1.8738,1.7811,1.7706,1.7188,1.6978,1.6978,1.6978,1.6978,1.6978,1.6978,1.6978,1.6978,3.2643,3.2652,3.2746,3.2746,3.2986,3.3173,3.3173,3.3307,3.3414,3.3414,3.3414,3.3414,3.3414,3.3414,3.3414,3.3414,3.3414,3.3414,3.3414,3.3414,3.3414,3.3414,3.3253,3.312,3.2986,3.2666,3.2291,3.1864,3.157,3.1423,3.1423,3.1423,3.1423,3.1436,3.1597,3.1664,3.1664,3.1664,3.1664,3.1758,3.2866,3.3793,3.4622,3.4809,3.5461,3.6375,3.7391,3.7759,3.8127,4.0152,4.0804,4.0804,4.0804,4.0804,4.0856,4.1045,4.1006,4.0458,3.8586,3.7805,3.7313,3.6468,3.7253,3.7719,3.5579,3.5082,3.4784,3.36,3.3414,3.336,3.32,3.3066,3.2866,3.2559,3.2398,3.2155,3.1829,3.1395,0.0,3.0741,3.0408,2.9982,2.9677,2.957,2.9758,3.0016,0.0,0.0,2.9738,2.9616,2.9213,2.8632,2.862,2.8128,2.7141,2.6737,2.5555,2.3763,2.2612,2.157,2.0611,1.9388,1.8776,1.8843,1.7594,1.708,1.708,1.7154,1.7182,1.7182,1.7182,1.7182,1.7182,1.7182,1.7182,1.7182,3.2679,3.2879,3.304,3.304,3.3253,3.3414,3.3414,3.3414,3.3414,3.3414,3.3414,3.3414,3.3414,3.3414,3.3414,3.3414,3.3414,3.3414,3.3414,3.3414,3.3414,3.3414,3.3414,3.3293,3.3053,3.3,3.2692,3.2104,3.1851,3.1717,3.1664,3.1664,3.1664,3.1664,3.1664,3.1664,3.1664,3.1664,3.1664,3.1664,3.1664,3.2691,3.3981,3.2313,3.2677,3.4154,3.4528,3.4622,3.4902,3.693,3.7575,3.7575,3.7575,3.7575,3.7575,3.7207,3.831,3.8876,3.56,3.4878,3.4838,3.3665,3.4684,3.5579,3.38,3.3414,3.3414,3.3414,3.3414,3.3414,3.3414,3.3213,3.3053,3.3106,3.2839,3.2226,3.1503,0.0,3.0844,3.007,2.9937,2.9658,2.8971,2.8946,2.8744,2.827,2.827,0.0,0.0,2.8128,2.7935,2.7634,2.7935,2.7164,2.5129,2.3372,2.1679,2.0171,1.9927,1.8956,1.7222,1.71,1.7114,1.7229,1.7229,1.7216,1.7202,1.7331,1.7372,1.7351,1.7351,1.7351,1.7351,1.7351,1.7351,1.7351,3.328,3.332,3.3347,3.3347,3.3387,3.3414,3.3414,3.3414,3.3414,3.3414,3.3414,3.3414,3.3414,3.3414,3.3414,3.3414,3.3414,3.3414,3.3414,3.3414,3.3414,3.3414,3.3414,3.3387,3.3347,3.3106,3.2692,3.2104,3.2051,3.1904,3.1664,3.1664,3.1664,3.1664,3.1664,3.1664,3.1664,3.1664,3.1664,3.1664,3.1664,3.1853,3.2138,3.1853,3.1853,3.2408,3.3981,3.4622,3.4902,3.693,3.7575,3.7575,3.7575,3.7575,3.7299,3.5539,3.526,3.5413,3.5147,3.4168,3.3381,3.342,3.36,3.38,3.3514,3.3414,3.3414,3.3414,3.3414,3.3414,3.3414,3.3374,3.3427,3.3708,3.2881,3.2202,0.0,0.0,2.9879,2.9508,2.9088,2.88,2.8656,2.8656,2.8656,2.856,2.856,2.7792,2.6056,2.5959,2.5173,2.3316,2.5076,2.5074,2.3108,2.1147,2.0212,2.0239,1.855,1.7549,1.7385,1.7365,1.7365,1.7385,1.7385,1.7311,1.7195,1.7216,1.7154,1.7046,1.7046,1.7046,1.7046,1.7046,1.7046,1.7046,3.3414,3.3414,3.3414,3.3414,3.3414,3.3414,3.3414,3.3414,3.3414,3.3414,3.3414,3.3414,3.3414,3.3414,3.3414,3.3414,3.3414,3.3414,3.3414,3.3414,3.3414,3.3414,3.3414,3.3414,3.3414,3.3133,3.2853,3.2572,3.2251,3.2038,3.1904,3.1744,3.1664,3.1664,3.1664,3.1664,3.1664,3.1664,3.1664,3.1664,3.1664,3.1664,3.1664,3.1664,3.1664,3.1853,3.2677,3.3055,3.3149,3.4075,3.4449,3.4449,3.4449,3.4449,3.4262,3.3337,3.3166,3.3362,3.3683,3.342,3.3053,3.3334,3.3414,3.3414,3.3414,3.3414,3.3414,3.3414,3.3414,3.3314,3.3013,3.3013,3.2965,3.2807,3.2297,0.0,0.0,3.0451,2.9749,2.9053,2.8716,2.862,2.862,2.862,2.8128,2.7044,2.6948,2.5959,2.39,2.3803,2.2828,2.0675,2.1557,2.1756,2.0972,1.8955,1.8151,1.8396,1.7524,1.7154,1.7297,1.7216,1.7222,1.7297,1.7297,1.7256,1.7202,1.7283,1.7277,1.7216,1.7216,1.7216,1.7216,1.7216,1.7003,1.6789,3.3414,3.3414,3.3414,3.3414,3.3414,3.3414,3.3414,3.3414,3.3414,3.3414,3.3414,3.3414,3.3414,3.3414,3.3414,3.3414,3.3414,3.3414,3.3414,3.348,3.3494,3.3414,3.3414,3.3414,3.3414,3.3187,3.3013,3.2879,3.2425,3.2131,3.1998,3.177,3.1664,3.1664,3.1664,3.1664,3.1664,3.1664,3.1664,3.1664,3.1664,3.1664,3.1664,3.1664,3.1664,3.1664,3.1664,3.1664,3.1664,3.1664,3.1664,3.1664,3.1664,3.1664,3.1677,3.1744,3.2024,3.2358,3.2585,3.2866,3.3133,3.336,3.3414,3.3414,3.3414,3.3414,3.3414,3.3213,3.316,3.2934,3.2498,3.2307,3.2181,3.1984,0.0,0.0,0.0,3.007,2.9628,2.8681,2.8128,2.7839,2.7839,2.7442,2.6454,2.4882,2.4785,2.3803,2.1655,2.1557,2.0683,1.8533,1.8434,1.8496,1.8628,1.7198,1.6544,1.67,1.6856,1.7005,1.7141,1.7032,1.7039,1.7141,1.7141,1.7141,1.7154,1.7163,1.7103,1.7103,1.6996,1.6889,1.6889,1.6889,1.6668,1.6239,3.3414,3.3414,3.3414,3.3414,3.3414,3.3414,3.3414,3.3414,3.3414,3.3414,3.3414,3.3414,3.3414,3.3414,3.3414,3.3414,3.3414,3.3414,3.3414,3.3694,3.3721,3.3427,3.3414,3.3414,3.3414,3.3387,3.312,3.267,3.2532,3.2238,3.1704,3.1677,3.1664,3.1664,3.1664,3.1664,3.1664,3.1664,3.1664,3.1664,3.1664,3.1664,3.1664,3.1664,3.1664,3.1664,3.1664,3.1664,3.1664,3.1664,3.1664,3.1664,3.1664,3.1664,3.1717,3.1984,3.2465,3.2919,3.2946,3.316,3.3387,3.3414,3.3414,3.3414,3.3414,3.3414,3.3213,3.2712,3.2502,3.2199,3.1869,3.1499,3.1397,3.2188,0.0,0.0,3.0628,2.9738,2.8934,2.8656,2.6936,2.5765,2.5765,2.39,2.2731,2.2535,2.2535,2.1655,1.9503,1.9413,1.8434,1.6374,1.6374,1.6282,1.6295,1.6346,1.6395,1.6537,1.6693,1.6849,1.6998,1.6985,1.6985,1.6998,1.6998,1.6998,1.6998,1.6367,1.6163,1.6163,1.563,1.5419,1.5419,1.5419,1.5419,1.5096,3.3414,3.3414,3.3414,3.3414,3.3414,3.3414,3.3414,3.3414,3.3414,3.3414,3.3587,3.3708,3.3708,3.3868,3.3975,3.3975,3.3975,3.3975,3.3975,3.4082,3.4015,3.3721,3.3521,3.3414,3.3414,3.324,3.304,3.2812,3.2452,3.2158,3.1931,3.1757,3.1664,3.1664,3.1664,3.1664,3.1664,3.1664,3.1664,3.1664,3.1664,3.1664,3.1664,3.1664,3.1664,3.1664,3.1664,3.1664,3.1664,3.1664,3.1664,3.1704,3.1877,3.1931,3.1998,3.2291,3.2532,3.2706,3.2326,3.2855,3.3414,3.3414,3.2981,3.2649,3.2649,3.2319,3.1892,3.1694,3.1518,3.1269,3.0876,3.0626,3.049,3.0503,0.0,2.9676,2.9615,2.8136,2.694,2.6681,2.4785,2.3511,2.3511,2.2828,2.1753,2.0487,2.0389,1.9511,1.7353,1.7261,1.6963,1.6083,1.6083,1.613,1.6225,1.6279,1.6381,1.6524,1.6578,1.6639,1.6693,1.639,1.6183,1.6183,1.5873,1.5666,1.5666,1.5453,1.5349,1.5362,1.5234,1.4319,1.3058,1.3132,1.2093,1.0395,3.3414,3.3414,3.3414,3.3414,3.3414,3.3414,3.3414,3.3414,3.3414,3.3414,3.3694,3.3881,3.3881,3.4148,3.4322,3.4322,3.4322,3.4322,3.4322,3.4229,3.4135,3.4028,3.3721,3.3561,3.3561,3.3267,3.3026,3.2839,3.2438,3.2144,3.1957,3.1757,3.1664,3.1664,3.1664,3.1664,3.1664,3.1664,3.1664,3.1664,3.1664,3.1664,3.1664,3.1664,3.1664,3.1664,3.1664,3.1664,3.1664,3.1664,3.1664,3.1704,3.1904,3.2024,3.2144,3.2151,3.2284,3.2252,3.1666,3.2051,3.2649,3.2649,3.2194,3.1866,3.1866,3.1415,3.0992,3.0783,3.072,3.0486,3.007,2.9849,2.9567,2.937,2.8709,2.8089,2.7914,2.6114,2.467,2.4504,2.2633,2.1361,2.1361,2.0773,1.9798,1.8335,1.8236,1.7551,1.5977,1.5877,1.5778,1.5578,1.5578,1.5631,1.573,1.5931,1.5984,1.5874,1.5874,1.5874,1.5874,1.5468,1.5272,1.5272,1.4961,1.4782,1.4722,1.3899,1.3609,1.3546,1.2802,1.1578,1.0128,1.0219,0.9093,0.7194,3.34,3.34,3.34,3.34,3.34,3.34,3.34,3.34,3.34,3.3414,3.3681,3.3881,3.3881,3.4148,3.4322,3.4322,3.4322,3.4322,3.4322,3.4055,3.4015,3.4309,3.4042,3.3881,3.3881,3.3574,3.3133,3.2643,3.2643,3.2251,3.1677,3.1677,3.1677,3.1677,3.1664,3.1664,3.1664,3.1664,3.1664,3.1664,3.1664,3.1664,3.1664,3.1664,3.1664,3.1664,3.1664,3.1664,3.1664,3.1677,3.1677,3.1677,3.1677,3.1877,3.2008,3.143,3.1542,3.1666,3.1078,3.098,3.0992,3.0992,3.0992,3.0992,3.0992,3.0992,3.0783,3.0279,2.997,2.9664,2.9443,2.897,2.8705,2.8873,2.6999,2.5464,2.5464,2.3608,2.2242,2.2242,2.0487,1.9216,1.9216,1.736,1.6083,1.6083,1.6083,1.5884,1.528,1.528,1.5081,1.4476,1.4476,1.4476,1.4476,1.5074,1.5074,1.4476,1.4476,1.4476,1.4476,1.4476,1.4476,1.4476,1.4476,1.4556,1.4375,1.1725,1.0661,1.0643,0.786,0.6828,0.6733,0.6794,0.6711,0.6408,3.2839,3.2799,3.2799,3.2799,3.2799,3.2799,3.2799,3.2799,3.2879,3.308,3.3374,3.3641,3.3855,3.4148,3.4322,3.4322,3.4322,3.4322,3.4322,3.4242,3.4229,3.4322,3.3828,3.3547,3.3547,3.3267,3.3026,3.2853,3.2652,3.2549,3.2375,3.2078,3.1971,3.1971,3.1757,3.1664,3.1664,3.1664,3.1664,3.1664,3.1664,3.1664,3.1664,3.1664,3.1664,3.1664,3.1664,3.1664,3.1704,3.1904,3.1971,3.1915,3.1838,3.1568,3.1302,3.0902,3.0915,3.0746,3.0072,2.9913,3.011,3.0793,3.0547,3.0201,3.0201,2.976,2.9249,2.914,2.8982,2.8463,2.6947,2.6543,2.5981,2.4479,2.3756,2.3218,2.3218,2.1459,2.0094,2.0094,1.8335,1.7062,1.7062,1.6076,1.5578,1.5578,1.518,1.4881,1.4775,1.4775,1.4676,1.4476,1.4476,1.4283,1.3983,1.4482,1.4676,1.4476,1.4476,1.4476,1.4476,1.4083,1.3079,1.1664,1.1263,1.0275,0.8784,0.7982,0.7689,0.7715,0.6951,0.5638,0.4313,0.4353,0.3433,0.1981,3.2919,3.2893,3.2853,3.2732,3.2719,3.2719,3.2719,3.2719,3.2826,3.3106,3.3414,3.3668,3.3868,3.4148,3.4322,3.4322,3.4322,3.4322,3.4322,3.4215,3.4148,3.4148,3.3668,3.3467,3.3601,3.3307,3.3093,3.2973,3.2799,3.2652,3.2643,3.2358,3.2278,3.2265,3.2091,3.2011,3.2011,3.2011,3.2011,3.2011,3.1891,3.1837,3.1824,3.1717,3.1664,3.1664,3.1664,3.1649,3.1577,3.1749,3.1623,3.1456,3.1348,3.103,3.0611,3.0253,3.0106,2.9984,2.9233,2.91,2.927,2.9894,2.965,2.9333,2.9333,2.8922,2.8332,2.7538,2.7345,2.6743,2.4591,2.4192,2.3803,2.2535,2.1655,2.1067,2.1067,1.9314,1.7939,1.7642,1.6566,1.5678,1.5479,1.518,1.4981,1.4981,1.4676,1.4377,1.4183,1.4183,1.4083,1.3884,1.3884,1.3707,1.3463,1.2849,1.3017,1.3884,1.2973,1.2568,1.2568,1.1363,1.0057,0.8854,0.8586,0.7588,0.6376,0.5466,0.5165,0.5064,0.4263,0.3159,0.1946,0.2066,0.1144,0.0,3.3334,3.3334,3.3253,3.2986,3.2933,3.2933,3.2933,3.2933,3.304,3.3334,3.3627,3.3814,3.3841,3.4082,3.4242,3.4242,3.4242,3.4242,3.4242,3.3988,3.3841,3.3841,3.3561,3.3547,3.3841,3.3561,3.328,3.3013,3.3013,3.2879,3.2625,3.2696,3.2683,3.2585,3.2656,3.2643,3.2643,3.2616,3.2603,3.2478,3.2185,3.1968,3.1942,3.1675,3.1569,3.1569,3.1569,3.136,3.1198,3.1224,3.085,3.0476,3.0476,3.0177,2.9841,2.9471,2.9292,2.9196,2.8716,2.862,2.8524,2.8332,2.832,2.832,2.832,2.8128,2.7538,2.5561,2.5173,2.4591,2.2438,2.2047,2.1949,2.1753,2.0094,1.8821,1.8821,1.7154,1.5778,1.528,1.528,1.5081,1.4576,1.4476,1.4377,1.4377,1.4377,1.4183,1.369,1.359,1.3295,1.26,1.26,1.2553,1.2455,1.041,1.0472,1.2616,1.0393,0.938,0.938,0.7364,0.6254,0.6156,0.6103,0.6022,0.5716,0.3676,0.2961,0.2755,0.081,0.0,0.0,0.0,0.0,0.0,3.2772,3.2732,3.2719,3.275,3.2737,3.2737,3.2737,3.2737,3.2746,3.3026,3.3133,3.3267,3.3494,3.3574,3.3614,3.3614,3.3614,3.3614,3.3614,3.3547,3.3507,3.3507,3.3454,3.344,3.3507,3.3454,3.3374,3.332,3.332,3.328,3.3213,3.2986,3.2879,3.2879,3.2652,3.2643,3.2629,3.2291,3.2198,3.2171,3.1399,3.1198,3.109,3.063,3.0414,3.0414,3.0414,3.0452,3.0447,3.0664,3.0366,2.9979,2.9979,2.9502,2.8908,2.8812,2.8812,2.8716,2.862,2.862,2.8224,2.655,2.6152,2.6152,2.6152,2.4882,2.3511,2.3121,2.3023,2.234,2.029,1.9897,1.9314,1.7749,1.6658,1.6169,1.6169,1.5373,1.4775,1.4676,1.4676,1.4676,1.4476,1.4083,1.369,1.3284,1.3284,1.3184,1.309,1.309,1.222,1.0476,1.0375,0.9572,0.7855,0.7346,0.8286,1.0488,0.8225,0.7097,0.7097,0.6581,0.5451,0.3909,0.3891,0.2965,0.1329,0.0914,0.0709,0.0607,0.0202,0.0,0.0,0.0,0.0,0.0,3.2986,3.2959,3.2919,3.2772,3.2746,3.2746,3.2746,3.2746,3.2853,3.3146,3.3187,3.324,3.3387,3.3414,3.3414,3.3414,3.3414,3.3414,3.3414,3.3414,3.3414,3.3414,3.3414,3.3414,3.3414,3.3414,3.3414,3.3414,3.3414,3.3414,3.3414,3.3253,3.3187,3.3173,3.2879,3.2661,3.234,3.2049,3.1833,3.1516,3.0953,3.0728,3.0702,3.0274,3.0128,3.0128,3.0128,3.0025,2.9984,2.9981,2.9786,2.9396,2.9396,2.8329,2.7141,2.7141,2.6375,2.5506,2.5506,2.543,2.5141,2.4077,2.3089,2.2703,2.3686,2.3121,2.2047,2.1067,2.0773,2.0192,1.8137,1.7551,1.6956,1.5877,1.528,1.4881,1.4881,1.4676,1.4377,1.4183,1.4083,1.3983,1.3784,1.3484,1.2784,1.1473,1.1373,1.0868,0.9861,0.9761,0.9275,0.8207,0.811,0.7617,0.6531,0.5413,0.554,0.6725,0.5437,0.4904,0.4802,0.3783,0.2762,0.1638,0.1638,0.1023,0.0,0.0,0.0,0.0,0.0,-0.0203,-0.0407,-0.0407,-0.0508,-0.0814,3.3414,3.3414,3.3334,3.3093,3.3053,3.3053,3.3053,3.3053,3.3133,3.3374,3.3314,3.3213,3.3213,3.3213,3.3113,3.3113,3.3113,3.3113,3.3113,3.3113,3.3113,3.3113,3.3113,3.3113,3.3113,3.306,3.316,3.3414,3.3414,3.3387,3.3334,3.3334,3.3207,3.3154,3.2914,3.2511,3.2004,3.1718,3.1308,3.0891,3.0514,3.04,3.0362,3.0025,2.9841,2.9841,2.9841,2.9512,2.8958,2.8391,2.7991,2.7794,2.784,2.6491,2.4916,2.4916,2.3622,2.2134,2.2096,2.1954,2.183,2.1487,2.0176,1.9378,2.0925,2.1263,2.0773,1.892,1.8525,1.7939,1.6175,1.5479,1.518,1.518,1.4676,1.4377,1.4377,1.4277,1.4083,1.359,1.3267,1.2852,1.2353,1.2053,1.1045,0.9236,0.9148,0.8349,0.6539,0.6439,0.6243,0.5851,0.5851,0.5772,0.5512,0.3577,0.2666,0.2784,0.2742,0.2626,0.2635,0.0812,0.0,0.0,0.0,-0.0102,-0.0102,-0.0102,-0.0204,-0.0306,-0.0304,-0.0507,-0.092,-0.092,-0.143,-0.2145,3.3414,3.3414,3.34,3.336,3.336,3.336,3.336,3.336,3.3374,3.3414,3.3013,3.2712,3.2712,3.231,3.2021,3.2021,3.2021,3.2021,3.2021,3.2021,3.2021,3.2021,3.2021,3.2021,3.2021,3.1777,3.2264,3.3414,3.3414,3.328,3.304,3.304,3.2709,3.1979,3.194,3.1633,3.1129,3.0848,3.0733,3.0611,2.9838,2.9533,2.9521,2.9017,2.8812,2.8812,2.8812,2.7646,2.5809,2.3884,2.3169,2.3032,2.3209,2.2926,2.2568,2.2568,2.2355,2.2105,2.1916,2.1935,2.1487,1.9833,1.9214,1.8606,1.7224,1.6963,1.6765,1.597,1.587,1.5572,1.4875,1.4676,1.4576,1.4576,1.4183,1.379,1.379,1.3384,1.309,1.299,1.1391,1.024,1.0141,0.8353,0.7162,0.6865,0.6814,0.6743,0.6439,0.6439,0.5558,0.3671,0.3673,0.2757,0.0921,0.0614,0.0408,0.0507,0.0404,0.0407,0.0414,0.0103,0.0,0.0,0.0,-0.0307,-0.0716,-0.0711,-0.1012,-0.1417,-0.1415,-0.1416,-0.1518,-0.1518,-0.2729,-0.4339,3.3414,3.3414,3.3314,3.3013,3.2912,3.2812,3.2511,3.2511,3.2511,3.2511,3.231,3.2109,3.2109,3.192,3.129,3.0052,3.1088,3.129,3.0052,3.1088,3.1743,3.159,3.159,3.1514,3.1361,3.1234,3.1432,3.2043,3.2043,3.1978,3.1861,3.1861,3.1698,3.1372,3.1218,3.0848,3.0336,3.006,2.9067,2.7677,2.7368,2.6539,2.5367,2.5173,2.5087,2.5087,2.5087,2.4494,2.3608,2.2633,2.2283,2.2227,2.2312,2.1502,2.0463,2.0463,1.9606,1.864,1.8568,1.8472,1.8135,1.7344,1.6947,1.6643,1.5743,1.5327,1.518,1.528,1.5081,1.4775,1.4576,1.4283,1.4083,1.4083,1.3527,1.3183,1.3183,1.2831,1.2295,1.1102,0.9182,0.7895,0.7837,0.6952,0.5874,0.4706,0.4624,0.413,0.2923,0.2822,0.2424,0.1422,0.1117,0.0508,-0.0407,-0.0711,-0.0913,-0.0909,-0.0909,-0.071,-0.0409,-0.0409,-0.0614,-0.092,-0.0917,-0.1016,-0.1219,-0.1214,-0.1414,-0.1616,-0.1616,-0.2523,-0.4033,-0.5542,-0.6746,-0.7546]},{"header":{"parameterUnit":"m.s-1","parameterCategory":1,"la1":30.6,"la2":28.766,"lo1":-90.7593,"lo2":-88.6598,"dx":0.0162,"dy":0.0183,"nx":116,"ny":114,"refTime":"2023-01-16T06:00:00:Z","depth":0,"parameterNumber":3,"parameterNumberName":"V-component_of_WINDS"},"data":[0.0,0.0,0.0,0.0,0.0,0.0,0.0,0.0,0.0,0.0,0.0,0.0,0.0,0.0,0.0,0.0,0.0,0.0,0.0,0.0,0.0,0.0,0.0,0.0,0.0,0.0,0.0,0.0,0.0,0.0,0.0,0.0,0.0,0.0,0.0,0.0,0.0,0.0,0.0,0.0,0.0,0.0,0.0,0.0,0.0,0.0,0.0,0.0,0.0,0.0,0.0,0.0,0.0,0.0,0.0,0.0,0.0,0.0,0.0,0.0,0.0,0.0,0.0,0.0,0.0,0.0,0.0,0.0,0.0,0.0,0.0,0.0,0.0,0.0,0.0,0.0,0.0,0.0,0.0,0.0,0.0,0.0,0.0,0.0,0.0,0.0,0.0,0.0,0.0,0.0,0.0,0.0,0.0,0.0,0.0,0.0,0.0,0.0,0.0,0.0,0.0,0.0,0.0,0.0,0.0,0.0,0.0,0.0,0.0,0.0,0.0,0.0,0.0,0.0,0.0,0.0,0.0,0.0,0.0,0.0,0.0,0.0,0.0,0.0,0.0,0.0,0.0,0.0,0.0,0.0,0.0,0.0,0.0,0.0,0.0,0.0,0.0,0.0,0.0,0.0,0.0,0.0,0.0,0.0,0.0,0.0,0.0,0.0,0.0,0.0,0.0,0.0,0.0,0.0,0.0,0.0,0.0,0.0,0.0,0.0,0.0,0.0,0.0,0.0,0.0,0.0,0.0,0.0,0.0,0.0,0.0,0.0,0.0,0.0,0.0,0.0,0.0,0.0,0.0,0.0,0.0,0.0,0.0,0.0,0.0,0.0,0.0,0.0,0.0,0.0,0.0,0.0,0.0,0.0,0.0,0.0,0.0,0.0,0.0,0.0,0.0,0.0,0.0,0.0,0.0,0.0,0.0,0.0,0.0,0.0,0.0,0.0,0.0,0.0,0.0,0.0,0.0,0.0,0.0,0.0,0.0,0.0,0.0,0.0,0.0,0.0,0.0,0.0,0.0,0.0,0.0,0.0,0.0,0.0,0.0,0.0,0.0,0.0,0.0,0.0,0.0,0.0,0.0,0.0,0.0,0.0,0.0,0.0,0.0,0.0,0.0,0.0,0.0,0.0,0.0,0.0,0.0,0.0,0.0,0.0,0.0,0.0,0.0,0.0,0.0,0.0,0.0,0.0,0.0,0.0,0.0,0.0,0.0,0.0,0.0,0.0,0.0,0.0,0.0,0.0,0.0,0.0,0.0,0.0,0.0,0.0,0.0,0.0,0.0,0.0,0.0,0.0,0.0,0.0,0.0,0.0,0.0,0.0,0.0,0.0,0.0,0.0,0.0,0.0,0.0,0.0,0.0,0.0,0.0,0.0,0.0,0.0,0.0,0.0,0.0,0.0,0.0,0.0,0.0,0.0,0.0,0.0,0.0,0.0,0.0,0.0,0.0,0.0,0.0,0.0,0.0,0.0,0.0,0.0,0.0,0.0,0.0,0.0,0.0,0.0,0.0,0.0,0.0,0.0,0.0,0.0,0.0,0.0,0.0,0.0,0.0,0.0,0.0,0.0,0.0,0.0,0.0,0.0,0.0,0.0,0.0,0.0,0.0,0.0,0.0,0.0,0.0,0.0,0.0,0.0,0.0,0.0,0.0,0.0,0.0,0.0,0.0,0.0,0.0,0.0,0.0,0.0,0.0,0.0,0.0,0.0,0.0,0.0,0.0,0.0,0.0,0.0,0.0,0.0,0.0,0.0,0.0,0.0,0.0,0.0,0.0,0.0,0.0,0.0,0.0,0.0,0.0,0.0,0.0,0.0,0.0,0.0,0.0,0.0,0.0,0.0,0.0,0.0,0.0,0.0,0.0,0.0,0.0,0.0,0.0,0.0,0.0,0.0,0.0,0.0,0.0,0.0,0.0,0.0,0.0,0.0,0.0,0.0,0.0,0.0,0.0,0.0,0.0,0.0,0.0,0.0,0.0,0.0,0.0,0.0,0.0,0.0,0.0,0.0,0.0,0.0,0.0,0.0,0.0,0.0,0.0,0.0,0.0,0.0,0.0,0.0,0.0,0.0,0.0,0.0,0.0,0.0,0.0,0.0,0.0,0.0,0.0,0.0,0.0,0.0,0.0,0.0,0.0,0.0,0.0,0.0,0.0,0.0,0.0,0.0,0.0,0.0,0.0,0.0,0.0,0.0,0.0,0.0,0.0,0.0,0.0,0.0,0.0,0.0,0.0,0.0,0.0,0.0,0.0,0.0,0.0,0.0,0.0,0.0,0.0,0.0,0.0,0.0,0.0,0.0,0.0,0.0,0.0,0.0,0.0,0.0,0.0,0.0,0.0,0.0,0.0,0.0,0.0,0.0,0.0,0.0,0.0,0.0,0.0,0.0,0.0,0.0,0.0,0.0,0.0,0.0,0.0,0.0,0.0,0.0,0.0,0.0,0.0,0.0,0.0,0.0,0.0,0.0,0.0,0.0,0.0,0.0,0.0,0.0,0.0,0.0,0.0,0.0,0.0,0.0,0.0,0.0,0.0,0.0,0.0,0.0,0.0,0.0,0.0,0.0,0.0,0.0,0.0,0.0,0.0,0.0,0.0,0.0,0.0,0.0,0.0,0.0,0.0,0.0,0.0,0.0,0.0,0.0,0.0,0.0,0.0,0.0,0.0,0.0,0.0,0.0,0.0,0.0,0.0,0.0,0.0,0.0,0.0,0.0,0.0,0.0,0.0,0.0,0.0,0.0,0.0,0.0,0.0,0.0,0.0,0.0,0.0,0.0,0.0,0.0,0.0,0.0,0.0,0.0,0.0,0.0,0.0,0.0,0.0,0.0,0.0,0.0,0.0,0.0,0.0,0.0,0.0,0.0,0.0,0.0,0.0,0.0,0.0,0.0,0.0,0.0,0.0,0.0,0.0,0.0,0.0,0.0,0.0,0.0,0.0,0.0,0.0,0.0,0.0,0.0,0.0,0.0,0.0,0.0,0.0,0.0,0.0,0.0,0.0,0.0,0.0,0.0,0.0,0.0,0.0,0.0,0.0,0.0,0.0,0.0,0.0,0.0,0.0,0.0,0.0,0.0,0.0,0.0,0.0,0.0,0.0,0.0,0.0,0.0,0.0,0.0,0.0,0.0,0.0,0.0,0.0,0.0,0.0,0.0,0.0,0.0,0.0,0.0,0.0,0.0,0.0,0.0,0.0,0.0,0.0,0.0,0.0,0.0,0.0,0.0,0.0,0.0,0.0,0.0,0.0,0.0,0.0,0.0,0.0,0.0,0.0,0.0,0.0,0.0,0.0,0.0,0.0,0.0,0.0,0.0,0.0,0.0,0.0,0.0,0.0,0.0,0.0,0.0,0.0,0.0,0.0,0.0,0.0,0.0,0.0,0.0,0.0,0.0,0.0,0.0,0.0,0.0,0.0,0.0,0.0,0.0,0.0,0.0,0.0,0.0,0.0,0.0,0.0,0.0,0.0,0.0,0.0,0.0,0.0,0.0,0.0,0.0,0.0,0.0,0.0,0.0,0.0,0.0,0.0,0.0,0.0,0.0,0.0,0.0,0.0,0.0,0.0,0.0,0.0,0.0,0.0,0.0,0.0,0.0,0.0,0.0,0.0,0.0,0.0,0.0,0.0,0.0,0.0,0.0,0.0,0.0,0.0,0.0,0.0,0.0,0.0,0.0,0.0,0.0,0.0,0.0,0.0,0.0,0.0,0.0,0.0,0.0,0.0,0.0,0.0,0.0,0.0,0.0,0.0,0.0,0.0,0.0,0.0,0.0,0.0,0.0,0.0,0.0,0.0,0.0,0.0,0.0,0.0,0.0,0.0,0.0,0.0,0.0,0.0,0.0,0.0,0.0,0.0,0.0,0.0,0.0,0.0,0.0,0.0,0.0,0.0,0.0,0.0,0.0,0.0,0.0,0.0,0.0,0.0,0.0,0.0,0.0,0.0,0.0,0.0,0.0,0.0,0.0,0.0,0.0,0.0,0.0,0.0,0.0,0.0,0.0,0.0,0.0,0.0,0.0,0.0,0.0,0.0,0.0,0.0,0.0,0.0,0.0,0.0,0.0,0.0,0.0,0.0,0.0,0.0,0.0,0.0,0.0,0.0,0.0,0.0,0.0,0.0,0.0,0.0,0.0,0.0,0.0,0.0,0.0,0.0,0.0,0.0,0.0,0.0,0.0,0.0,0.0,0.0,0.0,0.0,0.0,0.0,0.0,0.0,0.0,0.0,0.0,0.0,0.0,0.0,0.0,0.0,0.0,0.0,0.0,0.0,0.0,0.0,0.0,0.0,0.0,0.0,0.0,0.0,0.0,0.0,0.0,0.0,0.0,0.0,0.0,0.0,0.0,0.0,0.0,0.0,0.0,0.0,0.0,0.0,0.0,0.0,0.0,0.0,0.0,0.0,0.0,0.0,0.0,0.0,0.0,0.0,0.0,0.0,0.0,0.0,0.0,0.0,0.0,0.0,0.0,0.0,0.0,0.0,0.0,0.0,0.0,0.0,0.0,0.0,0.0,0.0,0.0,0.0,0.0,0.0,0.0,0.0,0.0,0.0,0.0,0.0,0.0,0.0,0.0,0.0,0.0,0.0,0.0,0.0,0.0,0.0,0.0,0.0,0.0,0.0,0.0,0.0,0.0,0.0,0.0,0.0,0.0,0.0,0.0,0.0,0.0,0.0,0.0,0.0,0.0,0.0,0.0,0.0,0.0,0.0,0.0,0.0,0.0,0.0,0.0,0.0,0.0,0.0,0.0,0.0,0.0,0.0,0.0,0.0,0.0,0.0,0.0,0.0,0.0,0.0,0.0,0.0,0.0,0.0,0.0,0.0,0.0,0.0,0.0,0.0,0.0,0.0,0.0,0.0,0.0,0.0,0.0,0.0,0.0,0.0,0.0,0.0,0.0,0.0,0.0,0.0,0.0,0.0,0.0,0.0,0.0,0.0,0.0,0.0,0.0,0.0,0.0,0.0,0.0,0.0,0.0,0.0,0.0,0.0,0.0,0.0,0.0,0.0,0.0,0.0,0.0,0.0,0.0,0.0,0.0,0.0,0.0,0.0,0.0,0.0,0.0,0.0,0.0,0.0,0.0,0.0,0.0,0.0,0.0,0.0,0.0,0.0,0.0,0.0,0.0,0.0,0.0,0.0,0.0,0.0,0.0,0.0,0.0,0.0,0.0,0.0,0.0,0.0,0.0,0.0,0.0,0.0,0.0,0.0,0.0,0.0,0.0,0.0,0.0,0.0,0.0,0.0,0.0,0.0,0.0,0.0,0.0,0.0,0.0,0.0,0.0,0.0,0.0,0.0,0.0,0.0,0.0,0.0,0.0,0.0,0.0,0.0,0.0,0.0,0.0,0.0,0.0,0.0,0.0,0.0,0.0,0.0,0.0,0.0,0.0,0.0,0.0,0.0,0.0,0.0,0.0,0.0,0.0,0.0,0.0,0.0,0.0,0.0,0.0,0.0,0.0,0.0,0.0,0.0,0.0,0.0,0.0,0.0,0.0,0.0,0.0,0.0,0.0,0.0,0.0,0.0,0.0,0.0,0.0,0.0,0.0,0.0,0.0,0.0,0.0,0.0,0.0,0.0,0.0,0.0,0.0,0.0,0.0,0.0,0.0,0.0,0.0,0.0,0.0,0.0,0.0,0.0,0.0,0.0,0.0,0.0,0.0,0.0,0.0,0.0,0.0,0.0,0.0,0.0,0.0,0.0,0.0,0.0,0.0,0.0,0.0,0.0,0.0,0.0,0.0,0.0,0.0,0.0,0.0,0.0,0.0,0.0,0.0,0.0,0.0,0.0,0.0,0.0,0.0,0.0,0.0,0.0,0.0,0.0,0.0,0.0,0.0,0.0,0.0,0.0,0.0,0.0,0.0,0.0,0.0,0.0,0.0,0.0,0.0,0.0,0.0,0.0,0.0,0.0,0.0,0.0,0.0,0.0,0.0,0.0,0.0,0.0,0.0,0.0,0.0,0.0,0.0,0.0,0.0,0.0,0.0,0.0,0.0,0.0,0.0,0.0,0.0,0.0,0.0,0.0,0.0,0.0,0.0,0.0,0.0,0.0,0.0,0.0,0.0,0.0,0.0,0.0,0.0,4.5095,0.0,0.0,0.0,0.0,0.0,0.0,0.0,0.0,0.0,0.0,0.0,0.0,0.0,0.0,0.0,0.0,0.0,0.0,0.0,0.0,0.0,0.0,0.0,0.0,0.0,0.0,0.0,0.0,0.0,0.0,0.0,0.0,0.0,0.0,0.0,0.0,0.0,0.0,0.0,3.2602,3.3729,3.5467,3.4086,3.2736,3.1478,0.0,0.0,0.0,0.0,0.0,0.0,0.0,0.0,0.0,0.0,0.0,0.0,0.0,0.0,0.0,0.0,0.0,0.0,0.0,0.0,0.0,0.0,0.0,0.0,0.0,0.0,0.0,0.0,0.0,0.0,0.0,0.0,0.0,0.0,0.0,0.0,0.0,0.0,0.0,0.0,0.0,0.0,0.0,0.0,0.0,0.0,0.0,0.0,0.0,0.0,0.0,0.0,0.0,0.0,0.0,0.0,0.0,0.0,0.0,0.0,0.0,0.0,0.0,0.0,0.0,0.0,0.0,0.0,0.0,0.0,0.0,4.6232,0.0,0.0,0.0,0.0,0.0,0.0,0.0,0.0,0.0,0.0,0.0,0.0,0.0,0.0,0.0,0.0,0.0,0.0,0.0,0.0,0.0,0.0,0.0,0.0,0.0,0.0,0.0,0.0,0.0,0.0,0.0,0.0,0.0,0.0,0.0,0.0,0.0,0.0,3.5547,3.68,3.7943,3.8033,3.6956,3.4801,3.3215,0.0,0.0,0.0,0.0,0.0,0.0,0.0,0.0,0.0,0.0,0.0,0.0,0.0,0.0,0.0,0.0,0.0,0.0,0.0,0.0,0.0,0.0,0.0,0.0,0.0,0.0,0.0,0.0,0.0,0.0,0.0,0.0,0.0,0.0,0.0,0.0,0.0,0.0,0.0,0.0,0.0,0.0,0.0,0.0,0.0,0.0,0.0,0.0,0.0,0.0,0.0,0.0,0.0,0.0,0.0,0.0,0.0,0.0,0.0,0.0,0.0,0.0,0.0,0.0,0.0,5.1577,5.1531,5.2139,5.3004,5.0441,4.9149,4.8879,0.0,0.0,0.0,0.0,0.0,0.0,0.0,0.0,0.0,0.0,0.0,0.0,0.0,0.0,0.0,0.0,0.0,0.0,0.0,0.0,0.0,0.0,0.0,0.0,0.0,0.0,0.0,0.0,0.0,0.0,0.0,0.0,0.0,0.0,3.5579,3.6291,3.8159,4.0317,4.095,4.0008,4.0606,4.0666,4.0247,3.7734,3.6297,0.0,0.0,0.0,0.0,0.0,0.0,0.0,0.0,0.0,0.0,0.0,0.0,0.0,0.0,0.0,0.0,0.0,0.0,0.0,0.0,0.0,0.0,0.0,0.0,0.0,0.0,0.0,0.0,0.0,0.0,0.0,0.0,0.0,0.0,0.0,0.0,0.0,0.0,0.0,0.0,0.0,0.0,4.6218,4.6024,0.0,0.0,0.0,0.0,0.0,0.0,0.0,0.0,0.0,0.0,0.0,0.0,0.0,0.0,5.2804,5.2821,5.2918,5.3101,5.3776,5.4052,5.3957,5.3722,5.3672,5.3854,5.3567,0.0,5.1501,5.141,0.0,0.0,0.0,0.0,0.0,0.0,0.0,0.0,0.0,0.0,0.0,0.0,0.0,0.0,0.0,0.0,0.0,0.0,0.0,0.0,0.0,0.0,0.0,0.0,0.0,0.0,0.0,0.0,0.0,0.0,0.0,3.8427,3.9223,3.9344,4.0135,4.1669,4.2153,4.268,4.315,4.3449,4.3569,4.3539,4.2372,4.0247,3.7524,3.6926,0.0,0.0,0.0,0.0,0.0,0.0,0.0,0.0,0.0,0.0,0.0,0.0,0.0,0.0,0.0,0.0,0.0,0.0,0.0,0.0,0.0,0.0,0.0,0.0,0.0,0.0,0.0,0.0,0.0,0.0,0.0,0.0,0.0,0.0,0.0,0.0,0.0,0.0,0.0,4.5092,4.6366,4.6577,4.7389,4.7734,0.0,0.0,0.0,0.0,0.0,0.0,0.0,0.0,0.0,5.4475,5.4539,5.5283,5.6913,5.6575,5.6778,5.7571,5.7566,5.7725,5.7969,5.7878,5.8053,5.8354,5.8074,5.7554,5.673,5.4036,5.2332,5.15,0.0,0.0,0.0,0.0,0.0,0.0,0.0,0.0,0.0,0.0,0.0,0.0,0.0,0.0,0.0,0.0,0.0,0.0,0.0,0.0,0.0,3.87,0.0,0.0,0.0,0.0,0.0,0.0,0.0,4.2219,4.2771,4.3005,4.3384,4.392,4.3559,4.4047,4.5304,4.5522,4.5522,4.5274,4.5341,4.3446,4.0127,3.9619,3.8906,0.0,0.0,0.0,0.0,0.0,0.0,0.0,0.0,0.0,0.0,0.0,0.0,0.0,0.0,0.0,0.0,0.0,0.0,0.0,0.0,0.0,0.0,0.0,0.0,0.0,0.0,0.0,0.0,0.0,0.0,0.0,0.0,0.0,0.0,0.0,0.0,0.0,0.0,4.7178,4.813,4.8757,5.001,5.0585,0.0,0.0,0.0,0.0,0.0,0.0,5.5876,5.5409,5.5995,5.793,5.7841,5.8632,6.0587,5.9849,6.001,6.1049,6.0574,6.0562,6.1049,6.0959,6.1251,6.1783,6.1141,6.0915,6.0785,5.698,5.51,5.4622,5.456,5.4342,0.0,5.4121,5.4422,5.497,0.0,0.0,0.0,0.0,0.0,0.0,0.0,0.0,0.0,0.0,0.0,0.0,0.0,0.0,4.0248,4.0967,4.1136,4.0899,0.0,0.0,0.0,4.4356,4.4482,4.5149,4.6575,4.6095,4.529,4.4251,4.5514,4.5843,4.5346,4.6173,4.6062,4.5316,4.5501,4.5361,4.4825,4.298,4.2171,4.1811,0.0,0.0,0.0,0.0,0.0,0.0,0.0,0.0,0.0,0.0,0.0,0.0,0.0,0.0,0.0,0.0,0.0,0.0,0.0,0.0,0.0,0.0,0.0,0.0,0.0,0.0,0.0,0.0,0.0,0.0,0.0,0.0,0.0,0.0,0.0,0.0,0.0,0.0,0.0,5.4787,5.5699,0.0,0.0,0.0,0.0,5.6002,5.6034,5.6905,5.898,5.879,5.996,6.2732,6.217,6.217,6.2997,6.2101,6.1685,6.175,6.1718,6.1718,6.175,6.1491,6.1523,6.1737,6.123,6.1276,6.1685,6.0818,5.9907,5.9073,5.8732,5.8044,5.7277,5.7187,5.7198,5.737,0.0,0.0,0.0,0.0,0.0,0.0,0.0,0.0,0.0,0.0,0.0,0.0,0.0,4.1779,4.3295,4.4045,4.4959,4.5196,4.4451,0.0,0.0,4.6041,4.7328,4.8154,4.8461,4.8096,4.7951,4.7951,4.7911,4.8022,4.8208,4.8528,4.8208,4.7424,4.7534,4.726,4.6569,4.4048,4.3,4.2851,4.1235,4.0337,0.0,0.0,0.0,0.0,0.0,0.0,0.0,0.0,0.0,0.0,0.0,0.0,0.0,0.0,0.0,0.0,0.0,0.0,0.0,0.0,0.0,0.0,0.0,0.0,0.0,0.0,0.0,0.0,0.0,0.0,0.0,0.0,0.0,0.0,0.0,0.0,0.0,5.418,5.6507,0.0,0.0,5.7985,5.8887,5.9317,5.9769,6.0769,6.2607,6.2049,6.2416,6.4019,6.3859,6.406,6.4799,6.447,6.4533,6.5,6.5467,6.5744,6.5744,6.6157,6.639,6.6512,6.6302,6.6346,6.6479,6.6212,6.4079,6.0902,6.0798,6.0421,5.9931,5.9924,5.9737,5.9645,0.0,0.0,0.0,0.0,0.0,0.0,0.0,0.0,0.0,0.0,0.0,4.0764,4.2523,4.4282,4.5635,4.638,4.7331,4.7597,4.6853,0.0,0.0,4.797,4.9736,5.0391,4.9723,4.9826,5.0001,5.0332,5.0023,5.0224,5.0928,5.0946,5.0698,5.0113,4.9979,4.9323,4.8168,4.6085,4.4734,4.3965,4.3058,4.2432,4.1893,0.0,0.0,0.0,0.0,0.0,0.0,0.0,0.0,0.0,0.0,0.0,0.0,0.0,0.0,0.0,0.0,0.0,0.0,0.0,0.0,0.0,0.0,0.0,0.0,0.0,0.0,0.0,0.0,0.0,0.0,0.0,0.0,0.0,0.0,0.0,5.6287,5.5979,5.8428,5.9895,5.9177,6.0638,6.1812,6.2264,6.2682,6.3567,6.4877,6.438,6.4573,6.5696,6.5967,6.6339,6.6846,6.7083,6.732,6.759,6.8064,6.8301,6.8335,6.8876,6.9113,6.9113,6.9113,6.9113,6.9113,6.9113,6.7211,6.4198,6.3576,6.3191,6.2923,6.2365,6.2007,6.1822,0.0,0.0,0.0,0.0,0.0,0.0,0.0,0.0,0.0,0.0,4.0967,4.32,4.55,4.6413,4.7158,4.7872,4.7939,4.7665,4.6921,4.8274,0.0,5.0168,5.1555,5.1731,5.0582,5.1303,5.1464,5.1,5.1738,5.2445,5.3162,5.3294,5.3246,5.3089,5.2591,5.1443,4.9891,4.9202,4.7666,4.5495,4.3995,4.3399,4.321,0.0,0.0,0.0,0.0,0.0,0.0,0.0,0.0,0.0,0.0,0.0,0.0,0.0,0.0,0.0,0.0,0.0,0.0,0.0,0.0,0.0,0.0,0.0,0.0,0.0,0.0,0.0,0.0,0.0,0.0,0.0,0.0,0.0,5.8084,5.7983,5.8754,6.0757,6.1857,6.2944,6.4158,6.4491,6.4647,6.4647,6.4681,6.5019,6.573,6.5764,6.644,6.7895,6.8707,6.9113,6.9147,6.9823,6.9857,6.918,6.918,6.9214,6.9214,6.9214,6.9248,6.9248,6.9248,6.9248,6.9248,6.9248,6.9248,6.9059,6.719,6.6498,6.6217,6.4542,6.3909,6.3862,0.0,0.0,0.0,0.0,0.0,0.0,0.0,0.0,0.0,0.0,4.2083,4.3978,4.6244,4.7631,4.8477,4.868,4.9187,4.9187,4.8443,0.0,5.2267,5.237,5.2102,5.2033,5.2222,5.2669,5.3177,5.3752,5.3798,5.3918,5.4115,5.4147,5.3842,5.3229,5.3165,5.2235,5.0735,5.0032,4.9084,4.7924,4.641,4.5479,4.4869,0.0,0.0,0.0,0.0,0.0,0.0,0.0,0.0,0.0,0.0,0.0,0.0,0.0,0.0,0.0,0.0,0.0,0.0,0.0,0.0,0.0,0.0,0.0,0.0,0.0,0.0,0.0,0.0,0.0,0.0,0.0,0.0,6.0994,5.9674,6.0452,6.1569,6.2674,6.3491,6.414,6.4464,6.5046,6.5392,6.5392,6.6373,6.7083,6.7286,6.7861,6.8335,6.8774,6.8977,6.935,6.9891,7.0094,7.0364,7.0703,7.1244,7.1481,7.1515,7.2056,7.2293,7.2293,7.2293,7.2293,7.2293,7.2293,7.2293,7.2056,6.9389,6.7915,6.7181,6.6753,6.6064,6.5415,0.0,0.0,0.0,0.0,0.0,0.0,0.0,0.0,0.0,0.0,4.3166,4.4891,4.7428,4.8477,4.912,4.9424,4.956,4.9729,4.9932,0.0,5.2977,5.2842,5.2943,5.3144,5.3477,5.4269,5.5025,5.5721,5.5908,5.6293,5.6812,5.6183,5.582,5.5627,5.5033,5.41,5.2926,5.2249,5.1365,5.0314,4.9167,4.7808,4.643,4.643,4.5758,4.478,4.491,4.4488,4.3864,4.391,0.0,0.0,0.0,0.0,0.0,0.0,0.0,0.0,0.0,0.0,0.0,0.0,0.0,0.0,0.0,0.0,0.0,0.0,0.0,0.0,0.0,0.0,0.0,0.0,6.2618,6.3125,6.2516,6.2956,6.3599,6.4343,6.4783,6.529,6.5933,6.6373,6.6745,6.7083,6.7929,6.8402,6.8402,6.8842,6.9383,6.9992,7.0331,7.0838,7.1548,7.1887,7.209,7.2225,7.2665,7.2868,7.2868,7.3274,7.3477,0.0,7.3477,7.3477,7.3477,7.3477,7.3477,0.0,0.0,0.0,0.0,0.0,6.8765,6.8187,0.0,0.0,0.0,0.0,0.0,0.0,0.0,0.0,0.0,0.0,0.0,4.5732,4.868,4.9018,4.9289,5.0033,4.9492,4.9763,0.0,5.1961,5.2367,5.2536,5.3856,5.4564,5.4594,5.5869,5.6761,5.7158,5.7853,5.88,5.986,5.8535,5.827,5.8833,5.758,5.6481,5.5648,5.5057,5.3967,5.2572,5.181,5.0033,4.7832,4.7927,4.751,4.6808,4.6312,4.6126,4.6135,4.6207,0.0,0.0,0.0,0.0,0.0,0.0,0.0,0.0,0.0,0.0,0.0,0.0,0.0,0.0,0.0,0.0,0.0,0.0,0.0,0.0,0.0,0.0,0.0,0.0,6.3869,6.5053,6.5933,6.5425,6.5222,6.5865,6.5933,6.6474,6.7895,6.803,6.8368,6.9147,6.9316,6.9383,6.9485,0.0,0.0,0.0,0.0,7.2902,7.3713,7.439,7.4492,7.3984,7.3984,7.3984,7.3984,7.3984,7.3984,7.3984,7.3984,7.3984,7.3984,7.3984,7.3984,7.3883,7.2902,7.2529,7.2428,7.1785,7.1548,0.0,0.0,0.0,0.0,0.0,0.0,0.0,0.0,0.0,0.0,4.3904,4.4513,4.5732,4.868,4.9018,4.9289,5.0033,4.9965,5.0507,5.1995,5.2232,5.2841,5.4093,5.4293,5.4967,5.6288,5.6694,5.7306,5.8117,5.854,5.8873,5.9098,5.8833,5.8767,5.8866,5.8761,5.7897,5.6481,5.6507,5.5572,5.403,5.3301,5.131,4.8816,4.936,4.8728,4.7593,4.8004,4.7814,4.7452,4.8079,4.7942,4.7632,4.8418,0.0,0.0,0.0,0.0,0.0,0.0,0.0,0.0,0.0,0.0,0.0,0.0,0.0,0.0,0.0,0.0,0.0,0.0,0.0,0.0,6.4952,6.529,6.617,6.8166,6.776,6.732,6.7455,6.7455,6.7827,6.8774,6.8876,6.918,6.9925,7.0534,7.1142,7.1718,7.2326,0.0,7.3071,7.3206,7.3916,7.527,7.5405,7.6048,7.713,0.0,0.0,7.713,7.713,7.713,7.713,7.713,7.713,7.713,7.713,7.713,7.686,7.4289,7.3274,7.324,7.3105,7.3071,7.3071,0.0,0.0,0.0,0.0,0.0,0.0,0.0,0.0,0.0,0.0,4.4012,4.4993,4.7597,4.824,4.8917,4.9999,5.115,5.1928,5.2266,5.2672,5.3416,5.4532,5.4834,5.5577,5.6765,5.7476,5.8227,5.8964,5.9504,5.9911,6.0122,5.9757,5.979,6.0122,5.9392,5.8827,5.8435,5.7415,5.6549,5.5638,5.4253,5.2774,5.1287,5.0815,5.0167,4.9552,4.9872,5.0001,5.0107,5.054,5.0418,5.0295,5.1148,5.0852,5.0288,0.0,0.0,0.0,0.0,0.0,0.0,0.0,0.0,0.0,0.0,0.0,0.0,0.0,0.0,6.3599,0.0,0.0,6.5392,6.6136,6.6542,6.732,6.8876,6.8741,6.8639,6.9011,6.8741,6.8944,7.0094,7.0195,7.0669,7.1751,7.2191,7.2563,7.2935,7.3274,7.3646,7.4052,7.4052,7.4762,7.6284,7.6284,7.686,7.7976,7.7976,7.7976,7.7976,7.7976,7.7976,7.7976,7.7976,7.7976,7.7976,7.7976,7.7976,7.7841,7.6318,7.5743,7.5743,7.5743,7.5743,7.5743,0.0,0.0,0.0,0.0,0.0,0.0,0.0,0.0,0.0,0.0,4.3375,4.4282,4.6549,4.7462,4.8443,0.0,5.2097,5.3112,5.2164,5.2976,5.389,5.4769,5.5378,5.6122,5.7002,5.8137,5.8954,5.9572,6.0196,6.0812,6.1383,6.0743,6.0776,6.1309,5.999,5.9764,6.0191,5.8336,5.7435,5.7096,5.5043,5.4138,5.3792,5.2186,5.1519,5.142,5.142,5.1885,5.248,5.248,5.2715,5.3047,5.3723,5.3487,5.3017,5.3601,5.3868,0.0,0.0,0.0,0.0,0.0,0.0,0.0,0.0,0.0,6.1535,6.3531,6.4512,6.5087,6.5222,6.573,6.6373,6.7117,6.7861,6.8673,6.962,6.9755,7.006,7.0939,7.0161,7.0128,7.1582,7.1751,7.2293,7.3612,7.3713,7.3781,7.3916,7.4052,7.4424,7.5033,7.5202,7.5946,7.7299,7.7333,7.7705,7.8416,7.8416,7.8416,7.8416,7.8551,7.8619,7.8619,7.8788,7.8855,7.8855,7.8855,7.8855,7.8855,7.8855,7.8855,7.8788,7.8179,7.7976,7.7976,0.0,0.0,0.0,0.0,0.0,0.0,0.0,0.0,0.0,0.0,0.0,0.0,0.0,0.0,0.0,4.9052,5.1826,5.2875,5.142,5.2706,5.4126,5.5547,5.5683,5.6359,5.7746,5.8407,5.9031,5.9766,6.0151,6.0684,6.1383,6.1111,6.1061,6.1127,6.1298,6.0979,6.0258,5.975,5.9017,5.8055,5.5883,5.4979,5.4776,5.3268,5.2299,5.1764,5.1764,5.2198,5.2834,5.2834,5.3703,5.4807,5.491,5.4876,5.4575,5.3337,0.0,5.4678,5.348,0.0,0.0,5.9336,5.9776,6.0317,0.0,0.0,6.4343,6.5256,6.6034,6.6745,6.7421,6.759,6.7895,6.8707,6.9451,7.0432,7.1819,7.2022,7.2563,7.395,7.2326,7.165,7.3105,7.324,7.3578,7.4424,7.4492,7.4762,7.5405,7.6115,7.6555,7.6657,7.7266,7.801,7.8855,7.8855,7.9228,7.9938,7.9938,7.9938,7.9972,8.0615,8.0919,8.0953,8.1629,8.1934,8.1934,8.1934,8.1934,8.1934,8.1934,8.1934,8.1596,7.8957,7.7976,7.7976,0.0,0.0,0.0,0.0,0.0,0.0,0.0,0.0,0.0,0.0,0.0,0.0,0.0,0.0,0.0,4.9526,5.1589,5.2536,5.1894,5.2875,5.3991,5.5006,5.548,5.619,5.7239,5.8238,5.8867,5.917,5.975,6.0409,6.1113,6.1033,6.1187,6.1588,6.1234,6.0912,6.0583,5.9127,5.8291,5.7745,5.5636,5.4725,5.4587,5.4087,5.3719,5.3347,5.2671,5.2903,0.0,0.0,5.3941,5.458,5.5089,5.5791,5.6121,5.4893,5.6104,0.0,5.7904,0.0,0.0,0.0,6.2076,6.255,6.4377,6.4681,6.4918,6.6102,6.6948,6.7523,6.7827,6.8267,6.8977,0.0,7.0635,7.1345,7.2834,7.3037,7.3443,7.4492,7.3781,7.3477,7.4086,7.4153,7.4627,7.5845,7.5946,7.6251,7.6995,7.7333,7.7536,7.7536,7.8247,7.8991,7.9735,8.0175,8.075,8.1494,8.1494,8.1494,8.1494,8.1799,8.1934,8.1934,8.1799,8.1765,8.1731,8.1291,8.1359,8.1765,8.1765,8.2035,8.2205,8.0513,7.9904,7.9837,0.0,0.0,0.0,0.0,0.0,0.0,0.0,0.0,0.0,0.0,0.0,0.0,0.0,0.0,4.8274,4.912,5.0913,5.1928,5.1725,5.2604,5.3585,5.4566,5.5108,5.5852,5.6799,5.7701,5.8369,5.8774,5.9271,5.9871,6.0617,6.0539,6.0802,6.1272,6.0656,6.036,6.0179,5.8433,5.756,5.7226,5.5377,5.4633,5.4662,5.4633,5.4837,5.5073,5.4019,5.4151,0.0,0.0,5.5091,5.5261,5.6345,5.7184,5.7614,5.6826,5.8143,6.016,6.153,0.0,0.0,6.3497,6.3971,6.4377,6.5459,6.5425,6.5561,6.6846,6.7523,6.803,6.847,6.918,7.0128,7.1413,7.1954,7.2665,7.3916,7.4289,7.4796,7.5743,7.5676,7.5608,7.5845,7.5473,7.5777,7.7096,7.7198,7.7435,7.7942,7.8179,7.8382,7.8585,7.9329,8.0073,8.0784,8.1325,8.1866,8.2408,8.2408,8.2306,8.2103,8.2103,8.2205,8.2374,8.1832,8.1596,8.1562,8.1021,8.1122,8.1596,8.1596,8.1934,8.2306,8.1562,8.1426,8.1528,0.0,0.0,0.0,0.0,0.0,0.0,0.0,0.0,0.0,0.0,0.0,0.0,0.0,0.0,4.7631,4.6955,4.956,5.0947,5.0202,5.1522,5.301,5.4532,5.46,5.531,5.6765,5.6867,5.7577,5.8994,5.8807,5.9136,5.9838,5.9644,5.9566,5.96,5.9761,5.9434,5.8732,5.8146,5.7476,5.6697,5.5209,5.504,5.558,5.4871,5.548,5.663,5.5884,0.0,0.0,0.0,5.778,5.8051,5.9505,5.9468,0.0,5.8893,5.9471,0.0,0.0,0.0,6.3632,6.4377,6.5087,6.5628,6.5662,6.6237,6.6948,6.7726,6.7895,6.8368,6.9823,7.0737,7.1481,7.2225,7.3578,7.4796,7.554,7.6284,7.7333,7.8788,7.8314,7.8179,0.0,7.7671,7.713,7.7908,7.7942,7.7976,7.7976,7.8686,7.9397,8.0107,8.0851,8.1596,8.234,8.2374,8.2408,8.2408,8.2408,8.2035,8.1325,8.1325,8.1731,8.2408,8.2374,8.2374,8.2374,8.234,8.2374,8.2374,8.2374,8.2408,8.2306,8.1562,8.1731,8.2374,0.0,0.0,0.0,0.0,0.0,0.0,0.0,0.0,0.0,0.0,0.0,0.0,0.0,0.0,0.0,0.0,4.8173,4.9089,4.9357,5.0744,5.2029,5.301,5.4059,5.4837,5.531,5.6292,5.7036,5.7543,5.7944,5.8548,5.9291,5.9216,5.9178,5.9178,5.9254,5.8852,5.8076,5.6932,5.6596,5.6664,5.5175,5.504,5.575,5.5987,5.6359,5.69,0.0,0.0,0.0,0.0,0.0,0.0,5.9776,0.0,6.1434,6.2448,6.255,6.2651,6.3903,6.458,6.5019,6.5256,6.5865,6.6576,6.7049,6.7354,6.776,6.8538,6.9485,7.0331,7.0838,7.2326,7.3578,7.3815,7.4695,7.5608,7.6386,7.713,7.801,7.8991,7.8889,0.0,0.0,0.0,0.0,7.8686,7.872,7.8957,7.9431,8.0141,8.0648,8.0919,8.2103,8.2881,8.3118,8.3625,8.3625,8.3118,8.2644,8.2272,8.2035,8.2035,8.2171,8.2374,8.1866,8.1663,8.1629,8.1156,8.1224,8.1663,8.1663,8.1968,8.2374,8.2137,8.2205,8.2272,0.0,0.0,0.0,0.0,0.0,0.0,0.0,0.0,0.0,0.0,0.0,0.0,0.0,0.0,0.0,0.0,0.0,4.7733,4.8173,4.9593,5.0744,5.1488,5.2976,5.3788,5.3788,5.5006,5.5615,5.5615,5.6359,5.7103,5.7848,5.8118,5.8355,5.8626,5.8626,5.8186,5.7442,5.6494,5.6664,5.7408,5.5412,5.5513,5.6831,5.6528,5.6562,0.0,0.0,0.0,0.0,0.0,0.0,0.0,0.0,0.0,6.3091,6.4546,6.485,6.485,6.5595,6.6339,6.6914,6.6914,6.7455,6.8132,6.8605,6.8944,6.935,7.0128,7.1041,7.1785,7.2056,7.368,7.4931,7.4661,7.5676,7.669,7.7198,7.8145,7.916,8.0175,8.0513,8.0851,0.0,0.0,0.0,7.9532,7.9498,7.9803,8.0547,8.1021,8.1528,8.2069,8.3016,8.349,8.349,8.3964,8.3862,8.3084,8.2374,8.2002,8.2002,8.1731,8.1629,8.1596,8.1122,8.0885,8.0851,8.0412,8.0479,8.0885,8.0885,8.119,8.1629,8.1629,8.1629,8.1562,0.0,0.0,0.0,0.0,0.0,0.0,0.0,0.0,0.0,0.0,0.0,0.0,0.0,0.0,0.0,0.0,0.0,0.0,4.6718,4.8071,4.9221,4.9965,5.1386,5.2198,5.2198,5.301,5.345,5.345,5.416,5.4905,5.5615,5.6292,5.7002,5.7645,5.7645,5.7273,5.663,5.663,5.7476,5.8558,5.5716,5.6292,5.8626,5.6461,0.0,0.0,0.0,0.0,0.0,6.1501,6.1332,6.0554,6.2854,6.3565,6.3869,6.5324,6.6237,6.6981,6.7692,6.847,6.9045,6.9147,6.9722,7.0263,7.0331,7.0939,7.1684,7.2326,7.2529,7.2766,0.0,0.0,7.5574,7.4864,7.6555,7.7976,7.7976,7.9228,8.0682,0.0,0.0,0.0,0.0,0.0,0.0,8.0479,0.0,8.0615,8.1291,8.1393,8.2035,8.3456,8.3524,8.3524,8.349,8.3422,8.305,8.234,8.1596,8.1224,8.119,8.0547,8.0242,8.0242,8.031,8.031,8.031,8.0276,8.0242,8.0242,8.0209,8.0209,8.0209,8.0209,8.0209,8.0412,0.0,0.0,0.0,0.0,0.0,0.0,0.0,0.0,0.0,0.0,0.0,0.0,0.0,0.0,0.0,0.0,0.0,0.0,4.594,4.6853,4.7699,4.8443,4.9864,5.0642,5.0642,5.1928,5.2604,5.2604,5.3382,5.389,5.4059,5.4262,5.4431,5.4634,5.4634,5.4532,5.4329,5.4329,5.4871,5.5649,0.0,5.5378,5.6427,0.0,0.0,0.0,0.0,0.0,5.7712,5.9945,6.0825,6.14,6.3632,6.4343,6.4613,6.6102,6.6677,6.6981,6.7692,6.8064,6.847,6.962,7.0466,7.1312,7.2394,7.324,7.368,7.3274,7.4086,7.4762,0.0,0.0,0.0,7.642,7.7266,0.0,7.7976,7.8788,0.0,8.1393,0.0,8.2678,8.2678,8.2678,0.0,0.0,8.1832,8.1934,8.2103,8.2644,8.3118,8.349,8.4031,8.4065,8.349,8.2408,8.1765,8.1562,8.0818,8.0479,8.0479,8.0851,8.1021,8.1054,8.1596,8.1832,8.1799,8.1257,8.1021,8.0953,8.0412,8.0209,8.0209,8.0209,8.0209,8.0242,0.0,0.0,0.0,0.0,0.0,0.0,0.0,0.0,0.0,0.0,0.0,0.0,0.0,0.0,0.0,0.0,0.0,0.0,0.0,4.5906,4.6515,4.6921,4.8342,4.8984,4.8646,5.0405,5.1183,5.0845,5.2266,5.2976,5.2976,5.3653,5.3991,5.3991,5.3991,5.3991,5.3991,5.3991,0.0,0.0,0.0,0.0,0.0,0.0,0.0,0.0,5.5581,5.6461,5.7577,5.9471,6.1061,6.255,6.4106,6.4613,6.4884,6.6373,6.7286,6.7895,6.8301,6.9147,7.0094,7.0939,7.1954,7.2902,7.3375,7.4052,7.4492,7.4052,7.4627,7.5202,7.51,7.669,7.7739,0.0,0.0,0.0,7.8517,7.9397,8.0378,0.0,8.2509,0.0,8.2915,8.349,8.3761,0.0,8.278,8.2543,8.2881,8.3287,8.3659,8.3964,8.4065,8.3625,8.2543,8.1393,8.0818,8.0784,8.0412,8.0209,8.0209,8.0615,8.0987,8.1291,0.0,8.2103,8.2374,8.1968,8.1596,8.1257,8.0818,8.0479,8.0209,8.0209,8.0209,8.0209,0.0,0.0,0.0,0.0,0.0,0.0,0.0,0.0,0.0,0.0,0.0,0.0,0.0,0.0,0.0,0.0,0.0,0.0,0.0,0.0,4.5568,4.5568,4.6887,4.7327,4.665,4.8612,4.9357,4.8714,5.0642,5.1589,5.1589,5.2942,5.3619,5.3721,5.3721,5.3754,5.3856,0.0,0.0,0.0,0.0,0.0,0.0,0.0,0.0,0.0,5.4194,5.5919,5.8084,5.937,6.1332,6.3396,6.441,6.4681,6.4884,6.6373,6.7827,6.8977,6.9079,7.0635,7.2293,7.2496,7.3646,7.4593,7.3916,7.4458,7.4965,7.4661,7.4762,7.5033,7.5473,7.6792,7.7638,7.6995,7.8585,7.9769,7.9329,8.0242,8.1054,8.1257,8.3084,8.4065,8.3422,8.4742,8.5351,8.4674,8.3422,8.2983,8.3625,8.3659,8.3896,8.4471,8.3659,8.2577,8.1291,8.0547,8.0209,8.0209,8.0209,8.0209,8.0209,8.0412,8.0818,8.146,0.0,0.0,8.2543,8.2441,8.1968,8.1257,8.119,8.075,8.0209,8.0209,8.0209,8.0209,0.0,0.0,0.0,0.0,0.0,0.0,0.0,0.0,0.0,0.0,0.0,0.0,0.0,0.0,0.0,0.0,0.0,0.0,0.0,0.0,0.0,4.4818,4.5635,4.6041,4.5906,4.6853,4.7293,4.7192,4.7564,4.7733,4.7767,4.8037,4.8477,4.9086,4.9086,4.9424,5.0067,5.1285,0.0,0.0,0.0,0.0,0.0,0.0,0.0,0.0,5.3416,5.5513,5.7915,5.8186,5.981,6.2144,6.4681,6.5087,6.4884,6.6373,6.7421,6.8267,6.891,7.0263,7.1785,7.3003,7.4424,7.5473,7.5337,7.6386,7.686,7.4999,7.5608,7.6149,7.4999,7.6048,7.7063,7.6927,7.7739,7.8754,7.987,7.9701,7.9938,0.0,8.2171,8.2746,8.2611,0.0,0.0,0.0,0.0,0.0,8.4403,8.4437,8.42,8.3693,8.2374,8.1528,8.1291,8.0547,8.0209,8.0209,8.0209,8.0209,8.0242,8.146,8.2103,8.2272,0.0,0.0,8.3253,8.2644,8.1968,8.1224,8.0615,8.031,8.0209,8.0209,8.0209,8.0209,0.0,0.0,0.0,0.0,0.0,0.0,0.0,0.0,0.0,0.0,0.0,0.0,0.0,0.0,0.0,0.0,0.0,0.0,0.0,0.0,0.0,0.0,0.0,0.0,4.5128,4.621,0.0,0.0,0.0,0.0,0.0,0.0,0.0,0.0,0.0,0.0,0.0,0.0,0.0,0.0,0.0,0.0,0.0,0.0,0.0,0.0,0.0,5.5141,5.7442,5.822,5.9979,6.2245,6.4444,6.5155,6.5459,6.6948,6.7929,6.8707,6.9451,7.0737,7.2124,7.3206,7.4322,7.5033,7.4627,7.5405,7.5811,7.4322,7.4931,7.5473,7.4762,7.5879,7.6758,7.6352,7.757,7.8957,8.004,7.9904,8.0073,8.1156,8.1934,8.2408,0.0,0.0,0.0,0.0,0.0,0.0,8.4065,8.3693,8.3287,8.2949,8.1866,8.1291,8.1291,8.0547,8.0209,8.0209,8.0209,8.0209,8.0242,8.1325,8.2035,8.2441,0.0,0.0,8.3456,8.3118,8.2306,8.1291,8.1325,8.0885,8.0209,8.0209,8.0209,8.0209,0.0,0.0,0.0,0.0,0.0,0.0,0.0,0.0,0.0,0.0,0.0,0.0,0.0,0.0,0.0,0.0,0.0,0.0,0.0,0.0,0.0,0.0,0.0,0.0,0.0,0.0,0.0,0.0,0.0,0.0,0.0,0.0,0.0,0.0,0.0,0.0,0.0,0.0,0.0,0.0,0.0,0.0,0.0,0.0,0.0,0.0,0.0,5.4735,5.6562,5.8051,6.0047,6.2178,6.3835,6.5087,6.617,6.7523,6.8571,6.9451,7.0026,7.1278,7.2529,7.3105,7.395,7.439,7.3477,7.395,7.4356,7.3443,7.3849,7.4322,7.4153,7.5371,7.6217,7.5574,7.7367,7.9194,8.0073,8.0209,8.0479,8.119,8.1934,0.0,8.2408,0.0,0.0,0.0,0.0,0.0,0.0,8.2881,8.2408,8.2408,8.1663,8.1291,8.1291,8.0716,8.0513,8.0682,8.0344,8.0276,8.0445,8.119,8.1832,8.2408,0.0,0.0,0.0,8.3084,8.2238,8.1122,8.1697,8.1224,8.0209,8.0209,8.0209,8.0209,0.0,0.0,0.0,0.0,0.0,0.0,0.0,0.0,0.0,0.0,0.0,0.0,0.0,0.0,0.0,0.0,0.0,0.0,0.0,0.0,0.0,0.0,0.0,0.0,0.0,0.0,0.0,0.0,0.0,0.0,0.0,0.0,0.0,0.0,0.0,0.0,0.0,0.0,0.0,0.0,0.0,0.0,0.0,0.0,0.0,0.0,0.0,5.4059,5.5006,5.6494,5.849,6.0689,6.2922,6.5053,6.688,6.7658,6.8944,7.0094,7.0161,7.1278,7.2428,7.2496,7.3578,7.4255,7.2834,7.3612,7.4221,7.28,7.3071,7.3375,7.2732,7.3815,7.4796,7.4728,7.6623,7.8585,8.0006,8.0209,8.0479,8.119,0.0,0.0,8.2408,0.0,0.0,0.0,0.0,0.0,0.0,8.3186,8.2408,8.2408,8.1663,8.1291,8.1291,8.1224,8.1528,8.2205,8.0851,8.0547,8.119,8.1968,8.234,8.2441,0.0,0.0,0.0,8.1765,8.1021,8.031,8.0378,8.031,8.0209,8.0209,8.0209,8.0209,0.0,0.0,0.0,0.0,0.0,0.0,0.0,0.0,0.0,0.0,0.0,0.0,0.0,0.0,0.0,0.0,0.0,0.0,0.0,0.0,0.0,0.0,0.0,0.0,0.0,0.0,0.0,0.0,0.0,0.0,0.0,0.0,0.0,0.0,0.0,0.0,0.0,0.0,0.0,0.0,0.0,0.0,0.0,0.0,0.0,0.0,0.0,0.0,5.4803,5.6292,5.7983,5.9844,6.211,6.4343,6.6474,6.8132,6.9045,6.9722,7.0635,7.1278,7.1853,7.2293,7.2529,7.2597,7.2428,7.2868,7.3105,7.2529,7.2969,7.3274,7.2529,7.3612,7.4458,7.4018,7.6217,7.8348,7.9397,8.031,8.0953,8.1257,8.234,0.0,0.0,0.0,0.0,0.0,0.0,0.0,0.0,8.3219,8.2611,8.305,8.234,8.1968,8.1968,8.1494,8.1224,8.1088,8.0479,8.0581,8.1325,8.2069,8.2644,0.0,0.0,0.0,0.0,8.2272,8.1528,8.0851,8.0851,8.0581,8.0209,8.0209,8.0209,8.0209,0.0,0.0,0.0,0.0,0.0,0.0,0.0,0.0,0.0,0.0,0.0,0.0,0.0,0.0,0.0,0.0,0.0,0.0,0.0,0.0,0.0,0.0,0.0,0.0,0.0,0.0,0.0,0.0,0.0,0.0,0.0,0.0,0.0,0.0,0.0,0.0,0.0,0.0,0.0,0.0,0.0,0.0,0.0,0.0,0.0,0.0,0.0,0.0,0.0,0.0,0.0,5.9066,6.1366,6.3429,6.5493,6.776,6.891,6.9654,7.0703,7.1142,7.1481,7.2225,7.2022,7.1751,7.2293,7.2394,7.2326,7.2124,7.2496,7.2631,7.1887,7.2969,7.3781,7.324,7.5506,7.7638,7.8653,8.004,8.1122,8.1562,0.0,8.3389,0.0,0.0,0.0,0.0,0.0,0.0,0.0,8.3625,8.3186,8.349,8.3016,8.2746,8.2746,8.2205,8.1799,8.1494,8.1054,8.1224,8.1968,8.2475,8.3016,0.0,0.0,0.0,0.0,8.2611,8.1968,8.1291,8.1528,8.1156,8.0513,8.0513,8.0378,8.0209,0.0,0.0,0.0,0.0,0.0,0.0,0.0,0.0,0.0,0.0,0.0,0.0,0.0,0.0,0.0,0.0,0.0,0.0,0.0,0.0,0.0,0.0,0.0,0.0,0.0,0.0,0.0,0.0,0.0,0.0,0.0,0.0,0.0,0.0,0.0,0.0,0.0,0.0,0.0,0.0,0.0,0.0,0.0,0.0,0.0,0.0,0.0,0.0,0.0,0.0,0.0,0.0,0.0,6.2347,6.3971,6.617,6.8436,7.0195,7.0195,7.0737,7.1481,7.2225,7.2394,7.2394,7.2394,7.2394,7.2191,7.1481,7.1345,7.1109,7.0364,7.1413,7.2428,7.2428,7.4255,7.6251,7.7773,7.9261,8.075,8.2238,0.0,8.3795,0.0,0.0,0.0,0.0,0.0,0.0,0.0,0.0,8.4268,8.3524,8.349,8.349,8.349,8.349,8.3862,8.4573,8.3084,8.278,8.349,8.349,0.0,0.0,0.0,0.0,0.0,8.2408,8.1968,8.1359,8.2103,8.1934,8.1257,8.1257,8.0818,8.0209,0.0,0.0,0.0,0.0,0.0,0.0,0.0,0.0,0.0,0.0,0.0,0.0,0.0,0.0,0.0,0.0,0.0,0.0,0.0,0.0,0.0,0.0,0.0,0.0,0.0,0.0,0.0,0.0,0.0,0.0,0.0,0.0,0.0,0.0,0.0,0.0,0.0,0.0,0.0,0.0,0.0,0.0,0.0,0.0,0.0,0.0,0.0,0.0,0.0,0.0,0.0,0.0,0.0,0.0,0.0,6.4816,6.6542,6.8233,6.9755,7.0364,7.0737,7.1481,7.1278,7.1041,7.1548,7.1244,7.0973,7.1244,7.1312,7.1075,7.0331,7.1819,7.2969,7.2462,7.5134,7.7435,7.7908,7.9701,8.0919,8.0885,8.2002,8.3253,0.0,0.0,0.0,0.0,0.0,0.0,0.0,0.0,8.4505,8.4268,8.4268,8.4031,8.349,8.349,8.3355,8.3118,8.2644,8.278,8.349,0.0,0.0,0.0,0.0,0.0,0.0,8.3355,8.2712,8.2035,8.1731,8.1494,8.1291,8.1291,8.1122,8.0953,0.0,0.0,0.0,0.0,0.0,0.0,0.0,0.0,0.0,0.0,0.0,0.0,0.0,0.0,0.0,0.0,0.0,0.0,0.0,0.0,0.0,0.0,0.0,0.0,0.0,0.0,0.0,0.0,0.0,0.0,0.0,0.0,0.0,0.0,0.0,0.0,0.0,0.0,0.0,0.0,0.0,0.0,0.0,0.0,0.0,0.0,0.0,0.0,0.0,0.0,0.0,0.0,0.0,0.0,0.0,0.0,6.5053,6.617,6.9011,6.9992,7.0432,7.1481,7.1176,7.0804,7.1548,7.1142,7.0737,7.121,7.1312,7.1075,7.0331,7.1785,7.2935,7.2462,7.5067,7.7435,7.828,7.9837,8.1021,8.1393,0.0,0.0,0.0,0.0,0.0,0.0,0.0,0.0,0.0,0.0,8.464,8.464,8.464,8.4403,8.393,8.393,8.3693,8.3253,8.3253,8.349,8.393,0.0,0.0,0.0,0.0,0.0,0.0,8.3998,8.349,8.2813,8.2611,8.2374,8.2103,8.2103,8.1765,8.1291,0.0,0.0,0.0,0.0,0.0,0.0,0.0,0.0,0.0,0.0,0.0,0.0,0.0,0.0,0.0,0.0,0.0,0.0,0.0,0.0,0.0,0.0,0.0,0.0,0.0,0.0,0.0,4.6207,4.6488,4.7042,4.7906,0.0,0.0,0.0,0.0,0.0,0.0,0.0,0.0,0.0,0.0,0.0,0.0,0.0,0.0,0.0,0.0,0.0,0.0,0.0,0.0,0.0,0.0,0.0,0.0,0.0,0.0,0.0,0.0,6.9519,7.0432,7.1819,7.1751,7.1481,7.2157,7.1785,0.0,7.1312,7.1312,7.1075,7.0331,7.1447,7.2462,7.2462,7.439,7.6623,7.8788,7.9769,0.0,0.0,8.4708,0.0,0.0,0.0,0.0,0.0,0.0,0.0,0.0,0.0,0.0,8.464,8.464,8.464,8.464,8.464,8.464,8.464,8.464,8.464,8.464,0.0,0.0,0.0,0.0,0.0,0.0,8.4336,8.4167,8.3558,8.4268,8.4099,8.349,8.349,8.2611,8.1426,0.0,0.0,0.0,0.0,0.0,0.0,0.0,0.0,0.0,0.0,0.0,0.0,0.0,0.0,0.0,0.0,0.0,0.0,0.0,0.0,0.0,0.0,0.0,0.0,0.0,0.0,0.0,4.5466,4.6911,4.7673,4.7906,4.8477,0.0,0.0,0.0,0.0,0.0,0.0,0.0,0.0,0.0,0.0,0.0,0.0,0.0,0.0,0.0,0.0,0.0,0.0,0.0,0.0,0.0,0.0,0.0,0.0,6.3599,0.0,6.6812,0.0,6.9451,6.9789,7.0601,7.1345,0.0,7.1447,7.1312,7.1312,7.1312,7.1075,7.0331,7.1853,7.324,7.324,7.5608,7.7841,7.8957,8.0209,0.0,8.2543,0.0,0.0,0.0,0.0,0.0,0.0,0.0,0.0,0.0,0.0,0.0,8.464,8.464,8.464,8.464,8.464,8.464,8.464,8.464,8.464,8.464,0.0,0.0,0.0,0.0,0.0,0.0,8.4539,8.4167,8.3524,8.3693,8.3659,8.349,8.349,8.3287,8.2983,0.0,0.0,0.0,0.0,0.0,0.0,0.0,0.0,0.0,0.0,0.0,0.0,0.0,0.0,0.0,0.0,0.0,0.0,0.0,0.0,0.0,0.0,0.0,0.0,0.0,0.0,0.0,0.0,0.0,4.9227,0.0,0.0,0.0,0.0,0.0,0.0,0.0,0.0,0.0,0.0,0.0,0.0,0.0,0.0,0.0,0.0,0.0,0.0,0.0,5.4296,5.5074,5.6021,0.0,0.0,0.0,0.0,6.3193,0.0,6.5493,6.6914,6.8301,6.935,6.9958,7.0466,7.1176,7.1312,7.1413,7.1751,7.1819,7.1785,7.1718,7.324,7.4492,7.4492,7.6758,7.8889,7.9972,8.1663,8.2847,8.2915,0.0,0.0,0.0,0.0,0.0,0.0,0.0,0.0,0.0,0.0,0.0,0.0,8.464,8.464,8.464,8.464,8.464,8.464,8.464,8.464,8.464,0.0,0.0,0.0,0.0,0.0,8.464,8.464,8.437,8.3998,8.3998,8.3998,8.3998,8.3998,8.3795,8.349,0.0,0.0,0.0,0.0,0.0,0.0,0.0,0.0,0.0,0.0,0.0,0.0,0.0,0.0,0.0,0.0,0.0,0.0,0.0,0.0,0.0,0.0,0.0,0.0,0.0,0.0,0.0,0.0,0.0,0.0,0.0,0.0,5.1454,0.0,0.0,0.0,0.0,0.0,0.0,0.0,0.0,0.0,0.0,0.0,0.0,0.0,0.0,0.0,0.0,5.5074,5.5209,5.5209,5.7848,0.0,0.0,0.0,0.0,0.0,6.4309,6.5662,6.7421,6.9214,6.9383,6.9451,7.0838,7.1244,7.1548,7.2394,7.2462,7.2699,7.3646,7.4864,7.5777,7.6014,0.0,0.0,8.1088,8.3118,8.42,8.3558,0.0,0.0,0.0,0.0,0.0,0.0,0.0,0.0,0.0,0.0,0.0,0.0,8.464,8.464,8.464,8.464,8.464,8.464,8.464,8.464,8.464,8.464,0.0,0.0,0.0,0.0,8.464,8.464,8.464,8.464,8.464,8.464,8.464,8.464,8.42,8.3659,0.0,0.0,0.0,0.0,0.0,0.0,0.0,0.0,0.0,0.0,0.0,0.0,0.0,0.0,0.0,0.0,0.0,0.0,0.0,0.0,0.0,0.0,0.0,0.0,0.0,0.0,0.0,0.0,0.0,0.0,5.3315,5.3213,5.2469,0.0,0.0,0.0,0.0,0.0,0.0,0.0,0.0,0.0,0.0,0.0,0.0,0.0,0.0,0.0,0.0,5.4465,5.5108,5.5716,5.6799,0.0,0.0,0.0,0.0,0.0,6.3835,6.5662,6.7658,6.7387,6.8233,6.9316,7.0161,7.0838,7.1684,7.3037,7.2834,7.3003,7.4999,7.554,7.6115,7.7435,0.0,8.1021,0.0,0.0,8.3625,0.0,0.0,0.0,0.0,0.0,0.0,0.0,0.0,0.0,0.0,0.0,0.0,0.0,0.0,8.464,8.464,8.464,8.464,8.464,8.464,8.464,8.464,8.464,8.464,0.0,0.0,0.0,8.464,8.464,8.464,8.464,8.464,8.464,8.464,8.464,8.4539,8.437,0.0,0.0,0.0,0.0,0.0,0.0,0.0,0.0,0.0,0.0,0.0,0.0,0.0,0.0,0.0,0.0,0.0,0.0,0.0,0.0,0.0,0.0,0.0,0.0,0.0,0.0,0.0,0.0,0.0,5.3348,5.4093,5.4093,5.3078,5.1217,0.0,0.0,0.0,0.0,0.0,0.0,0.0,0.0,0.0,0.0,0.0,0.0,0.0,0.0,0.0,0.0,5.5446,5.5919,5.7036,0.0,0.0,0.0,0.0,0.0,6.4681,6.5967,6.7421,6.7929,6.918,7.0703,7.2225,7.2529,7.2902,7.439,7.4086,7.4153,7.6014,7.6995,7.8044,7.9532,0.0,8.234,0.0,0.0,0.0,0.0,0.0,0.0,0.0,0.0,0.0,0.0,0.0,0.0,0.0,0.0,0.0,0.0,0.0,0.0,8.464,8.464,8.464,8.464,8.464,8.464,8.464,8.464,8.464,0.0,0.0,8.464,8.464,8.464,8.464,8.464,8.464,8.464,8.464,8.464,8.464,8.4573,0.0,0.0,0.0,0.0,0.0,0.0,0.0,0.0,0.0,0.0,0.0,0.0,0.0,0.0,0.0,0.0,0.0,0.0,0.0,0.0,0.0,0.0,0.0,0.0,0.0,0.0,5.2202,5.3516,5.3687,5.4059,5.46,5.4769,5.3653,0.0,0.0,0.0,0.0,0.0,0.0,0.0,0.0,0.0,0.0,0.0,0.0,0.0,0.0,0.0,0.0,0.0,0.0,0.0,0.0,0.0,0.0,6.1264,6.3125,6.4986,6.5527,6.6745,6.8166,6.9316,7.0195,7.1379,7.3578,7.3646,7.3747,7.5608,7.5371,7.5439,7.7333,7.8619,7.9769,8.1088,8.2374,0.0,0.0,0.0,0.0,0.0,0.0,0.0,0.0,0.0,0.0,0.0,0.0,0.0,0.0,0.0,0.0,0.0,0.0,0.0,8.464,8.464,8.464,8.464,8.464,8.464,8.464,8.464,8.464,8.464,8.464,8.464,8.464,8.464,8.464,8.464,8.464,8.464,8.464,8.464,8.464,8.464,0.0,0.0,0.0,0.0,0.0,0.0,0.0,0.0,0.0,0.0,0.0,0.0,0.0,0.0,0.0,0.0,0.0,0.0,0.0,0.0,0.0,0.0,0.0,0.0,0.0,5.2504,5.3687,5.4499,5.4499,5.4532,5.46,5.531,5.4397,5.2198,0.0,0.0,0.0,0.0,0.0,0.0,0.0,0.0,0.0,0.0,0.0,0.0,0.0,0.0,0.0,0.0,0.0,0.0,0.0,0.0,6.0385,6.1873,6.3869,6.5628,6.5662,6.8267,7.1007,7.1109,7.0195,6.9857,7.2056,7.2529,7.3308,7.6217,7.6183,7.6521,7.9431,8.004,8.0378,8.1156,8.1968,0.0,0.0,0.0,0.0,0.0,0.0,0.0,0.0,0.0,0.0,0.0,0.0,0.0,0.0,0.0,0.0,0.0,0.0,0.0,8.464,8.464,8.464,8.464,8.464,8.464,8.464,8.464,8.464,8.464,8.464,8.464,8.464,8.464,8.464,8.464,8.464,8.464,8.464,8.464,8.464,8.464,0.0,0.0,0.0,0.0,0.0,0.0,0.0,0.0,0.0,0.0,0.0,0.0,0.0,0.0,0.0,0.0,0.0,0.0,0.0,0.0,0.0,0.0,0.0,5.0512,5.2504,5.3619,5.4329,5.46,5.5074,5.5277,5.5277,5.5108,0.0,0.0,0.0,0.0,0.0,0.0,0.0,0.0,0.0,0.0,0.0,0.0,0.0,0.0,0.0,0.0,0.0,0.0,5.6562,5.707,5.8558,5.9505,6.0486,6.2516,6.4309,6.6,6.7421,6.9519,7.1548,7.2428,7.2259,7.2428,7.4695,7.5202,7.5642,7.7232,7.7705,7.872,8.1697,8.2238,8.2475,8.3253,8.3592,0.0,0.0,0.0,0.0,0.0,0.0,0.0,0.0,0.0,0.0,0.0,0.0,0.0,0.0,0.0,0.0,0.0,0.0,0.0,0.0,8.464,8.464,8.464,8.464,8.464,8.464,8.464,8.464,8.464,8.464,8.464,8.464,8.464,8.464,8.464,8.464,8.464,8.464,8.464,8.464,8.464,0.0,0.0,0.0,0.0,0.0,0.0,0.0,0.0,0.0,0.0,0.0,0.0,0.0,0.0,0.0,0.0,0.0,0.0,0.0,0.0,0.0,0.0,0.0,5.115,5.345,5.4228,5.4803,5.5277,5.6021,5.6055,5.5344,0.0,0.0,0.0,0.0,0.0,0.0,0.0,0.0,0.0,0.0,0.0,0.0,0.0,0.0,0.0,0.0,0.0,0.0,0.0,5.6934,5.7408,5.8896,5.9877,6.0926,6.3193,6.5256,6.7151,6.8944,7.0872,7.2665,7.3883,7.439,7.5033,7.6826,7.686,7.6927,7.8382,7.9667,8.1021,8.2813,0.0,0.0,0.0,0.0,0.0,0.0,0.0,0.0,0.0,0.0,0.0,0.0,0.0,0.0,0.0,0.0,0.0,0.0,0.0,0.0,0.0,0.0,0.0,0.0,8.464,8.464,8.464,8.464,8.464,8.464,8.464,8.464,8.464,8.464,8.464,8.464,8.464,8.464,8.464,8.464,8.464,8.464,8.464,8.464,8.464,0.0,0.0,0.0,0.0,0.0,0.0,0.0,0.0,0.0,0.0,0.0,0.0,0.0,0.0,0.0,0.0,0.0,0.0,0.0,0.0,0.0,0.0,0.0,5.115,5.345,5.4228,5.531,5.6799,5.7509,5.6731,5.46,5.5344,0.0,0.0,0.0,0.0,0.0,0.0,0.0,0.0,0.0,0.0,0.0,0.0,0.0,0.0,0.0,0.0,0.0,0.0,5.7306,5.8152,5.9641,6.0655,6.1738,6.3937,6.6745,6.9248,6.9992,7.236,7.4796,7.554,7.6318,7.7096,7.7841,7.6826,7.6589,7.96,8.1968,8.3287,8.2577,8.3016,0.0,0.0,0.0,0.0,0.0,0.0,0.0,0.0,0.0,0.0,0.0,0.0,0.0,0.0,0.0,0.0,0.0,0.0,0.0,0.0,0.0,0.0,0.0,8.464,8.464,8.464,8.464,8.464,8.464,8.464,8.464,8.464,8.464,8.464,8.464,8.464,8.464,8.464,8.464,8.464,8.464,8.464,8.464,8.464,0.0,0.0,0.0,0.0,0.0,0.0,0.0,0.0,0.0,0.0,0.0,0.0,0.0,0.0,0.0,0.0,0.0,0.0,0.0,0.0,0.0,0.0,0.0,0.0,0.0,0.0,5.5074,5.6055,5.5716,5.5243,0.0,0.0,0.0,5.2638,0.0,0.0,0.0,0.0,0.0,0.0,0.0,0.0,0.0,0.0,0.0,0.0,0.0,0.0,0.0,0.0,0.0,0.0,5.9641,6.0655,6.1738,6.3937,6.6339,6.8639,7.05,7.2766,7.4931,7.6217,7.7096,7.7976,7.9261,7.9194,7.9397,8.1359,8.2678,8.3592,8.3896,0.0,0.0,0.0,0.0,0.0,0.0,0.0,0.0,0.0,0.0,0.0,0.0,0.0,0.0,0.0,0.0,0.0,0.0,0.0,0.0,0.0,0.0,0.0,0.0,0.0,8.464,8.464,8.464,8.464,8.464,8.464,8.464,8.464,8.464,8.464,8.464,8.464,8.464,8.464,8.464,8.464,8.464,8.464,8.464,8.464,0.0,0.0,0.0,0.0,0.0,0.0,0.0,0.0,0.0,0.0,0.0,0.0,0.0,0.0,0.0,0.0,0.0,0.0,0.0,0.0,0.0,0.0,0.0,0.0,0.0,5.3619,5.4059,0.0,0.0,0.0,0.0,0.0,0.0,5.23,0.0,5.2773,0.0,0.0,0.0,0.0,0.0,0.0,0.0,0.0,0.0,0.0,0.0,0.0,0.0,0.0,0.0,0.0,5.9641,6.0858,6.2245,6.4749,6.7489,7.006,7.1718,7.4255,7.6555,7.7164,7.8111,7.9261,8.075,8.1291,8.1765,8.2644,8.3693,8.4437,8.4606,0.0,0.0,0.0,0.0,0.0,0.0,0.0,0.0,0.0,0.0,0.0,0.0,0.0,0.0,0.0,0.0,0.0,0.0,0.0,0.0,0.0,0.0,0.0,0.0,0.0,0.0,8.464,8.464,8.464,8.464,8.464,8.464,8.464,8.464,8.464,8.464,8.464,8.464,8.464,8.464,8.464,8.464,8.464,8.464,8.464,0.0,0.0,0.0,0.0,0.0,0.0,0.0,0.0,0.0,0.0,0.0,0.0,0.0,0.0,0.0,0.0,0.0,0.0,0.0,0.0,0.0,0.0,0.0,0.0,0.0,0.0,0.0,0.0,0.0,0.0,0.0,0.0,5.2401,5.2232,0.0,5.3585,0.0,0.0,0.0,0.0,0.0,0.0,0.0,0.0,0.0,0.0,0.0,0.0,0.0,0.0,0.0,0.0,5.9641,6.1095,6.2888,6.5831,6.9316,7.236,7.3172,7.6149,7.8855,7.8145,7.9194,8.075,8.2103,8.3084,8.3659,8.3524,0.0,8.552,8.4674,0.0,0.0,0.0,0.0,0.0,0.0,0.0,0.0,0.0,0.0,0.0,0.0,0.0,0.0,0.0,0.0,0.0,0.0,0.0,0.0,0.0,0.0,0.0,0.0,0.0,0.0,0.0,8.464,8.464,8.464,8.464,8.464,8.464,8.464,8.464,8.464,8.464,8.464,8.464,8.464,8.464,8.464,8.464,8.464,8.464,0.0,0.0,0.0,0.0,0.0,0.0,0.0,0.0,0.0,0.0,0.0,0.0,0.0,0.0,0.0,0.0,0.0,0.0,0.0,0.0,0.0,0.0,0.0,0.0,0.0,0.0,0.0,0.0,0.0,0.0,0.0,0.0,0.0,5.1555,0.0,5.4228,0.0,0.0,0.0,0.0,0.0,0.0,0.0,0.0,0.0,0.0,0.0,0.0,0.0,0.0,0.0,0.0,5.9641,6.0757,6.211,6.5053,6.8166,7.0939,7.2259,7.5371,7.8179,7.8044,7.9972,8.2035,8.234,8.3896,8.4945,8.3761,8.4708,8.5351,0.0,0.0,0.0,0.0,0.0,0.0,0.0,0.0,0.0,0.0,0.0,0.0,0.0,0.0,0.0,0.0,0.0,0.0,0.0,0.0,0.0,0.0,0.0,0.0,8.464,8.464,8.464,0.0,8.464,8.464,8.464,8.464,8.464,8.464,8.464,8.464,8.464,8.464,8.464,8.464,8.464,8.464,8.464,8.464,8.464,8.464,0.0,0.0,0.0,0.0,0.0,0.0,0.0,0.0,0.0,0.0,0.0,0.0,0.0,0.0,0.0,0.0,0.0,0.0,0.0,0.0,0.0,0.0,0.0,0.0,0.0,0.0,0.0,0.0,0.0,0.0,0.0,0.0,0.0,5.2435,0.0,5.5581,0.0,0.0,0.0,0.0,0.0,0.0,0.0,0.0,0.0,0.0,0.0,0.0,0.0,0.0,0.0,0.0,0.0,0.0,6.2482,6.5764,6.8639,7.121,7.3375,7.5676,7.7638,7.8348,8.0209,8.1968,8.234,8.3862,8.5012,8.42,8.4979,8.5418,0.0,0.0,0.0,0.0,0.0,0.0,0.0,0.0,0.0,0.0,0.0,0.0,0.0,0.0,0.0,0.0,0.0,0.0,0.0,0.0,0.0,0.0,0.0,0.0,8.464,8.464,8.464,8.464,8.464,8.464,8.464,8.464,8.464,8.464,8.464,8.464,8.464,8.464,8.464,8.464,8.464,8.464,8.464,8.464,8.4694,8.4872,0.0,0.0,0.0,0.0,0.0,0.0,0.0,0.0,0.0,0.0,0.0,0.0,0.0,0.0,0.0,0.0,0.0,0.0,0.0,0.0,0.0,0.0,0.0,0.0,0.0,0.0,0.0,0.0,0.0,0.0,5.389,0.0,0.0,5.3788,0.0,0.0,0.0,0.0,0.0,0.0,0.0,0.0,0.0,0.0,0.0,0.0,0.0,0.0,0.0,0.0,0.0,0.0,0.0,0.0,6.3091,6.6677,6.9316,7.1751,7.4559,7.6183,7.7435,7.8923,8.031,8.1494,8.2238,8.3456,8.4471,8.4606,8.5249,0.0,0.0,0.0,0.0,0.0,0.0,0.0,0.0,0.0,0.0,0.0,0.0,0.0,0.0,0.0,0.0,0.0,0.0,0.0,0.0,0.0,8.464,0.0,0.0,8.464,8.464,8.464,8.464,8.464,8.464,8.464,8.464,8.464,8.464,8.464,8.464,8.464,8.464,8.464,8.464,8.464,8.4694,8.4766,8.4943,8.4995,8.5256,8.5737,0.0,0.0,0.0,0.0,0.0,0.0,0.0,0.0,0.0,0.0,0.0,0.0,0.0,0.0,0.0,0.0,0.0,0.0,0.0,0.0,0.0,0.0,0.0,0.0,0.0,0.0,0.0,0.0,0.0,5.5412,5.5412,5.5412,5.5074,5.4532,0.0,0.0,0.0,0.0,0.0,0.0,0.0,0.0,0.0,0.0,0.0,0.0,0.0,0.0,0.0,0.0,5.9302,0.0,0.0,0.0,6.299,6.6068,6.8571,7.0838,7.3138,7.5777,7.8213,7.9667,8.0682,8.1494,8.2238,8.305,8.3828,0.0,8.5249,0.0,0.0,0.0,0.0,0.0,0.0,0.0,0.0,0.0,0.0,0.0,0.0,0.0,0.0,0.0,0.0,0.0,0.0,0.0,0.0,8.464,8.464,8.464,8.464,0.0,8.464,8.464,8.464,8.464,8.464,8.464,8.464,8.464,8.464,8.464,8.464,8.464,8.464,8.464,8.464,8.464,8.4906,8.5481,8.6202,8.6518,8.7078,8.7769,0.0,0.0,0.0,0.0,0.0,0.0,0.0,0.0,0.0,0.0,0.0,0.0,0.0,0.0,0.0,0.0,0.0,0.0,0.0,0.0,0.0,0.0,0.0,0.0,0.0,0.0,0.0,0.0,5.5175,5.5919,5.6325,5.6325,5.6156,0.0,0.0,0.0,0.0,0.0,0.0,0.0,0.0,0.0,0.0,0.0,0.0,0.0,0.0,0.0,0.0,0.0,0.0,0.0,6.0757,0.0,0.0,0.0,6.8132,7.0263,7.3274,7.5709,7.7739,7.9228,8.0141,8.0885,8.1629,8.2678,8.3592,8.393,0.0,0.0,0.0,0.0,0.0,0.0,0.0,0.0,0.0,0.0,0.0,0.0,0.0,0.0,0.0,0.0,0.0,0.0,0.0,0.0,8.464,8.464,8.464,8.464,8.464,0.0,8.464,8.464,8.464,8.464,8.464,8.464,8.464,8.464,8.464,8.464,8.464,8.464,8.464,8.464,8.4961,8.5617,8.577,8.6498,8.7434,8.7573,8.8023,8.8562,0.0,0.0,0.0,0.0,0.0,0.0,0.0,0.0,0.0,0.0,0.0,0.0,0.0,0.0,0.0,0.0,0.0,0.0,0.0,0.0,0.0,0.0,0.0,0.0,0.0,0.0,0.0,5.46,5.5716,5.6461,5.6799,5.7171,5.7374,5.7374,5.7746,5.8727,0.0,0.0,0.0,0.0,0.0,0.0,0.0,0.0,0.0,0.0,0.0,0.0,0.0,0.0,0.0,0.0,0.0,0.0,0.0,0.0,0.0,7.0331,7.3477,7.5439,7.6961,7.845,7.9363,8.0175,8.1088,8.2002,8.2881,0.0,0.0,0.0,0.0,0.0,0.0,0.0,0.0,0.0,0.0,0.0,0.0,0.0,0.0,0.0,0.0,0.0,0.0,0.0,0.0,0.0,8.464,8.464,8.464,8.464,8.464,8.464,8.464,8.464,8.464,8.464,8.464,8.464,8.464,8.4694,8.4747,8.4747,8.464,8.4732,8.5066,8.5066,8.5786,8.6865,8.6961,8.7631,8.8667,8.8746,8.9085,8.9588,0.0,0.0,0.0,0.0,0.0,0.0,0.0,0.0,0.0,0.0,0.0,0.0,0.0,0.0,0.0,0.0,0.0,0.0,0.0,0.0,0.0,0.0,0.0,0.0,0.0,0.0,5.3822,5.46,5.6731,5.7442,5.6833,5.8254,5.8896,5.8863,5.8186,5.8727,6.0148,0.0,0.0,0.0,0.0,0.0,0.0,0.0,0.0,0.0,0.0,0.0,0.0,0.0,0.0,0.0,0.0,0.0,0.0,0.0,0.0,0.0,7.3105,7.4627,7.6115,7.7671,7.8619,7.9532,8.0953,8.0818,8.1156,8.3998,0.0,0.0,0.0,0.0,0.0,0.0,0.0,0.0,0.0,0.0,0.0,0.0,0.0,0.0,0.0,0.0,0.0,0.0,0.0,0.0,8.464,8.464,8.464,8.464,8.464,8.464,8.464,8.464,8.464,8.464,8.464,8.464,8.4606,8.4906,8.5063,8.5063,8.4747,8.524,8.6316,8.6316,8.7008,8.8133,8.8428,8.9128,8.9924,9.0276,9.0905,9.1657,0.0,0.0,0.0,0.0,0.0,0.0,0.0,0.0,0.0,0.0,0.0,0.0,0.0,5.0405,5.0405,5.0405,0.0,0.0,0.0,0.0,0.0,0.0,0.0,0.0,0.0,5.2706,5.3856,5.46,5.6799,5.7509,5.6833,5.7814,5.8287,5.8287,5.8524,5.9438,6.0926,6.167,0.0,0.0,0.0,0.0,0.0,0.0,0.0,0.0,0.0,0.0,0.0,0.0,0.0,0.0,0.0,0.0,0.0,6.7827,6.9383,7.1007,7.2969,7.3883,7.4762,7.6792,7.8213,7.9261,7.9769,8.0784,8.1799,8.2374,0.0,0.0,0.0,0.0,0.0,0.0,0.0,0.0,0.0,0.0,0.0,0.0,0.0,0.0,0.0,0.0,0.0,0.0,0.0,0.0,8.464,8.464,8.464,8.464,8.464,8.464,8.464,8.464,8.464,8.464,8.48,8.4906,8.4958,8.5838,8.629,8.6256,8.6741,8.6852,8.6776,8.734,8.8268,8.939,8.9546,9.024,9.1173,9.1285,9.1546,9.1803,0.0,0.0,0.0,0.0,0.0,0.0,0.0,0.0,0.0,0.0,0.0,0.0,0.0,0.0,5.1185,5.1185,5.1185,5.1185,0.0,0.0,0.0,0.0,0.0,0.0,0.0,5.3315,5.4499,5.4972,5.7171,5.7881,5.7171,5.7915,5.8254,5.8287,5.9032,5.9945,0.0,0.0,0.0,6.529,0.0,0.0,7.077,0.0,0.0,0.0,0.0,0.0,0.0,0.0,0.0,0.0,0.0,0.0,0.0,0.0,6.962,7.0567,7.2293,7.3105,7.395,7.598,7.7638,7.8822,7.9058,8.0445,8.1663,8.1663,0.0,0.0,0.0,0.0,0.0,0.0,0.0,0.0,0.0,0.0,0.0,0.0,0.0,0.0,0.0,0.0,0.0,0.0,0.0,0.0,8.464,8.464,8.464,8.464,8.464,8.464,8.464,8.4747,8.48,8.48,8.5063,8.5221,8.5273,8.6175,8.6748,8.71,8.8068,8.8294,8.7977,8.857,8.9516,9.0598,9.0674,9.1097,9.1803,9.1803,9.1803,9.1803,0.0,0.0,0.0,0.0,0.0,0.0,0.0,0.0,0.0,5.1386,0.0,0.0,0.0,0.0,0.0,5.1252,5.1319,5.132,5.1286,5.1286,0.0,0.0,0.0,0.0,0.0,5.4499,5.5683,5.5681,5.7881,5.8592,5.7915,5.8626,5.8998,5.9032,5.9742,6.008,6.025,0.0,6.37,6.6068,0.0,7.1921,7.165,0.0,0.0,0.0,7.4458,7.4695,0.0,0.0,0.0,0.0,0.0,0.0,0.0,0.0,0.0,0.0,0.0,0.0,0.0,7.527,7.6792,7.8145,7.8923,7.9634,8.0581,8.2035,0.0,0.0,0.0,0.0,0.0,0.0,0.0,0.0,0.0,0.0,0.0,0.0,0.0,0.0,0.0,0.0,0.0,0.0,0.0,8.464,8.464,8.464,8.4606,8.4606,8.4606,8.464,8.464,8.4958,8.5116,8.515,8.5377,8.5514,8.548,8.584,8.6489,8.7433,8.8668,8.954,9.0046,9.0046,9.0716,9.1803,9.1803,9.1803,9.1803,9.1803,9.1803,9.1803,0.0,0.0,0.0,0.0,0.0,0.0,0.0,0.0,5.3112,0.0,0.0,0.0,5.3619,5.416,5.4059,5.2976,5.3856,5.4228,5.3687,5.3653,5.3653,5.3653,5.2604,5.2367,5.3145,5.3788,5.4634,5.5681,5.6867,5.7577,5.7881,5.8084,0.0,0.0,5.8998,5.9945,6.1061,6.2584,0.0,0.0,6.9417,7.1312,0.0,0.0,0.0,0.0,0.0,7.6724,0.0,0.0,7.5033,7.3138,0.0,0.0,0.0,0.0,0.0,0.0,7.1109,0.0,0.0,0.0,0.0,0.0,0.0,0.0,7.9667,0.0,0.0,0.0,0.0,0.0,0.0,0.0,0.0,0.0,0.0,0.0,0.0,0.0,0.0,0.0,0.0,0.0,0.0,0.0,8.4302,8.464,8.464,8.464,8.4747,8.4958,8.4958,8.5063,8.5221,8.5325,8.5411,8.5411,8.5635,8.5788,8.584,8.7433,8.8355,8.8677,9.0357,9.1171,9.1286,9.1286,9.1472,9.1803,9.1803,9.1803,9.1803,9.1803,9.1803,9.1803,0.0,0.0,0.0,0.0,0.0,0.0,0.0,0.0,0.0,0.0,0.0,0.0,5.5412,5.5919,5.5716,5.4532,5.5174,5.5412,5.4634,5.4871,5.5074,5.5074,5.4194,5.3788,5.3957,5.4871,5.548,5.5681,5.707,5.778,5.7881,0.0,0.0,0.0,0.0,0.0,0.0,0.0,0.0,0.0,7.0567,0.0,0.0,7.5236,7.6082,0.0,0.0,0.0,7.6995,7.7604,7.6284,0.0,0.0,0.0,0.0,0.0,0.0,0.0,0.0,0.0,0.0,0.0,0.0,0.0,7.7739,7.8314,7.8855,0.0,0.0,0.0,0.0,0.0,0.0,0.0,0.0,0.0,0.0,0.0,0.0,0.0,0.0,0.0,0.0,0.0,0.0,0.0,8.3727,8.4302,8.4606,8.4747,8.4906,8.5063,8.5202,8.5359,8.5514,8.5583,8.5635,8.5686,8.6325,8.6671,8.672,8.8355,8.9321,8.9743,9.0788,9.1472,9.1803,9.1803,9.1803,9.1803,9.1803,9.1803,9.1803,9.1803,9.1803,9.1803,0.0,0.0,0.0,0.0,0.0,0.0,0.0,0.0,0.0,0.0,5.4972,5.5547,5.6799,5.707,5.6833,5.6021,5.6122,5.5886,5.5141,5.5716,5.6089,5.6089,5.5919,5.5513,5.4837,5.6697,5.7036,5.5817,5.7814,5.8457,5.7881,0.0,0.0,0.0,0.0,0.0,0.0,0.0,0.0,6.8741,7.2766,7.3612,0.0,0.0,7.598,0.0,7.642,7.6995,7.7333,7.8483,7.7638,0.0,0.0,0.0,0.0,0.0,7.1481,0.0,0.0,0.0,0.0,0.0,0.0,0.0,7.7367,7.7739,7.7976,0.0,0.0,0.0,0.0,0.0,0.0,0.0,0.0,0.0,0.0,0.0,0.0,0.0,0.0,0.0,0.0,0.0,8.2272,8.2272,8.3001,8.3746,8.4471,8.4822,8.5048,8.5168,8.5428,8.5566,8.5618,8.5941,8.6109,8.6109,8.7278,8.7842,8.7888,8.8845,8.9702,9.0512,9.0592,9.1095,9.1803,9.1803,9.1803,9.1803,9.1803,9.1803,9.1803,9.1803,9.1803,9.1803,0.0,0.0,0.0,0.0,0.0,0.0,0.0,0.0,5.5716,5.6292,5.7408,5.8017,5.7712,5.8727,5.893,5.7577,5.8558,5.893,5.8186,5.8287,5.8389,5.8389,5.7239,5.6528,5.6359,5.6224,5.6292,5.6596,5.7036,5.7442,5.7881,5.7881,0.0,0.0,0.0,0.0,0.0,0.0,0.0,7.1616,7.2496,0.0,7.3477,7.527,7.6149,7.6487,7.6792,7.7671,7.8551,0.0,7.7841,7.7908,0.0,0.0,0.0,0.0,0.0,0.0,0.0,0.0,0.0,0.0,0.0,0.0,7.5811,7.6149,7.6521,0.0,0.0,0.0,0.0,0.0,0.0,0.0,0.0,0.0,0.0,0.0,0.0,0.0,0.0,0.0,0.0,0.0,8.1494,8.1494,8.2411,8.326,8.4008,8.4301,8.4831,8.5703,8.5788,8.5941,8.6144,8.6964,8.7361,8.7361,8.8355,8.8845,8.8845,8.9785,9.0312,9.0512,9.1247,9.162,9.1803,9.1803,9.1803,9.1803,9.1803,9.1803,9.1803,9.1803,9.1803,9.1803,0.0,0.0,0.0,0.0,0.0,0.0,0.0,0.0,5.7205,5.8287,6.008,6.1129,6.0723,6.1366,6.1366,6.0216,6.0825,6.0926,6.0216,6.0486,6.052,6.0182,5.9066,5.8084,5.734,5.7002,5.6799,5.6799,5.7171,5.7543,5.7915,5.8287,0.0,0.0,0.0,0.0,6.6373,0.0,7.0128,7.1954,7.3071,0.0,7.527,7.6014,7.6792,7.7401,7.7029,7.7367,7.7908,7.7164,7.7401,0.0,0.0,7.5709,7.6014,0.0,7.3003,7.1853,0.0,0.0,0.0,7.1684,0.0,0.0,0.0,7.5168,7.5371,7.6149,0.0,0.0,0.0,0.0,0.0,0.0,0.0,0.0,0.0,0.0,0.0,0.0,0.0,0.0,0.0,0.0,8.0513,8.1224,8.1546,8.2208,8.3296,8.4097,8.4778,8.5307,8.5836,8.6359,8.7012,8.7456,8.7934,8.84,8.9364,8.9785,8.9826,9.071,9.1133,9.1171,9.162,9.1803,9.1803,9.1803,9.1803,9.1803,9.1803,9.1803,9.1803,9.1803,9.1803,9.1803,0.0,0.0,0.0,0.0,0.0,0.0,0.0,0.0,5.9066,6.0554,6.2618,6.4005,6.414,6.4275,6.4241,6.3903,6.3768,6.3429,0.0,0.0,0.0,6.2381,6.1197,5.9979,5.8795,5.8321,5.7814,5.7239,5.7814,5.8186,5.8321,5.893,0.0,0.0,0.0,6.5291,6.803,0.0,0.0,7.2124,0.0,7.5879,7.713,7.7266,7.7874,7.8517,7.7807,7.7435,7.7367,7.7502,0.0,7.7705,7.7401,7.6893,0.0,0.0,0.0,0.0,0.0,0.0,0.0,0.0,0.0,7.2732,0.0,0.0,0.0,7.439,0.0,0.0,0.0,0.0,0.0,0.0,0.0,0.0,0.0,0.0,0.0,0.0,0.0,0.0,0.0,0.0,8.0073,8.0919,8.1205,8.173,8.27,8.3803,8.4514,8.4652,8.5772,8.6707,8.7492,8.7967,8.8624,8.9364,9.0312,9.0749,9.0749,9.1472,9.1803,9.1803,9.1803,9.1803,9.1803,9.1803,9.1803,9.1803,9.1803,9.1803,9.1803,9.1803,9.1803,9.1803,5.548,5.4938,0.0,0.0,0.0,0.0,0.0,0.0,6.1434,6.2922,6.4478,6.5696,6.6373,6.7015,0.0,0.0,0.0,0.0,6.8233,0.0,0.0,6.6203,6.3565,0.0,6.1873,5.9911,5.8829,5.8761,5.8829,5.9201,5.9844,5.9945,0.0,0.0,6.674,0.0,6.8285,0.0,7.5538,0.0,7.598,7.713,0.0,7.8619,7.9701,8.0818,8.0073,7.9431,7.8957,0.0,8.0242,8.0547,0.0,7.8788,0.0,0.0,0.0,0.0,0.0,0.0,0.0,0.0,7.28,0.0,0.0,0.0,7.3612,7.3612,0.0,0.0,0.0,0.0,0.0,0.0,0.0,0.0,0.0,0.0,0.0,0.0,0.0,0.0,0.0,0.0,0.0,7.9846,8.2308,8.3515,8.26,8.2927,8.3417,8.4072,8.568,8.6627,8.6719,8.9006,9.0231,9.0353,9.1209,9.1657,9.1657,9.1767,9.1803,9.1803,9.1803,9.1803,9.1803,9.1803,9.1803,9.1803,9.1803,9.1803,9.1803,9.1803,9.1803,9.1803,5.5886,5.5446,0.0,0.0,0.0,0.0,0.0,0.0,6.4072,6.4681,6.5696,6.6474,0.0,0.0,0.0,0.0,0.0,6.9282,0.0,0.0,0.0,0.0,0.0,0.0,0.0,6.1501,6.0351,6.0351,5.9877,5.981,6.0114,6.0588,0.0,0.0,6.7277,0.0,7.1356,0.0,7.6033,0.0,0.0,0.0,0.0,7.8991,7.8855,7.9329,7.9025,7.872,7.8585,0.0,8.004,0.0,0.0,0.0,0.0,0.0,0.0,0.0,0.0,0.0,0.0,0.0,0.0,0.0,0.0,0.0,7.3883,0.0,0.0,0.0,0.0,0.0,0.0,0.0,0.0,0.0,0.0,0.0,0.0,0.0,0.0,0.0,0.0,0.0,0.0,0.0,0.0,8.2428,8.1908,8.2528,8.3052,8.3362,8.4984,8.6325,8.7365,8.8963,9.0274,9.1247,9.162,9.1803,9.1803,9.1803,9.1803,9.1803,9.1803,9.1803,9.1803,9.1803,9.1803,9.1803,9.1803,9.1803,9.1803,9.1803,9.1803,9.1803,5.7137,0.0,0.0,0.0,0.0,0.0,0.0,0.0,6.5831,6.6237,6.6948,0.0,6.7996,6.8795,0.0,0.0,7.1848,7.2218,0.0,0.0,7.1231,0.0,0.0,0.0,0.0,0.0,6.211,6.1907,6.1129,6.0926,6.1332,6.1738,0.0,0.0,0.0,7.0735,7.3424,0.0,7.6794,7.8142,7.8819,8.0209,8.1629,7.987,7.8822,7.8314,7.8517,7.8585,7.872,7.9464,8.0209,0.0,7.9938,0.0,0.0,0.0,0.0,0.0,7.7029,0.0,0.0,0.0,0.0,0.0,0.0,0.0,0.0,0.0,0.0,0.0,0.0,0.0,0.0,0.0,0.0,0.0,0.0,0.0,0.0,0.0,0.0,0.0,0.0,0.0,0.0,0.0,8.1268,0.0,8.1249,8.2091,8.2707,8.2962,8.4572,8.6133,8.7628,8.8981,9.0296,9.1473,9.1693,9.1803,9.1803,9.1803,9.1803,9.1803,9.1803,9.1803,9.1803,9.1803,9.1803,9.1803,9.1803,9.1803,9.1803,9.1803,9.1803,9.1803,5.9979,5.8795,0.0,0.0,0.0,0.0,0.0,0.0,0.0,0.0,0.0,0.0,0.0,0.0,0.0,0.0,0.0,7.9269,7.9304,0.0,7.5681,0.0,0.0,6.9723,0.0,0.0,0.0,6.3463,6.2685,6.3057,6.4444,6.3768,6.4241,0.0,7.0602,7.2666,7.2996,7.7451,7.8924,7.8339,7.8876,7.9566,8.0412,0.0,8.0953,7.916,7.987,0.0,0.0,8.0953,8.1731,0.0,0.0,0.0,0.0,0.0,0.0,0.0,0.0,0.0,0.0,7.7566,0.0,0.0,0.0,0.0,7.3308,0.0,0.0,0.0,0.0,0.0,0.0,6.6406,0.0,0.0,0.0,0.0,0.0,0.0,0.0,0.0,0.0,0.0,0.0,7.8292,8.2752,0.0,8.0798,8.1474,8.2278,8.3059,8.4792,8.6087,8.6921,8.9313,9.0593,9.0665,9.1436,9.1803,9.1803,9.1803,9.1803,9.1803,9.1803,9.1803,9.1803,9.1803,9.1803,9.1803,9.1803,9.1803,9.1803,9.1803,9.1803,9.1803,0.0,0.0,0.0,0.0,0.0,0.0,0.0,6.6508,0.0,0.0,0.0,0.0,0.0,7.4473,7.5825,0.0,0.0,7.8341,7.8868,7.7763,0.0,0.0,0.0,7.1596,0.0,0.0,0.0,0.0,0.0,6.4106,6.458,6.4343,6.5019,6.6542,0.0,7.2161,0.0,0.0,0.0,0.0,0.0,8.0987,8.1562,0.0,0.0,8.0581,8.0818,8.1224,0.0,8.1934,8.2205,8.2272,8.1528,8.1291,8.119,8.0682,7.9429,0.0,0.0,0.0,7.7377,7.7314,0.0,0.0,0.0,0.0,0.0,0.0,0.0,0.0,0.0,0.0,0.0,6.8199,0.0,0.0,0.0,0.0,0.0,0.0,0.0,0.0,0.0,0.0,0.0,7.875,8.0987,8.1805,0.0,8.0882,8.1663,8.3068,8.4231,8.5513,8.6887,8.829,8.9564,9.0592,9.0886,9.1289,9.1803,9.1803,9.1803,9.1803,9.1803,9.1803,9.1803,9.1803,9.1803,9.1803,9.1803,9.1803,9.1803,9.1803,9.1803,9.1803,6.3091,0.0,0.0,0.0,0.0,0.0,0.0,0.0,0.0,0.0,7.2637,0.0,7.5108,0.0,7.7917,0.0,7.9502,8.0146,8.0559,7.9487,0.0,7.9074,7.5948,0.0,0.0,0.0,0.0,0.0,0.0,6.5392,6.5392,6.5392,6.6034,6.7286,0.0,7.2146,7.4741,7.5106,7.7372,0.0,0.0,8.1122,0.0,0.0,8.0784,0.0,0.0,8.2002,8.2374,8.2103,8.2171,8.2238,8.1224,8.1088,8.1224,8.0987,8.0021,7.9288,8.0089,7.9494,0.0,0.0,7.8579,0.0,7.7648,0.0,0.0,0.0,0.0,0.0,0.0,0.0,0.0,7.0022,6.8208,0.0,0.0,0.0,0.0,0.0,0.0,0.0,0.0,0.0,7.8694,7.8443,8.0268,8.1089,0.0,0.0,8.1874,8.3555,8.441,8.5542,8.6902,8.7775,8.872,8.9748,9.0335,9.0886,9.1363,9.1657,9.1803,9.1803,9.1803,9.1803,9.1803,9.1803,9.1803,9.1803,9.1803,9.1803,9.1803,9.1803,9.1803,9.1803,0.0,0.0,0.0,0.0,6.6,0.0,0.0,0.0,7.1698,0.0,7.4636,7.6886,7.7591,8.0514,8.2664,8.3383,8.4189,0.0,8.4482,8.1691,0.0,0.0,7.9221,7.8301,7.9908,0.0,0.0,0.0,0.0,0.0,6.6914,6.6948,6.7354,6.8166,7.0364,0.0,7.4878,7.4672,7.6411,7.9338,7.9245,8.0175,8.1654,8.146,0.0,8.3524,8.2746,8.2475,8.2374,8.1663,8.1866,8.2137,8.0784,8.075,8.1173,8.0479,8.0644,8.0921,8.0693,8.0263,8.0014,8.0697,0.0,0.0,0.0,0.0,7.6169,0.0,0.0,0.0,0.0,0.0,0.0,7.1464,6.8981,0.0,0.0,0.0,0.0,0.0,0.0,0.0,0.0,7.7765,7.9268,7.7385,8.0672,8.1852,0.0,0.0,0.0,8.4459,8.5294,8.6153,8.6995,8.7729,8.8133,8.8206,8.9748,9.0519,9.0629,9.14,9.1767,9.1803,9.1803,9.1803,9.1803,9.1803,9.1803,9.1803,9.1803,9.1803,9.1803,9.1803,9.1803,9.1803,6.6136,6.7151,6.7929,0.0,6.8267,6.8876,0.0,0.0,0.0,0.0,7.9044,8.1009,8.1838,8.3759,8.4558,8.3584,8.4204,0.0,0.0,0.0,0.0,8.4879,8.114,7.9564,8.0691,7.5936,0.0,7.3253,0.0,0.0,6.8538,6.9079,6.9722,7.05,7.1616,7.3073,7.466,7.4619,7.6055,7.8462,7.9767,8.1371,0.0,0.0,8.3389,8.5012,8.3693,8.3219,8.3287,8.3625,8.278,8.1697,8.2441,8.1817,8.0951,8.1868,8.1201,8.0341,8.122,8.0523,7.9484,7.9109,7.9095,7.9095,0.0,0.0,0.0,0.0,0.0,0.0,0.0,0.0,0.0,0.0,0.0,0.0,0.0,0.0,0.0,0.0,0.0,0.0,0.0,7.5623,7.6789,7.8017,7.9534,0.0,0.0,0.0,0.0,8.4458,8.4718,8.5554,8.6995,8.6591,8.7031,8.8206,8.861,8.9454,9.0629,9.0812,9.1216,9.1803,9.1803,9.1803,9.1803,9.1803,9.1803,9.1803,9.1803,9.1803,9.1803,9.1803,9.1803,9.1803,6.7726,0.0,0.0,7.0026,0.0,0.0,7.1978,0.0,0.0,7.8728,8.1257,0.0,8.3934,8.5583,8.6426,8.5845,8.6244,0.0,0.0,0.0,0.0,8.4992,8.3122,8.2291,8.2785,7.8686,0.0,7.6056,0.0,0.0,7.0094,7.0804,7.1548,7.2293,7.3037,7.4018,7.5148,7.5981,7.7477,7.9419,8.0824,0.0,0.0,8.2633,8.3087,8.3761,8.3219,8.3219,8.3524,8.3625,8.3016,8.2392,8.3003,8.2683,8.2072,8.2393,8.2064,8.1493,8.1551,8.1195,8.0663,7.9974,8.0096,8.0082,7.9098,7.8837,7.8665,0.0,0.0,0.0,0.0,0.0,0.0,0.0,0.0,0.0,0.0,0.0,0.0,0.0,0.0,0.0,0.0,0.0,0.0,0.0,0.0,0.0,0.0,0.0,0.0,0.0,8.5227,8.6061,8.6995,8.6885,8.7142,8.7692,8.8023,8.8867,9.0115,9.0445,9.1033,9.1803,9.1803,9.1803,9.184,9.2207,9.2427,9.2537,9.2977,9.2902,9.2608,9.3013,9.2794,9.2427,0.0,0.0,0.0,0.0,0.0,0.0,0.0,7.618,0.0,8.0299,0.0,8.4231,8.4948,8.6744,8.8106,8.8726,0.0,8.8535,8.7757,8.7042,8.5991,8.4475,8.4936,8.5189,8.5189,8.1958,0.0,0.0,0.0,0.0,7.1921,7.2529,7.3172,7.3815,7.4559,7.5296,0.0,7.7979,7.957,8.0858,8.1917,8.2187,8.2043,8.2408,8.2106,8.1528,8.2222,8.2798,8.3118,8.2629,8.2798,8.3222,8.3058,8.3381,8.3688,8.285,8.303,8.3262,8.2149,8.2183,8.2369,8.1888,8.1538,8.1016,7.9621,7.9702,7.9909,7.9243,7.8417,0.0,0.0,0.0,0.0,0.0,0.0,0.0,0.0,0.0,0.0,0.0,0.0,0.0,0.0,0.0,0.0,0.0,0.0,0.0,0.0,0.0,0.0,0.0,8.5967,0.0,8.7142,0.0,8.7802,8.7325,8.7912,8.861,8.9419,9.0005,9.0849,9.184,9.184,9.1986,9.2243,9.3015,9.3419,9.3673,9.4553,9.4439,9.385,9.4772,9.4373,9.3566,0.0,0.0,0.0,0.0,0.0,7.7666,7.9652,8.0412,8.1598,8.3829,8.5567,8.6673,8.6818,8.8351,8.9118,8.8609,8.876,0.0,0.0,0.0,0.0,8.7656,8.6101,8.5189,8.5189,8.2611,8.073,0.0,0.0,0.0,7.4931,7.5067,7.5202,7.5337,7.6149,7.6684,7.714,7.9087,0.0,8.0285,8.175,8.2115,8.1744,8.1614,8.1816,8.2238,8.2598,8.2275,8.1782,8.2496,8.2378,8.2276,8.362,8.3857,8.3853,8.4948,8.417,8.3183,8.3983,8.335,8.232,8.1648,8.1442,8.1201,8.0497,7.9522,7.8902,7.9304,7.8822,7.8076,7.7571,0.0,0.0,0.0,0.0,0.0,0.0,0.0,0.0,0.0,0.0,0.0,0.0,0.0,0.0,0.0,0.0,0.0,0.0,0.0,0.0,0.0,0.0,0.0,0.0,0.0,0.0,8.8942,8.8463,8.861,8.9345,8.8867,8.9891,9.2056,9.2056,9.2901,9.437,9.4517,9.4591,9.4627,9.481,9.4809,9.4772,9.5586,9.5771,9.5478,0.0,0.0,0.0,0.0,0.0,0.0,0.0,8.4383,0.0,8.6247,8.702,8.7648,8.8043,8.9341,9.0007,8.9605,9.0081,9.0337,9.019,8.913,8.8289,8.7742,8.6314,0.0,8.5508,8.3444,8.1988,8.1231,0.0,0.0,0.0,0.0,0.0,7.8059,7.8211,7.858,0.0,0.0,0.0,8.1574,8.3288,8.3021,8.1551,8.1862,8.2087,8.2292,8.2359,8.2393,8.2428,8.3313,8.3091,8.2699,8.4078,8.4417,8.4327,8.477,8.4816,8.4521,8.3974,8.3547,8.3099,8.2342,8.1895,8.1564,8.128,8.0672,8.0155,8.0086,7.95,7.8753,7.811,7.7628,0.0,0.0,0.0,0.0,0.0,0.0,0.0,0.0,0.0,0.0,0.0,0.0,0.0,0.0,0.0,0.0,0.0,0.0,0.0,0.0,0.0,0.0,0.0,0.0,0.0,8.8793,8.8899,8.9375,9.0184,8.9884,9.0688,9.2233,9.2233,9.3004,9.4328,9.5285,9.5653,9.569,9.624,9.6201,9.5939,9.7059,9.7454,9.735,0.0,7.6543,0.0,0.0,8.1486,0.0,8.5384,8.7377,8.8545,8.8015,8.8155,8.8478,8.9054,9.0259,9.0997,9.0813,9.1583,9.1657,9.0593,8.9822,8.8758,8.7256,8.63,8.5783,8.5783,8.4254,8.3121,0.0,0.0,0.0,0.0,0.0,0.0,0.0,0.0,0.0,0.0,0.0,8.3208,8.3215,8.4414,8.3596,8.1715,8.2046,8.2159,8.2132,8.2318,8.2915,8.3668,8.4505,8.4232,8.3684,8.438,8.4755,8.4805,8.4383,8.5018,8.5466,8.3845,8.3707,8.388,8.3293,8.2707,8.2293,8.2293,8.2017,8.1638,8.1017,8.0155,7.9476,7.9427,7.9187,0.0,0.0,0.0,0.0,0.0,0.0,0.0,0.0,0.0,0.0,0.0,0.0,0.0,0.0,0.0,0.0,8.3484,8.3774,0.0,0.0,0.0,0.0,8.7509,0.0,8.9197,0.0,8.9555,9.0322,9.0983,9.0937,9.152,9.2479,9.2479,9.3068,9.4101,9.5573,9.6228,9.6365,9.7208,9.7193,9.6831,9.7928,9.8336,9.8245,0.0,0.0,0.0,0.0,0.0,0.0,0.0,8.8653,9.0116,8.9311,8.9715,9.008,9.0153,9.1617,9.2278,9.1472,9.2353,9.2244,9.0447,8.975,8.8907,8.7885,8.6524,8.5783,8.5783,8.4939,8.3948,0.0,0.0,0.0,0.0,0.0,0.0,0.0,0.0,0.0,0.0,8.3362,8.4123,8.4266,8.3401,8.287,8.2485,8.1524,8.1566,8.225,8.3099,8.3953,8.4792,8.5799,8.5458,8.4552,8.4181,8.4555,8.5141,8.5121,8.4673,8.4328,8.4846,8.4501,8.3983,8.3914,8.388,8.3811,8.3811,8.2776,8.1776,8.1707,8.0534,7.9707,8.035,7.9384,7.8867,0.0,0.0,0.0,0.0,0.0,0.0,0.0,0.0,0.0,0.0,0.0,0.0,0.0,0.0,8.4392,8.4474,8.5168,0.0,8.5673,0.0,8.6885,8.9125,8.9308,0.0,9.0657,9.0766,9.0944,9.1156,9.0415,9.1034,9.265,9.265,9.3641,9.5257,9.5406,9.5772,9.6199,9.6342,9.6664,9.7069,9.7199,9.7237,9.7237,0.0,0.0,0.0,0.0,0.0,0.0,0.0,8.9166,8.9968,9.0115,9.074,9.1217,9.1217,9.1804,9.206,9.173,9.206,9.1987,9.1254,9.0043,8.9015,8.8137,8.663,8.5563,8.5086,8.4278,8.3764,0.0,0.0,0.0,0.0,0.0,0.0,0.0,0.0,8.2731,8.3223,8.4064,8.4428,8.4457,8.396,8.3444,8.2801,8.1883,8.2246,8.3311,8.3719,8.4663,8.5696,8.5624,8.5382,8.4904,8.421,8.4225,8.4397,8.3949,8.4259,8.4708,8.4535,8.4259,8.4121,8.4604,8.4018,8.3604,8.4501,8.388,8.2983,8.2569,8.1656,8.0841,8.0628,8.097,8.1153,0.0,0.0,0.0,0.0,0.0,0.0,0.0,0.0,0.0,0.0,0.0,0.0,0.0,0.0,0.0,8.6811,8.7068,0.0,8.7252,0.0,8.6909,8.8858,8.9477,8.9951,9.0386,9.1449,9.2032,9.2101,9.1902,9.2191,9.2926,9.3408,9.4193,9.5202,9.5688,9.6208,9.6762,9.6762,9.6901,9.7143,9.7439,9.7562,9.7648,8.4053,0.0,8.6096,0.0,8.8089,8.8791,8.9311,8.9565,9.0041,9.0849,9.1436,9.1803,9.1803,9.2024,9.206,9.1803,9.2024,9.195,9.1473,9.0408,8.9307,8.8243,8.6885,0.0,8.5343,8.4535,8.4122,8.4245,8.3749,0.0,0.0,0.0,0.0,0.0,8.3271,8.3586,8.4246,8.452,8.4675,8.482,8.4255,8.3677,8.3015,8.2118,8.2604,8.3707,8.3707,8.4535,8.5535,8.5018,8.4846,8.4708,8.3949,8.3707,8.3569,8.3052,8.3845,8.4673,8.3914,8.3845,8.4156,8.4708,8.4052,8.3638,8.5156,8.4915,8.4253,8.3711,8.3301,8.2725,8.1888,8.2567,8.2908,0.0,0.0,0.0,0.0,0.0,0.0,0.0,8.4315,8.4682,8.4352,0.0,0.0,0.0,0.0,0.0,0.0,0.0,0.0,0.0,0.0,0.0,0.0,0.0,9.0042,9.0113,9.1838,9.2717,9.2785,9.2922,9.2988,9.3058,9.3774,9.4311,9.4699,9.5439,9.609,9.6591,9.6591,9.6729,9.69,9.7309,9.744,9.7482,8.5228,8.5314,8.5656,8.6821,8.7657,8.8465,8.9307,9.0078,9.0886,9.1693,9.1803,9.1803,9.1803,9.2574,9.2758,9.1877,9.2574,9.2391,9.0739,9.0592,8.9858,0.0,0.0,8.6995,8.6995,8.6187,8.538,8.4575,0.0,0.0,7.849,0.0,0.0,8.2931,8.3687,8.421,8.4575,8.4609,8.5003,8.5544,8.3861,8.3181,8.3015,8.2118,8.2259,8.2914,8.2914,8.3397,8.4052,8.4018,8.4018,8.3914,8.3156,8.2914,8.2914,8.2914,8.3431,8.388,8.3121,8.3466,8.4018,8.4018,8.4018,8.4397,8.5949,8.5708,8.5208,8.5378,8.547,8.5329,8.4579,8.383,8.3504,8.4253,0.0,0.0,0.0,0.0,0.0,0.0,8.7655,8.8463,8.9235,0.0,0.0,0.0,0.0,0.0,0.0,0.0,0.0,8.7305,8.666,0.0,8.8683,8.9566,9.011,9.0313,9.1943,9.2785,9.2988,9.2988,9.2988,9.3021,9.3574,9.3835,9.3856,9.4405,9.4942,9.5423,9.5423,9.578,9.6308,9.6308,9.6308,9.6308,8.7158,8.7303,8.7558,8.8466,8.9307,8.9748,8.9419,9.0078,9.0702,9.0959,9.0996,9.1179,9.173,9.206,9.2097,0.0,9.206,9.1987,0.0,9.0922,9.0372,8.9858,8.8536,8.7582,8.7031,8.6224,8.5673,8.5416,0.0,0.0,0.0,8.2665,8.3368,8.4857,8.5113,8.5325,8.5416,8.5416,8.5536,8.5661,8.4493,8.4017,8.3847,8.2361,8.2259,8.2914,8.2914,8.3397,8.3949,8.3431,8.3259,8.3121,8.2397,8.25,8.2914,8.2914,8.3431,8.3949,8.3707,8.4225,8.4811,8.4811,8.4811,8.5087,8.6087,8.6214,8.6324,8.6966,8.7187,8.6881,8.5488,8.5531,8.5518,8.4629,0.0,0.0,0.0,0.0,0.0,0.0,8.593,8.5857,0.0,8.7839,0.0,0.0,0.0,0.0,0.0,0.0,0.0,0.0,8.7965,0.0,8.8881,8.9864,9.037,9.0472,9.2142,9.2922,9.3021,9.3358,9.3536,9.3567,9.4104,9.4552,9.4904,9.5072,9.549,9.602,9.602,9.6136,9.6288,9.6288,9.6288,9.6288,8.7729,8.7986,8.8353,8.8867,8.9638,9.0078,8.9895,9.0298,9.0702,9.1033,9.1069,9.1253,9.173,9.1803,0.0,9.1803,9.1803,0.0,9.1803,9.1326,9.0922,9.0629,8.9638,8.8573,8.7472,0.0,0.0,8.5783,8.5554,8.559,8.588,8.5081,8.5116,8.5783,8.549,8.5527,8.5783,8.5783,8.5793,8.5735,8.5131,8.4477,8.3847,8.3059,8.2869,8.2998,8.2998,8.3276,8.3529,8.2782,8.25,8.2431,8.1948,8.2121,8.25,8.25,8.3018,8.3583,8.3668,8.4456,8.5255,8.5255,8.575,8.6417,8.7186,8.773,8.8184,8.8781,8.8981,8.8718,8.767,8.7449,8.7112,8.6065,0.0,0.0,0.0,0.0,0.0,0.0,0.0,0.0,0.0,8.7429,0.0,0.0,0.0,0.0,0.0,0.0,0.0,8.9185,8.8053,0.0,8.8668,8.9878,9.0499,9.0499,9.2391,9.3389,9.3627,9.3972,9.4104,9.4132,9.468,9.5072,9.5407,9.564,9.5981,9.6288,9.6288,9.6288,9.6288,9.6288,9.6288,9.6288,8.7325,8.7766,0.0,0.0,8.8977,0.0,9.0482,9.0665,9.0959,9.1693,9.1803,9.1803,9.1803,9.1803,9.1803,9.1803,0.0,0.0,0.0,9.1803,9.1473,9.0739,9.0629,0.0,8.839,8.8243,8.7435,8.5857,8.582,8.6187,8.6921,8.6151,8.5783,8.5747,8.5086,8.5196,8.5857,8.5857,8.5878,8.5767,8.573,8.472,8.3375,8.4106,8.3932,8.3156,8.3112,8.3103,8.297,8.2071,8.181,8.181,8.181,8.181,8.181,8.1845,8.241,8.2993,8.3161,8.4342,8.5511,8.5441,8.671,8.8221,8.9014,8.9868,9.0512,9.0552,9.0625,9.0665,9.0629,8.9381,8.8316,8.8206,8.6921,8.5967,8.5967,0.0,0.0,0.0,0.0,0.0,0.0,8.8446,8.7925,0.0,0.0,0.0,0.0,0.0,0.0,8.7868,8.7211,8.7267,8.8084,8.9681,9.0568,9.078,9.2848,9.4132,9.4604,9.4629,9.4655,9.468,9.525,9.5451,9.5533,9.6059,9.6288,9.6288,9.6288,9.6288,9.6288,9.6288,9.6288,9.6288,0.0,0.0,8.9124,8.9124,8.9784,9.0408,9.0592,9.1106,9.1583,9.1767,9.1803,9.1803,9.1803,9.1803,9.1803,9.1803,9.1803,9.1803,9.1803,9.1803,9.173,9.151,9.0922,9.0408,9.0041,8.883,8.7729,8.6738,8.6114,8.5894,8.6077,8.5894,8.5783,8.582,8.6261,8.6554,8.6738,8.6738,8.6707,8.6643,8.599,8.5427,8.5039,8.4559,8.4272,8.4016,8.3331,8.3103,8.297,8.2071,8.181,8.181,8.181,8.181,8.1914,8.2466,8.3229,8.3876,8.3926,8.5605,8.7157,8.6517,8.7579,8.9028,8.9955,9.0353,9.0671,9.1359,9.151,9.1326,9.0702,9.0298,8.9638,8.839,8.7876,8.7619,8.7619,0.0,0.0,0.0,8.8146,8.7915,8.7763,8.7727,8.8387,0.0,0.0,0.0,0.0,0.0,8.9498,8.8058,8.7898,8.7898,8.8084,8.9681,9.1348,9.3028,9.3971,9.4474,9.4604,9.5025,9.5189,9.5212,9.5841,9.6098,9.6117,9.6251,9.6288,9.6288,9.6288,9.6288,9.6288,9.6288,9.6288,9.6288,8.9382,8.9711,8.9968,8.9968,9.0629,9.1143,9.1143,9.151,9.1803,9.1803,9.1803,9.1803,9.1803,9.1803,9.1803,9.1803,9.1803,9.1803,9.1803,9.1803,9.1803,9.1803,9.1363,9.0996,9.0629,8.9748,8.872,8.7545,8.6738,8.6334,8.6334,8.6334,8.6334,8.6371,8.6811,8.6995,8.6995,8.6995,8.6995,8.696,8.6464,8.6064,8.5692,8.5616,8.5348,8.492,8.4477,8.4314,8.4148,8.3244,8.297,8.297,8.297,8.297,8.3075,8.3461,8.3611,8.3877,8.4669,8.6429,8.8172,8.8863,8.9383,8.995,9.0902,9.1095,9.1209,9.1694,9.1803,9.1657,9.1216,9.0849,9.0298,8.9454,8.9014,8.8645,8.8347,8.8046,0.0,8.8029,8.769,8.7382,8.7115,8.711,8.7665,8.9062,0.0,0.0,8.9855,8.9484,8.8918,8.8121,8.8084,8.8202,8.8428,9.0264,9.2147,9.3996,9.4641,9.5324,9.5936,9.5832,9.6033,9.6378,9.6693,9.6865,9.6865,9.7288,9.7442,9.7442,9.7442,9.7442,9.7442,9.7442,9.7442,9.7442,8.9784,9.0335,9.0776,9.0776,9.1363,9.1803,9.1803,9.1803,9.1803,9.1803,9.1803,9.1803,9.1803,9.1803,9.1803,9.1803,9.1803,9.1803,9.1803,9.1803,9.1803,9.1803,9.1803,9.1473,9.0812,9.0665,8.9821,8.8206,8.7509,8.7142,8.6995,8.6995,8.6995,8.6995,8.6995,8.6995,8.6995,8.6995,8.6995,8.6995,8.6995,8.6572,8.599,8.6714,8.6536,8.5879,8.573,8.5692,8.5578,8.468,8.4396,8.4396,8.4396,8.4396,8.4396,8.4559,8.4065,8.3847,8.5417,8.7147,8.9011,9.1254,9.1247,9.0902,9.162,9.1803,9.1803,9.1803,9.1803,9.1803,9.1803,9.1253,9.0812,9.0959,9.0225,8.945,8.8962,0.0,8.8324,8.7641,8.7563,8.7369,8.6899,8.6825,8.6851,8.7007,8.7007,0.0,0.0,8.8202,8.8263,8.8316,8.8263,8.8503,8.9102,9.1193,9.2975,9.4392,9.5282,9.6396,9.7673,9.698,9.7057,9.7711,9.7711,9.7634,9.7557,9.8288,9.8519,9.8404,9.8404,9.8404,9.8404,9.8404,9.8404,9.8404,9.1436,9.1546,9.162,9.162,9.173,9.1803,9.1803,9.1803,9.1803,9.1803,9.1803,9.1803,9.1803,9.1803,9.1803,9.1803,9.1803,9.1803,9.1803,9.1803,9.1803,9.1803,9.1803,9.173,9.162,9.0959,8.9821,8.8206,8.8059,8.7655,8.6995,8.6995,8.6995,8.6995,8.6995,8.6995,8.6995,8.6995,8.6995,8.6995,8.6995,8.6925,8.6821,8.6925,8.6925,8.6679,8.599,8.5692,8.5578,8.468,8.4396,8.4396,8.4396,8.4396,8.4518,8.5273,8.5389,8.5495,8.6448,8.8433,9.0484,9.151,9.1694,9.162,9.1767,9.1803,9.1803,9.1803,9.1803,9.1803,9.1803,9.1693,9.184,9.2611,9.1581,9.062,0.0,0.0,8.8655,8.7873,8.7889,8.7984,8.7867,8.7867,8.7867,8.7898,8.7898,8.8144,8.8673,8.8701,8.8887,8.9352,8.8914,8.928,9.0575,9.2055,9.3584,9.5216,9.6554,9.7654,9.8596,9.8481,9.8481,9.8596,9.8596,9.8173,9.7519,9.7634,9.7288,9.6673,9.6673,9.6673,9.6673,9.6673,9.6673,9.6673,9.1803,9.1803,9.1803,9.1803,9.1803,9.1803,9.1803,9.1803,9.1803,9.1803,9.1803,9.1803,9.1803,9.1803,9.1803,9.1803,9.1803,9.1803,9.1803,9.1803,9.1803,9.1803,9.1803,9.1803,9.1803,9.1033,9.0262,8.9491,8.861,8.8023,8.7655,8.7215,8.6995,8.6995,8.6995,8.6995,8.6995,8.6995,8.6995,8.6995,8.6995,8.6995,8.6995,8.6995,8.6995,8.6925,8.6536,8.6392,8.6356,8.5953,8.5803,8.5803,8.5803,8.5803,8.5878,8.6283,8.6684,8.7195,8.8034,8.9386,9.0812,9.1583,9.1803,9.1803,9.1803,9.1803,9.1803,9.1803,9.1803,9.184,9.1948,9.1948,9.2131,9.2644,9.2161,0.0,0.0,9.0028,8.9234,8.8107,8.8053,8.8084,8.8084,8.8084,8.8202,8.8458,8.8487,8.8701,8.9197,8.9223,8.9477,8.9999,8.9792,9.0186,9.1294,9.2651,9.3926,9.5192,9.6309,9.7288,9.8096,9.7634,9.7673,9.8096,9.8096,9.7865,9.7557,9.8019,9.798,9.7634,9.7634,9.7634,9.7634,9.7634,9.7672,9.7708,9.1803,9.1803,9.1803,9.1803,9.1803,9.1803,9.1803,9.1803,9.1803,9.1803,9.1803,9.1803,9.1803,9.1803,9.1803,9.1803,9.1803,9.1803,9.1803,9.1987,9.2024,9.1803,9.1803,9.1803,9.1803,9.1179,9.0702,9.0335,8.9087,8.828,8.7912,8.7288,8.6995,8.6995,8.6995,8.6995,8.6995,8.6995,8.6995,8.6995,8.6995,8.6995,8.6995,8.6995,8.6995,8.6995,8.6995,8.6995,8.6995,8.6995,8.6995,8.6995,8.6995,8.6995,8.7031,8.7215,8.7986,8.8904,8.9528,9.0298,9.1033,9.1657,9.1803,9.1803,9.1803,9.1803,9.1803,9.1876,9.1729,9.1728,9.209,9.1868,9.1829,9.2559,0.0,0.0,0.0,9.0197,8.9521,8.827,8.8202,8.8293,8.8293,8.8376,8.8596,8.8969,8.8996,8.9223,8.9769,8.9792,9.0037,9.0584,9.0605,9.0911,9.1561,9.2794,9.3826,9.4711,9.5595,9.6442,9.7211,9.6596,9.6634,9.7211,9.7211,9.7211,9.7288,9.7961,9.8249,9.8249,9.8267,9.8286,9.8286,9.8286,9.8284,9.8356,9.1803,9.1803,9.1803,9.1803,9.1803,9.1803,9.1803,9.1803,9.1803,9.1803,9.1803,9.1803,9.1803,9.1803,9.1803,9.1803,9.1803,9.1803,9.1803,9.2574,9.2648,9.184,9.1803,9.1803,9.1803,9.173,9.0996,8.9455,8.9381,8.8573,8.7105,8.7031,8.6995,8.6995,8.6995,8.6995,8.6995,8.6995,8.6995,8.6995,8.6995,8.6995,8.6995,8.6995,8.6995,8.6995,8.6995,8.6995,8.6995,8.6995,8.6995,8.6995,8.6995,8.6995,8.7142,8.7876,8.9197,9.0445,9.0519,9.1106,9.173,9.1803,9.1803,9.1803,9.1803,9.1803,9.1876,9.2056,9.1467,9.1243,9.2227,9.1156,9.0861,9.315,0.0,0.0,9.1206,9.0184,8.905,8.8195,8.845,8.8758,8.8758,8.9197,8.9502,8.9552,8.9552,8.9769,9.03,9.036,9.0605,9.1118,9.1118,9.1175,9.1252,9.2115,9.2979,9.3787,9.4672,9.5557,9.6403,9.6326,9.6326,9.6403,9.6403,9.6403,9.6403,9.6512,9.6586,9.6586,9.6635,9.6668,9.6668,9.6668,9.6668,9.668,9.1803,9.1803,9.1803,9.1803,9.1803,9.1803,9.1803,9.1803,9.1803,9.1803,9.2281,9.2611,9.2611,9.3051,9.3345,9.3345,9.3345,9.3345,9.3345,9.3639,9.3455,9.2648,9.2097,9.1803,9.1803,9.1326,9.0776,9.0152,8.916,8.8353,8.7729,8.7252,8.6995,8.6995,8.6995,8.6995,8.6995,8.6995,8.6995,8.6995,8.6995,8.6995,8.6995,8.6995,8.6995,8.6995,8.6995,8.6995,8.6995,8.6995,8.6995,8.7105,8.7582,8.7729,8.7912,8.872,8.9381,8.9858,9.0037,9.0884,9.1803,9.1803,9.1545,9.1249,9.1249,9.0952,9.0688,9.0758,9.0571,9.0492,9.0957,9.0546,9.0469,9.1494,0.0,9.0328,9.0142,8.9919,8.951,8.865,8.8996,8.93,8.93,8.9477,8.9745,9.0082,9.0105,9.0339,9.0858,9.0915,9.0971,9.121,9.121,9.1479,9.2018,9.2326,9.2903,9.371,9.4018,9.4364,9.4672,9.4765,9.48,9.48,9.4853,9.4887,9.4887,9.4883,9.4899,9.4976,9.5511,9.5811,9.5951,9.6493,9.6747,9.6866,9.1803,9.1803,9.1803,9.1803,9.1803,9.1803,9.1803,9.1803,9.1803,9.1803,9.2574,9.3088,9.3088,9.3822,9.4299,9.4299,9.4299,9.4299,9.4299,9.4042,9.3786,9.3492,9.2648,9.2207,9.2207,9.14,9.0739,9.0225,8.9124,8.8316,8.7802,8.7252,8.6995,8.6995,8.6995,8.6995,8.6995,8.6995,8.6995,8.6995,8.6995,8.6995,8.6995,8.6995,8.6995,8.6995,8.6995,8.6995,8.6995,8.6995,8.6995,8.7105,8.7655,8.7986,8.8316,8.8937,8.9305,8.9523,8.9733,9.0508,9.1249,9.1249,9.0913,9.0615,9.0615,9.0276,9.0009,9.0039,8.9854,8.981,9.0197,8.986,8.9665,9.0058,9.0025,8.977,8.9211,8.9592,8.9717,8.9114,8.9527,8.9839,8.9839,8.9977,9.0236,9.0625,9.0645,9.082,9.1189,9.1206,9.1224,9.1258,9.1258,9.1566,9.2143,9.2109,9.2417,9.2991,9.2991,9.2991,9.2991,9.3059,9.3131,9.3131,9.3142,9.3329,9.3615,9.3701,9.3862,9.4147,9.4843,9.5157,9.5362,9.6216,9.6643,9.6803,9.1767,9.1767,9.1767,9.1767,9.1767,9.1767,9.1767,9.1767,9.1767,9.1803,9.2537,9.3088,9.3088,9.3822,9.4299,9.4299,9.4299,9.4299,9.4299,9.3565,9.3455,9.4263,9.3529,9.3088,9.3088,9.2244,9.1033,8.9382,8.9382,8.861,8.7031,8.7031,8.7031,8.7031,8.6995,8.6995,8.6995,8.6995,8.6995,8.6995,8.6995,8.6995,8.6995,8.6995,8.6995,8.6995,8.6995,8.6995,8.6995,8.7031,8.7031,8.7031,8.7031,8.7582,8.8241,8.8449,8.9072,8.9733,8.9938,8.9972,9.0009,9.0009,9.0009,9.0009,9.0009,9.0009,9.0039,9.0169,8.9572,8.9303,9.0281,8.9161,8.8344,8.9193,8.9003,8.8804,8.8804,8.9275,8.9625,8.9625,9.0082,9.0402,9.0402,9.0896,9.121,9.121,9.121,9.1245,9.1308,9.1308,9.1341,9.14,9.14,9.14,9.14,9.1303,9.1303,9.14,9.14,9.14,9.14,9.14,9.14,9.14,9.14,9.1901,9.272,9.2974,9.3574,9.4323,9.4596,9.4676,9.48,9.5657,9.5976,9.6154,9.0225,9.0115,9.0115,9.0115,9.0115,9.0115,9.0115,9.0115,9.0335,9.0886,9.1693,9.2427,9.3015,9.3822,9.4299,9.4299,9.4299,9.4299,9.4299,9.4079,9.4042,9.4299,9.2941,9.217,9.217,9.14,9.0739,9.0262,8.9711,8.9125,8.8648,8.8133,8.7839,8.7839,8.7252,8.6995,8.6995,8.6995,8.6995,8.6995,8.6995,8.6995,8.6995,8.6995,8.6995,8.6995,8.6995,8.6995,8.7105,8.7655,8.7839,8.7984,8.8676,8.9146,8.9322,8.88,8.8837,8.8978,8.859,8.8437,8.8701,8.9747,8.9666,8.9288,8.9288,8.8942,8.87,8.8695,8.8541,8.8586,8.9182,8.8895,8.8776,8.9404,8.9438,8.9377,8.9377,8.9816,9.0171,9.0171,9.0625,9.0952,9.0952,9.1171,9.1258,9.1258,9.1325,9.1374,9.1352,9.1352,9.1368,9.14,9.14,9.147,9.1516,9.1438,9.1368,9.14,9.14,9.14,9.14,9.15,9.161,9.1683,9.1733,9.1967,9.2278,9.239,9.2532,9.2844,9.3531,9.3854,9.4081,9.4939,9.5329,9.5565,9.0445,9.0372,9.0262,8.9931,8.9895,8.9895,8.9895,8.9895,9.0188,9.0959,9.1803,9.2501,9.3051,9.3822,9.4299,9.4299,9.4299,9.4299,9.4299,9.4006,9.3822,9.3822,9.2501,9.195,9.2317,9.151,9.0922,9.0592,9.0115,8.9711,8.9382,8.8904,8.8683,8.8647,8.8169,8.7949,8.7949,8.7949,8.7949,8.7949,8.7619,8.7472,8.7435,8.7142,8.6995,8.6995,8.6995,8.725,8.7649,8.8127,8.838,8.8522,8.9141,8.9169,8.8901,8.8487,8.8372,8.8331,8.8006,8.7927,8.8117,8.9021,8.8938,8.8631,8.8631,8.8355,8.8177,8.8346,8.8406,8.8509,8.905,8.9118,8.9223,8.9552,8.9769,8.9908,8.9908,9.0381,9.0704,9.0762,9.1044,9.1241,9.1275,9.1325,9.1358,9.1358,9.1368,9.1415,9.1485,9.1485,9.15,9.1531,9.1531,9.1716,9.2146,9.2155,9.1895,9.1531,9.1585,9.1603,9.1603,9.172,9.1834,9.1957,9.2336,9.2541,9.2632,9.269,9.2747,9.2752,9.2988,9.3384,9.3886,9.4704,9.5305,9.5781,9.1583,9.1583,9.1363,9.0629,9.0482,9.0482,9.0482,9.0482,9.0776,9.1583,9.2391,9.2905,9.2978,9.3639,9.4079,9.4079,9.4079,9.4079,9.4079,9.3382,9.2978,9.2978,9.2207,9.217,9.2978,9.2207,9.1436,9.0702,9.0702,9.0335,8.9638,8.9529,8.9492,8.9528,8.9419,8.9382,8.9382,8.9308,8.9272,8.9234,8.8426,8.8131,8.8057,8.7323,8.7029,8.7029,8.7029,8.7644,8.8407,8.848,8.8652,8.8823,8.8823,8.8265,8.7595,8.7762,8.7863,8.7895,8.8053,8.8084,8.8115,8.8177,8.814,8.814,8.814,8.8202,8.8346,8.8776,8.8887,8.905,8.9576,8.9673,8.9697,8.9745,9.0171,9.0485,9.0485,9.0895,9.1224,9.1308,9.1308,9.1341,9.1384,9.14,9.1415,9.1415,9.1415,9.1485,9.16,9.1615,9.1697,9.1835,9.1835,9.2235,9.3037,9.317,9.2809,9.1951,9.2111,9.2141,9.2141,9.2285,9.2327,9.2373,9.312,9.3439,9.3458,9.356,9.3586,9.3514,9.2848,9.3086,9.3867,9.4687,9.5469,9.6172,9.0041,8.9931,8.9895,8.9675,8.9639,8.9639,8.9639,8.9639,8.9968,9.0739,9.1033,9.14,9.2024,9.2244,9.2354,9.2354,9.2354,9.2354,9.2354,9.217,9.206,9.206,9.1913,9.1877,9.206,9.1913,9.1693,9.1546,9.1546,9.1436,9.1253,9.0629,9.0335,9.0335,8.9711,8.9382,8.9345,8.872,8.8463,8.839,8.7755,8.7494,8.7492,8.7405,8.7398,8.7398,8.7398,8.7509,8.78,8.8428,8.8819,8.8951,8.8951,8.8493,8.799,8.8021,8.8021,8.8053,8.8084,8.8084,8.8171,8.8567,8.8644,8.8644,8.8644,8.8969,8.93,8.9402,8.9427,8.9601,9.0127,9.0215,9.0381,9.0781,9.0987,9.1115,9.1115,9.1253,9.1352,9.1368,9.1368,9.1368,9.14,9.15,9.16,9.162,9.162,9.1634,9.1687,9.1687,9.2044,9.2848,9.286,9.3024,9.3302,9.3344,9.354,9.3869,9.4016,9.4108,9.4108,9.4106,9.4178,9.4255,9.3825,9.3703,9.374,9.3081,9.2849,9.281,9.2656,9.2734,9.289,9.3086,9.3281,9.3554,9.0629,9.0555,9.0445,9.0041,8.9968,8.9968,8.9968,8.9968,9.0262,9.1069,9.1179,9.1326,9.173,9.1803,9.1803,9.1803,9.1803,9.1803,9.1803,9.1803,9.1803,9.1803,9.1803,9.1803,9.1803,9.1803,9.1803,9.1803,9.1803,9.1803,9.1803,9.1363,9.1179,9.1143,9.0335,9.004,9.0073,8.9264,8.8968,8.8998,8.8327,8.7992,8.7918,8.7612,8.7497,8.7497,8.7497,8.7821,8.8331,8.928,8.9345,8.9145,8.9145,8.8834,8.8428,8.8428,8.8334,8.8223,8.8223,8.796,8.7677,8.7935,8.8482,8.8985,8.9173,8.9402,8.9673,8.9908,8.9977,9.0149,9.0664,9.082,9.0932,9.1206,9.1308,9.1374,9.1374,9.1368,9.1415,9.1485,9.15,9.1516,9.1546,9.1591,9.1691,9.1785,9.1798,9.182,9.1894,9.1905,9.2112,9.2645,9.2693,9.2891,9.3405,9.3515,9.3938,9.4683,9.3944,9.3582,9.3588,9.3673,9.3748,9.3814,9.3814,9.3822,9.3867,9.3398,9.3203,9.3164,9.2773,9.2851,9.3202,9.3202,9.3202,9.3277,9.1803,9.1803,9.1583,9.0922,9.0812,9.0812,9.0812,9.0812,9.1033,9.1693,9.184,9.1876,9.1876,9.1876,9.1912,9.1912,9.1912,9.1912,9.1912,9.1912,9.1912,9.1912,9.1912,9.1912,9.1912,9.1765,9.1729,9.1803,9.1803,9.173,9.1583,9.1583,9.1546,9.1399,9.0738,9.0551,9.069,8.988,8.9651,8.9713,8.8934,8.8601,8.8491,8.7821,8.7595,8.7595,8.7595,8.8201,8.9124,9.0044,8.9801,8.9167,8.9316,8.9074,8.8716,8.8716,8.8544,8.8364,8.8212,8.7644,8.7151,8.7397,8.827,8.9248,8.9741,8.9862,8.9977,9.0464,9.0546,9.0704,9.1154,9.1275,9.1325,9.1325,9.1368,9.1415,9.1415,9.1431,9.15,9.1615,9.1504,9.1445,9.1514,9.1554,9.1602,9.1723,9.185,9.1965,9.2073,9.208,9.2171,9.2354,9.2354,9.2711,9.347,9.3642,9.3985,9.449,9.3084,9.258,9.2892,9.3004,9.3047,9.3086,9.3633,9.3906,9.3906,9.375,9.3671,9.3593,9.289,9.3045,9.3667,9.3667,9.3661,9.3608,9.1803,9.1803,9.1767,9.1657,9.1657,9.1657,9.1657,9.1657,9.1693,9.1803,9.1948,9.2056,9.2056,9.2198,9.234,9.234,9.234,9.234,9.234,9.234,9.234,9.234,9.234,9.234,9.234,9.1639,9.1427,9.1803,9.1803,9.1436,9.0776,9.0776,9.048,8.9995,8.9884,8.9951,9.0086,8.9273,8.8941,8.8901,8.8215,8.7947,8.791,8.7995,8.8021,8.8021,8.8021,8.8354,8.8908,8.9525,8.9188,8.8659,8.9339,8.9049,8.8455,8.8455,8.8429,8.825,8.7492,8.7165,8.7397,8.8548,8.8964,8.9452,9.0723,9.0971,9.1008,9.115,9.1168,9.1219,9.1336,9.1368,9.1384,9.1384,9.1485,9.1585,9.1585,9.1605,9.1687,9.1702,9.1127,9.0752,9.0763,9.0906,9.1007,9.103,9.17,9.2097,9.208,9.208,9.2528,9.3443,9.3482,9.3592,9.3823,9.3865,9.3554,9.2928,9.2694,9.3358,9.4804,9.4843,9.4844,9.4804,9.4179,9.3906,9.3825,9.3083,9.2768,9.2762,9.2645,9.2684,9.2761,9.2761,9.2616,9.2437,9.1803,9.1803,9.184,9.1948,9.1984,9.202,9.2127,9.2127,9.2127,9.2127,9.2198,9.2268,9.2268,9.2375,9.2508,9.2835,9.2576,9.2508,9.2835,9.2576,9.2188,9.1745,9.1745,9.1523,9.108,9.071,9.0642,9.0801,9.0801,9.0617,9.0285,9.0285,9.0136,8.9836,8.9393,8.9273,8.9366,8.8553,8.8472,8.8794,8.8481,8.8529,8.8832,8.8887,8.8952,8.8952,8.8952,8.9076,8.9275,8.9527,8.9373,8.9146,8.9487,8.9564,8.9527,8.9527,8.9359,8.9126,8.8782,8.8323,8.8154,8.8711,8.9265,8.9799,9.0437,9.0983,9.1325,9.1308,9.1341,9.1352,9.1384,9.147,9.15,9.15,9.1189,9.0924,9.0924,9.058,9.0339,9.0415,9.0198,9.0241,9.0717,9.0867,9.1139,9.1715,9.2071,9.229,9.2375,9.2379,9.2585,9.3075,9.3079,9.3123,9.3163,9.3161,9.2964,9.2613,9.2613,9.3005,9.3749,9.3749,9.3748,9.3745,9.3355,9.3158,9.3156,9.2765,9.2606,9.2603,9.2603,9.2504,9.2373,9.2255,9.2136,9.2035]}]]